[[{"header":{"parameterUnit":"m.s-1","parameterCategory":1,"la1":30.6,"la2":29.2853,"lo1":-89.7004,"lo2":-87.6739,"dx":0.0162,"dy":0.0183,"nx":112,"ny":82,"refTime":"2022-12-10T18:00:00:Z","depth":0,"parameterNumber":2,"parameterNumberName":"U-component_of_WINDS"},"data":[0.0,0.0,0.0,0.0,0.0,0.0,0.0,0.0,0.0,0.0,0.0,0.0,0.0,0.0,0.0,0.0,0.0,0.0,0.0,0.0,0.0,0.0,0.0,0.0,0.0,0.0,0.0,0.0,0.0,0.0,0.0,0.0,0.0,0.0,0.0,0.0,0.0,0.0,0.0,0.0,0.0,0.0,0.0,0.0,0.0,0.0,0.0,0.0,0.0,0.0,0.0,0.0,0.0,0.0,0.0,0.0,0.0,0.0,0.0,0.0,0.0,0.0,0.0,0.0,0.0,0.0,0.0,0.0,0.0,0.0,0.0,0.0,0.0,0.0,0.0,0.0,0.0,0.0,0.0,0.0,0.0,0.0,0.0,0.0,0.0,0.0,0.0,0.0,0.0,0.0,-1.2031,-1.3253,-1.5404,-1.6673,-1.6433,-1.6099,-1.487,-1.2452,0.0,0.0,0.0,0.0,0.0,0.0,0.0,0.0,0.0,0.0,0.0,0.0,0.0,0.0,0.0,0.0,0.0,0.0,0.0,0.0,0.0,0.0,0.0,0.0,0.0,0.0,0.0,0.0,0.0,0.0,0.0,0.0,0.0,0.0,0.0,0.0,0.0,0.0,0.0,0.0,0.0,0.0,0.0,0.0,0.0,0.0,0.0,0.0,0.0,0.0,0.0,0.0,0.0,0.0,0.0,0.0,0.0,0.0,0.0,0.0,0.0,0.0,0.0,0.0,0.0,0.0,0.0,0.0,0.0,0.0,0.0,0.0,0.0,0.0,0.0,0.0,0.0,0.0,0.0,0.0,0.0,0.0,0.0,0.0,0.0,0.0,0.0,0.0,0.0,0.0,0.0,0.0,0.0,0.0,0.0,0.0,0.0,0.0,0.0,0.0,0.0,0.0,0.0,0.0,-1.1594,-1.5697,-1.6687,-1.7061,-1.7021,-1.6513,-1.5084,-1.2465,0.0,0.0,0.0,0.0,0.0,0.0,0.0,0.0,0.0,0.0,0.0,0.0,0.0,0.0,0.0,0.0,0.0,0.0,0.0,0.0,0.0,0.0,0.0,0.0,0.0,0.0,0.0,0.0,0.0,0.0,0.0,0.0,0.0,0.0,0.0,0.0,0.0,0.0,0.0,0.0,0.0,0.0,0.0,0.0,0.0,0.0,0.0,0.0,0.0,0.0,0.0,0.0,0.0,0.0,0.0,0.0,0.0,0.0,0.0,0.0,0.0,0.0,0.0,0.0,0.0,0.0,0.0,0.0,0.0,0.0,0.0,0.0,0.0,0.0,0.0,0.0,0.0,0.0,0.0,0.0,0.0,0.0,0.0,0.0,0.0,0.0,0.0,0.0,0.0,0.0,0.0,0.0,0.0,0.0,0.0,0.0,0.0,0.0,0.0,0.0,0.0,0.0,0.0,-1.0271,-1.2514,-1.6534,-1.7208,-1.7382,-1.7382,-1.6847,-1.5378,-1.2705,-1.1864,0.0,0.0,0.0,0.0,0.0,0.0,0.0,0.0,0.0,0.0,0.0,0.0,0.0,0.0,0.0,0.0,0.0,0.0,0.0,0.0,0.0,0.0,0.0,0.0,0.0,0.0,0.0,0.0,0.0,0.0,0.0,0.0,0.0,0.0,0.0,0.0,0.0,0.0,0.0,0.0,0.0,0.0,0.0,0.0,0.0,0.0,0.0,0.0,0.0,0.0,0.0,0.0,0.0,0.0,0.0,0.0,0.0,0.0,0.0,0.0,0.0,0.0,0.0,0.0,0.0,0.0,0.0,0.0,0.0,0.0,0.0,0.0,0.0,0.0,0.0,0.0,0.0,0.0,0.0,0.0,0.0,0.0,0.0,0.0,0.0,0.0,0.0,0.0,0.0,0.0,0.0,0.0,0.0,0.0,0.0,0.0,0.0,0.0,0.0,0.0,0.0,0.0,-1.2469,-1.4372,-1.7141,-1.7622,-1.7769,-1.7702,-1.7208,-1.5725,-1.2997,-1.2405,0.0,0.0,0.0,0.0,0.0,0.0,0.0,0.0,0.0,0.0,0.0,0.0,0.0,0.0,0.0,0.0,0.0,0.0,0.0,0.0,0.0,0.0,0.0,0.0,0.0,0.0,0.0,0.0,0.0,0.0,0.0,0.0,0.0,0.0,0.0,0.0,0.0,0.0,0.0,0.0,0.0,0.0,0.0,0.0,0.0,0.0,0.0,0.0,0.0,0.0,0.0,0.0,0.0,0.0,0.0,0.0,0.0,0.0,0.0,0.0,0.0,0.0,0.0,0.0,0.0,0.0,0.0,0.0,0.0,0.0,0.0,0.0,0.0,0.0,0.0,0.0,0.0,0.0,0.0,0.0,0.0,0.0,0.0,0.0,0.0,0.0,0.0,0.0,0.0,0.0,0.0,0.0,0.0,0.0,0.0,0.0,0.0,0.0,0.0,0.0,0.0,0.0,-1.452,-1.7344,-1.7929,-1.825,-1.8317,-1.8036,-1.7716,-1.6152,-1.3024,-1.2719,0.0,0.0,0.0,0.0,0.0,0.0,0.0,0.0,0.0,0.0,0.0,0.0,0.0,0.0,0.0,0.0,0.0,0.0,0.0,0.0,0.0,0.0,0.0,0.0,0.0,0.0,0.0,0.0,0.0,0.0,0.0,0.0,0.0,0.0,0.0,0.0,0.0,0.0,0.0,0.0,0.0,0.0,0.0,0.0,0.0,0.0,0.0,0.0,0.0,0.0,0.0,0.0,0.0,0.0,0.0,0.0,0.0,0.0,0.0,0.0,0.0,0.0,0.0,0.0,0.0,0.0,0.0,0.0,0.0,0.0,0.0,0.0,0.0,0.0,0.0,0.0,0.0,0.0,0.0,0.0,0.0,0.0,0.0,0.0,0.0,0.0,0.0,0.0,0.0,0.0,0.0,0.0,0.0,0.0,0.0,0.0,0.0,0.0,0.0,0.0,0.0,0.0,-1.375,-1.651,-1.8326,-1.8531,-1.8517,-1.8584,-1.8156,-1.6275,-1.2565,0.0,0.0,0.0,0.0,0.0,0.0,0.0,0.0,0.0,0.0,0.0,0.0,0.0,0.0,0.0,0.0,0.0,0.0,0.0,0.0,0.0,0.0,0.0,0.0,0.0,0.0,0.0,0.0,0.0,0.0,0.0,0.0,0.0,0.0,0.0,0.0,0.0,0.0,0.0,0.0,0.0,0.0,0.0,0.0,0.0,0.0,0.0,0.0,0.0,0.0,0.0,0.0,0.0,0.0,0.0,0.0,0.0,0.0,0.0,0.0,0.0,0.0,0.0,0.0,0.0,0.0,0.0,0.0,0.0,0.0,0.0,0.0,0.0,0.0,0.0,0.0,0.0,0.0,0.0,0.0,0.0,0.0,0.0,0.0,0.0,0.0,0.0,0.0,0.0,0.0,0.0,0.0,0.0,0.0,0.0,0.0,0.0,0.0,0.0,0.0,0.0,0.0,-1.016,-1.2845,-1.5258,-1.7261,-1.7831,-1.7994,-1.8096,-1.8131,-1.6439,-1.2395,0.0,0.0,0.0,0.0,0.0,0.0,0.0,0.0,0.0,0.0,0.0,0.0,0.0,0.0,0.0,0.0,0.0,0.0,0.0,0.0,0.0,0.0,0.0,0.0,0.0,0.0,0.0,0.0,0.0,0.0,0.0,0.0,0.0,0.0,0.0,0.0,0.0,0.0,0.0,0.0,0.0,0.0,0.0,0.0,0.0,0.0,0.0,0.0,0.0,0.0,0.0,0.0,0.0,0.0,0.0,0.0,0.0,0.0,0.0,0.0,0.0,0.0,0.0,0.0,0.0,0.0,0.0,0.0,0.0,0.0,0.0,0.0,0.0,0.0,0.0,0.0,0.0,0.0,0.0,0.0,0.0,0.0,0.0,0.0,0.0,0.0,0.0,0.0,0.0,0.0,0.0,0.0,0.0,0.0,0.0,0.0,0.0,0.0,0.0,0.0,0.0,0.0,-0.9087,-1.1909,-1.3989,-1.443,-1.5902,-1.6751,-1.6276,-1.7628,-1.6662,0.0,0.0,0.0,0.0,0.0,0.0,0.0,0.0,0.0,0.0,0.0,0.0,0.0,0.0,0.0,0.0,0.0,0.0,0.0,0.0,0.0,0.0,0.0,0.0,0.0,0.0,0.0,0.0,0.0,0.0,0.0,0.0,0.0,0.0,0.0,0.0,0.0,0.0,0.0,0.0,0.0,0.0,0.0,0.0,0.0,0.0,0.0,0.0,0.0,0.0,0.0,0.0,0.0,0.0,0.0,0.0,0.0,0.0,0.0,0.0,0.0,0.0,0.0,0.0,0.0,0.0,0.0,0.0,0.0,0.0,0.0,0.0,0.0,0.0,0.0,0.0,0.0,0.0,0.0,0.0,0.0,0.0,0.0,0.0,0.0,0.0,0.0,0.0,0.0,0.0,0.0,0.0,0.0,0.0,0.0,0.0,0.0,0.0,0.0,0.0,0.0,0.0,0.0,-0.9247,-1.201,-1.4164,-1.4771,-1.5183,-1.5392,-1.521,-1.6263,-1.5012,-1.0393,0.0,0.0,0.0,0.0,0.0,0.0,0.0,0.0,0.0,0.0,0.0,0.0,0.0,0.0,0.0,0.0,0.0,0.0,0.0,0.0,0.0,0.0,0.0,0.0,0.0,0.0,0.0,0.0,0.0,0.0,0.0,0.0,0.0,0.0,0.0,0.0,0.0,0.0,0.0,0.0,0.0,0.0,0.0,0.0,0.0,0.0,0.0,0.0,0.0,0.0,0.0,0.0,0.0,0.0,0.0,0.0,0.0,0.0,0.0,0.0,0.0,0.0,0.0,0.0,0.0,0.0,0.0,0.0,0.0,0.0,0.0,0.0,0.0,0.0,0.0,0.0,0.0,0.0,0.0,0.0,0.0,0.0,0.0,0.0,0.0,0.0,0.0,0.0,0.0,0.0,0.0,0.0,0.0,0.0,0.0,0.0,0.0,0.0,0.0,0.0,0.0,0.0,-0.8533,-1.0715,-1.2539,-1.3049,-1.3587,-1.4156,-1.4689,-1.5795,-1.5149,-1.1857,0.0,0.0,0.0,0.0,0.0,0.0,0.0,0.0,0.0,0.0,0.0,0.0,0.0,0.0,0.0,0.0,0.0,0.0,0.0,0.0,0.0,0.0,0.0,0.0,0.0,0.0,0.0,0.0,0.0,0.0,0.0,0.0,0.0,0.0,0.0,0.0,0.0,0.0,0.0,0.0,0.0,0.0,0.0,0.0,0.0,0.0,0.0,0.0,0.0,0.0,0.0,0.0,0.0,0.0,0.0,0.0,0.0,0.0,0.0,0.0,0.0,0.0,0.0,0.0,0.0,0.0,0.0,0.0,0.0,0.0,0.0,0.0,0.0,0.0,0.0,0.0,0.0,0.0,0.0,0.0,0.0,0.0,0.0,0.0,0.0,0.0,0.0,0.0,0.0,0.0,0.0,0.0,0.0,0.0,0.0,0.0,0.0,0.0,0.0,0.0,0.0,0.0,-0.7312,-0.8798,-0.993,-1.0229,-1.1775,-1.3225,-1.4392,-1.597,-1.6369,-1.5195,0.0,0.0,0.0,0.0,0.0,0.0,0.0,0.0,0.0,0.0,0.0,0.0,0.0,0.0,0.0,0.0,0.0,0.0,0.0,0.0,0.0,0.0,0.0,0.0,0.0,0.0,0.0,0.0,0.0,0.0,0.0,0.0,0.0,0.0,0.0,0.0,0.0,0.0,0.0,0.0,0.0,0.0,0.0,0.0,0.0,0.0,0.0,0.0,0.0,0.0,0.0,0.0,0.0,0.0,0.0,0.0,0.0,0.0,0.0,0.0,-0.7263,-0.6476,0.0,0.0,0.0,0.0,0.0,0.0,0.0,0.0,0.0,0.0,0.0,0.0,0.0,0.0,0.0,0.0,0.0,0.0,0.0,0.0,0.0,0.0,0.0,0.0,0.0,0.0,0.0,0.0,0.0,0.0,0.0,0.0,0.0,0.0,0.0,0.0,0.0,0.0,0.0,0.0,-0.7183,-0.873,-0.989,-1.008,-1.1806,-1.3088,-1.3427,-1.5697,-1.6322,-1.4294,-1.4342,0.0,0.0,0.0,0.0,0.0,0.0,0.0,0.0,0.0,0.0,0.0,0.0,0.0,0.0,0.0,0.0,0.0,0.0,0.0,0.0,0.0,0.0,0.0,0.0,0.0,0.0,0.0,0.0,0.0,0.0,0.0,0.0,0.0,0.0,0.0,0.0,0.0,0.0,0.0,0.0,0.0,0.0,0.0,0.0,0.0,0.0,0.0,0.0,0.0,0.0,0.0,0.0,0.0,0.0,0.0,0.0,0.0,0.0,0.0,-0.7964,-0.7381,0.0,0.0,0.0,0.0,0.0,0.0,0.0,0.0,0.0,0.0,0.0,0.0,0.0,0.0,0.0,0.0,0.0,0.0,0.0,0.0,0.0,0.0,0.0,0.0,0.0,0.0,0.0,0.0,0.0,0.0,0.0,0.0,0.0,0.0,0.0,0.0,0.0,0.0,0.0,0.0,-0.7556,-0.9076,-1.0175,-1.0256,-1.1228,-1.224,-1.2925,-1.4248,-1.4953,-1.4498,-1.3727,0.0,0.0,0.0,0.0,0.0,0.0,0.0,0.0,0.0,0.0,0.0,0.0,0.0,0.0,0.0,0.0,0.0,0.0,0.0,0.0,0.0,0.0,0.0,0.0,0.0,0.0,0.0,0.0,0.0,0.0,0.0,0.0,0.0,0.0,0.0,0.0,0.0,0.0,0.0,0.0,0.0,0.0,0.0,0.0,0.0,0.0,0.0,0.0,0.0,0.0,0.0,0.0,0.0,-0.4969,-0.7895,-0.8857,-0.8681,-0.854,-0.8408,-0.8005,-0.7982,-0.7876,-0.3399,0.0,0.0,0.0,0.0,0.0,0.0,0.0,0.0,0.0,0.0,0.0,0.0,0.0,0.0,0.0,0.0,0.0,0.0,0.0,0.0,0.0,0.0,-0.7529,-0.7529,-0.8031,-0.8255,-0.736,0.0,0.0,0.0,0.0,0.0,0.0,0.0,0.0,0.0,0.0,0.0,-0.8187,-0.9557,-1.0493,-1.0493,-1.0885,-1.1709,-1.2855,-1.3199,-1.387,-1.4952,-1.3422,-1.276,0.0,0.0,0.0,0.0,0.0,0.0,0.0,0.0,0.0,0.0,0.0,0.0,0.0,0.0,0.0,0.0,0.0,0.0,0.0,0.0,0.0,0.0,0.0,0.0,0.0,0.0,0.0,0.0,0.0,0.0,0.0,0.0,0.2514,0.3842,0.0,0.0,0.0,0.0,0.0,0.0,0.0,0.0,0.0,0.0,0.0,0.0,0.0,-0.0,-0.0,-0.0,-0.0,-0.0,-0.0812,-0.3903,-0.8927,-0.8842,-0.881,-0.8838,-0.8742,0.0,-0.8048,-0.7647,0.0,0.0,0.0,0.0,0.0,0.0,0.0,0.0,0.0,0.0,0.0,0.0,0.0,0.0,0.0,0.0,0.0,0.0,0.0,0.0,0.0,0.0,-0.9089,-0.9089,-0.9266,-0.9361,-0.9089,-0.8004,-0.7048,-0.6926,-0.6905,-0.6715,0.0,0.0,0.0,0.0,0.0,0.0,-0.892,-0.9876,-1.0493,-1.0493,-1.1919,-1.3054,-1.3291,-1.4419,-1.5199,-1.5423,-1.6306,-1.5876,-1.3814,-1.4677,0.0,0.0,0.0,0.0,0.0,0.0,0.0,0.0,0.0,0.0,0.0,0.0,0.0,0.0,0.0,0.0,0.0,0.0,0.0,0.0,0.0,0.0,0.0,0.0,0.0,0.0,0.0,0.0,0.0,0.2062,0.178,0.1772,0.2491,0.3009,0.0,0.0,0.0,0.0,0.0,0.0,0.0,0.0,0.0,-0.0,-0.0,-0.0,-0.0,-0.0,-0.0,-0.0,-0.0,-0.2489,-0.7039,-0.8615,-0.9381,-0.9429,-0.9347,-0.9174,-0.8927,-0.87,-0.7657,-0.6057,0.0,0.0,0.0,0.0,-0.6921,-0.6641,-0.7244,-0.7455,-0.7407,-0.7143,0.0,0.0,0.0,0.0,0.0,0.0,0.0,-0.7611,-0.8526,-0.8947,-0.9259,-0.9768,-0.9937,-0.9971,-0.9903,-0.9367,-0.8703,-0.8024,-0.776,-0.7434,-0.6756,-0.6966,0.0,0.0,0.0,-0.894,-0.9354,-1.012,-1.0622,-1.0622,-1.1329,-1.1931,-1.1896,-1.2529,-1.2857,-1.2964,-1.4226,-1.4928,-1.4718,-1.4988,-1.4435,0.0,0.0,0.0,0.0,0.0,0.0,0.0,0.0,0.0,0.0,0.0,0.0,0.0,0.0,0.0,0.0,0.0,0.0,0.0,0.0,0.0,0.0,0.0,0.0,0.0,0.0,0.0,0.0,0.1513,0.103,0.0141,0.0936,0.1638,0.0,0.0,0.0,0.0,0.0,0.0,0.3336,0.1199,-0.0,-0.0,-0.0,-0.0,-0.0,-0.0,-0.0,-0.0,-0.0,-0.1426,-0.4134,-0.8199,-0.9998,-0.9944,-0.9829,-0.9781,-0.9707,-0.9117,-0.8837,-0.8736,-0.7959,-0.7631,-0.768,-0.8035,-0.7879,-0.7577,-0.8262,-0.8472,-0.8425,-0.835,-0.8194,-0.7984,-0.7692,0.0,0.0,0.0,0.0,-0.8235,-0.9279,-0.9415,-0.9462,-1.0168,-1.0337,-1.0324,-1.029,-1.0215,-0.9924,-0.9103,-0.8764,-0.8397,-0.7733,-0.795,0.0,-0.8018,-0.8818,-0.9551,-0.9856,-1.0412,-1.0778,-1.0778,-1.0812,-1.088,-1.0995,-1.09,-1.1015,-1.1668,-1.3104,-1.4576,-1.618,-1.6098,-1.6145,-1.6206,0.0,0.0,0.0,0.0,0.0,0.0,0.0,0.0,0.0,0.0,0.0,0.0,0.0,0.0,0.0,0.0,0.0,0.0,0.0,0.0,0.0,0.0,0.0,0.0,0.0,0.0,0.0,0.0,0.0,-0.0,0.0085,0.0,0.0,0.0,0.0,0.0084,0.0168,0.0264,0.0194,0.0097,-0.0,-0.0,-0.0,-0.0,-0.0,-0.0,-0.0,-0.0,-0.0,-0.0126,-0.0502,-0.7531,-1.0565,-1.0417,-1.0263,-1.0249,-1.0195,-0.9571,-0.8981,-0.8563,-0.8967,-0.8485,-0.7732,-0.8947,-0.896,-0.854,-0.9422,-0.9646,-0.9483,-0.9191,-0.8615,-0.814,-0.8682,-0.8452,0.0,0.0,-0.9184,-0.9313,-1.0365,-1.0426,-1.0256,-1.0439,-1.048,-1.0446,-1.031,-1.0053,-0.991,-1.0148,-1.0181,-1.0019,-0.9557,0.0,-0.9395,-0.9659,-0.9639,-0.9856,-1.0575,-1.0826,-1.0934,-1.0934,-1.1056,-1.1145,-1.1151,-1.1145,-1.1964,-1.3738,-1.5156,-1.665,-1.8244,-1.9712,-1.9246,-1.6683,-1.643,0.0,0.0,0.0,0.0,0.0,0.0,0.0,0.0,0.0,0.0,0.0,0.0,0.0,0.0,0.0,0.0,0.0,0.0,0.0,0.0,0.0,0.0,0.0,0.0,0.0,0.0,0.0,0.0,-0.0,-0.0,0.0,-0.0,-0.0,-0.0,-0.0,-0.0,-0.0,-0.0,-0.0,-0.0,-0.0,-0.0,-0.0,-0.0,-0.0,-0.0,-0.0,-0.0,-0.0,-0.0129,-0.5072,-0.853,-1.0595,-1.0466,-1.0419,-1.0399,-1.0188,-0.9856,-0.9483,-0.9511,-0.9394,-0.9211,-0.9773,-0.9947,-0.9836,-1.0256,-1.0365,-1.0304,-1.0195,-0.9985,-0.9802,-1.0019,-1.0005,-0.9958,-1.0181,-1.0202,-1.0249,-1.0622,-1.0568,-1.0453,-1.0602,-1.0636,-1.0622,-1.0575,-1.048,-1.046,-1.067,-1.0317,-0.9937,-0.9774,-1.0019,-1.0148,-0.9863,-1.0107,-1.0453,-1.0819,-1.0914,-1.0982,-1.1077,-1.1131,-1.1206,-1.1301,-1.1219,-1.1476,-1.2271,-1.3746,-1.4818,-1.5414,-1.6923,-1.7771,-1.7694,-1.7661,-1.6198,0.0,0.0,0.0,0.0,0.0,0.0,0.0,0.0,0.0,0.0,0.0,0.0,0.0,0.0,0.0,0.0,0.0,0.0,0.0,0.0,0.0,0.0,0.0,0.0,0.0,0.1247,-0.0,-0.0,-0.0,-0.0,-0.0,-0.0,-0.0,-0.0,-0.0,-0.0,-0.0,-0.0,-0.0,-0.0,-0.0,-0.0,-0.0,-0.0,-0.0,-0.0,-0.0,-0.0,-0.0133,-0.386,-0.7522,-1.0914,-1.0778,-1.0717,-1.0717,-1.0717,-1.0602,-1.0405,-1.0202,-1.0188,-1.029,-1.0392,-1.0487,-1.0588,-1.0744,-1.086,-1.0934,-1.0887,-1.0867,-1.0867,-1.0867,-1.0941,-1.1009,-1.0962,-1.0907,-1.0867,-1.0867,-1.0758,-1.067,-1.0772,-1.0799,-1.0812,-1.086,-1.0867,-1.09,-1.1002,-1.0575,-1.0236,-1.0331,-1.0636,-1.0697,-1.0202,-1.0548,-1.0853,-1.0799,-1.0975,-1.1138,-1.1226,-1.1287,-1.1355,-1.1457,-1.1233,-1.1469,-1.2425,-1.3754,-1.4981,-1.5729,-1.6532,-1.7389,-1.8395,-1.8136,-1.6996,-1.4775,0.0,0.0,0.0,0.0,0.0,0.0,0.0,0.0,0.0,0.0,0.0,0.0,0.0,0.0,0.0,0.0,0.0,0.0,0.0,0.0,0.0,0.0,0.0,0.4534,0.188,-0.0,-0.0,-0.0,-0.0,-0.0,-0.0,-0.0,-0.0,-0.0,-0.0,-0.0,-0.0,-0.0,-0.0,-0.0,-0.0,-0.0,-0.0,-0.0,-0.0,-0.0,-0.0,-0.0138,-0.3835,-0.7598,-1.1246,-1.1185,-1.1165,-1.1165,-1.1165,-1.1172,-1.1138,-1.0846,-1.0738,-1.0738,-1.0738,-1.0744,-1.0772,-1.0921,-1.1158,-1.1375,-1.1226,-1.1179,-1.1179,-1.1179,-1.1179,-1.1206,-1.1348,-1.1287,-1.1172,-1.1172,-1.1063,-1.0962,-1.0962,-1.0962,-1.0995,-1.1131,-1.1165,-1.1165,-1.1172,-1.1056,-1.105,-1.1335,-1.126,-1.1063,-1.0778,-1.0975,0.0,-1.0575,-1.1036,-1.1396,-1.1389,-1.1518,-1.1613,-1.1613,-1.1212,-1.1964,-1.4273,-1.551,-1.7192,-1.9403,-1.8865,-1.8447,-1.856,-1.8273,-1.7877,-1.7436,0.0,0.0,0.0,0.0,0.0,0.0,0.0,0.0,0.0,0.0,0.0,0.0,0.0,0.0,0.0,0.0,0.0,0.0,0.0,0.0,0.0,0.3757,0.4522,0.4545,0.1928,-0.0,-0.0,-0.0,-0.0,-0.0,-0.0,-0.0,-0.0,-0.0,-0.0,-0.0,-0.0,-0.0,-0.0,-0.0,-0.0,-0.0,-0.0,-0.0,-0.0,-0.0,-0.0,-0.0,-0.1113,-0.5153,-1.1532,-1.1358,-1.1185,-1.1172,-1.128,-1.1328,-1.1307,-1.1118,-1.1043,-1.1056,-1.1165,-1.128,-1.1375,-1.1423,-1.1491,-1.1552,-1.1504,-1.1497,-1.1497,-1.1497,-1.1497,-1.1477,-1.1409,-1.1443,-1.147,-1.1355,-1.1301,-1.1267,-1.1267,-1.1185,-1.1118,-1.1151,-1.1165,-1.1199,-1.1307,-1.1294,-1.126,-1.1233,-1.1192,-1.1131,-1.105,-1.1111,-1.1158,-1.1145,-1.1382,-1.147,-1.1246,-1.1362,-1.1457,-1.1457,-1.2719,-1.3825,-1.4804,-1.6644,-1.7866,-1.8492,-1.8229,-1.8528,-1.9374,-1.8824,-1.8447,0.0,0.0,0.0,0.0,0.0,0.0,0.0,0.0,0.0,0.0,0.0,0.0,0.0,0.0,0.0,0.0,0.0,0.0,0.0,0.0,0.0,0.0,0.3939,0.4106,0.2817,0.1114,-0.0,-0.0,-0.0,-0.0,-0.0,-0.0,-0.0,-0.0,-0.0,-0.0,-0.0,-0.0,-0.0,-0.0,-0.0,-0.0,-0.0,-0.0,-0.0,-0.0,-0.0,-0.0,-0.0,-0.0,-0.2403,-0.6969,-1.0106,-1.1396,-1.1396,-1.147,-1.1511,-1.1511,0.0,0.0,0.0,0.0,-1.1545,-1.1619,-1.1619,-1.1619,-1.1619,-1.1619,-1.1619,-1.1633,-1.1687,-1.1708,-1.1701,-1.1681,-1.1735,-1.1769,-1.1613,-1.1579,-1.1579,-1.1579,-1.1463,-1.1369,-1.143,-1.1396,-1.1396,-1.1545,-1.1579,0.0,-1.1545,-1.1484,-1.1382,-1.1192,-1.1375,-1.1504,-1.1402,-1.1633,-1.1735,-1.1558,-1.2466,-1.2949,-1.2949,-1.4569,0.0,0.0,0.0,-1.9063,-1.9063,-1.892,0.0,0.0,0.0,-1.9554,-2.0284,-1.9022,0.0,0.0,-1.7079,-1.7127,0.0,0.0,0.0,0.0,0.0,0.0,0.0,0.0,0.0,0.0,0.0,0.0,0.0,0.0,0.0,0.0,0.4118,0.3014,0.0368,-0.0,-0.0,-0.0,-0.0,-0.0,-0.0,-0.0,-0.0,-0.0,-0.0,-0.0,-0.0,-0.0,0.0,0.0,0.0,-0.0,-0.0,-0.0,-0.0,-0.0,-0.0,-0.0,-0.0,-0.0,-0.0,-0.0436,-0.8285,-1.1536,-1.1556,-1.1083,-1.0938,-1.0957,-1.1496,-1.1619,-1.1619,-1.1619,-1.1619,-1.1619,-1.1619,0.0,0.0,-1.1647,-1.1653,-1.1694,-1.1816,-1.1857,-1.1884,-1.202,-1.2074,-1.2054,-1.1918,-1.1884,-1.1877,-1.1864,-1.1748,-1.1681,-1.1803,-1.1735,-1.1687,-1.183,-1.1857,-1.1898,-1.204,-1.1945,-1.1721,-1.1328,-1.1721,-1.1918,-1.1518,-1.183,-1.2067,-1.202,-1.3637,0.0,-1.467,-1.6207,-1.7419,-1.8091,-1.9841,-2.0723,-2.0723,-2.0723,-2.0612,-2.0368,-2.0368,-2.1293,-2.306,-2.306,-2.306,-2.2993,-1.9242,-1.8695,0.0,0.0,0.0,0.0,0.0,0.0,0.0,0.0,0.0,0.0,0.0,0.0,0.0,0.0,0.0,0.3028,0.1827,0.0609,0.0123,-0.0,-0.0,-0.0,-0.0,-0.0,-0.0,-0.0,-0.0,-0.0,-0.0,-0.0,-0.0,-0.0,-0.0,-0.0,-0.0,-0.0,-0.0,-0.0,-0.0,-0.0,-0.0,0.0,-0.0,-0.0,-0.0,-0.0436,-0.8169,-1.1569,-1.1411,-0.815,-0.6974,-0.7268,-1.0329,-1.1633,-1.1619,-1.1619,-1.1619,-1.1619,-1.1619,-1.1694,-1.1789,-1.1789,-1.187,-1.1979,-1.2006,-1.202,0.0,-1.2054,-1.2149,-1.2237,-1.221,-1.2203,-1.2169,-1.2047,-1.1898,-1.1796,-1.1823,-1.1809,-1.1837,-1.1986,-1.202,-1.2026,-1.2054,-1.204,-1.1986,-1.1904,-1.1986,-1.2033,-1.1945,-1.2115,-1.2108,-1.1742,-1.2095,-1.2457,-1.2457,-1.4235,-1.6285,-1.84,-2.1762,-2.376,-2.376,-2.376,-2.3733,-2.3681,-2.3681,-2.3879,-2.4289,-2.4289,-2.4289,-2.4249,-2.244,-2.2032,0.0,0.0,0.0,0.0,0.0,0.0,0.0,0.0,0.0,0.0,0.0,0.7021,0.7426,0.0,0.5235,0.4192,0.1789,-0.0,-0.0,-0.0,-0.0,-0.0,-0.0,-0.0,-0.0,-0.0,-0.0,-0.0,-0.0,-0.0,-0.0,-0.0,-0.0,-0.0,-0.0,-0.0,-0.0,-0.0,-0.0,-0.0,-0.0,-0.0,-0.0,-0.0,-0.0,-0.0146,-0.4075,-0.8061,-1.127,-0.7421,-0.5789,-0.6079,-0.815,-1.0035,-1.1762,-1.169,-1.1857,-1.1843,-1.1843,-1.1884,-1.1945,-1.1945,-1.1999,-1.2074,-1.2155,-1.2176,-1.2189,-1.2264,-1.2338,-1.2393,-1.2393,-1.2454,-1.2488,-1.2413,-1.2277,-1.2169,-1.2169,-1.2047,-1.1993,-1.2149,-1.2176,-1.2196,-1.2271,-1.2284,-1.2257,-1.2189,-1.2237,-1.2284,-1.2284,-1.2345,-1.2311,-1.2088,-1.3086,-1.4223,-1.5261,-1.834,-2.0658,-2.1954,-2.3996,-2.5077,-2.5077,-2.5077,-2.5077,-2.5077,-2.5077,-2.5077,-2.5077,-2.5077,-2.5077,-2.5064,-2.4462,-2.4035,0.0,0.0,0.0,0.0,0.0,0.0,0.0,0.6396,0.6668,0.7387,0.7556,0.7717,0.8295,0.8464,0.8039,0.6611,0.3978,0.1642,0.0261,-0.0,-0.0,-0.0,-0.0,-0.0,-0.0,-0.0,-0.0,-0.0,-0.0,-0.0,-0.0,-0.0,-0.0,-0.0,-0.0,-0.0,-0.0,-0.0,-0.0,-0.0,-0.0,-0.0,-0.0,-0.0,-0.0,-0.0,-0.0,-0.3545,-0.9169,-0.5902,-0.4702,-0.4842,-0.6815,-0.935,-1.1993,-1.1918,-1.2081,-1.206,-1.206,-1.2081,-1.2108,-1.2108,-1.2128,-1.2169,-1.2291,-1.2332,-1.2352,-1.2467,-1.2522,-1.2549,-1.2549,-1.2657,-1.2766,-1.2739,-1.261,-1.2501,-1.2501,-1.2291,-1.2149,-1.2305,-1.2332,-1.2379,-1.2522,-1.2549,-1.2494,-1.2352,-1.2454,-1.2549,-1.2549,-1.2569,-1.2589,-1.2589,-1.4555,-1.6805,-1.8967,-2.2709,-2.4879,-2.4879,-2.5352,-2.5518,-2.5518,-2.5571,-2.5598,-2.5598,-2.5651,-2.5678,-2.5678,-2.5678,-2.5678,-2.5678,-2.5678,-2.5371,0.8072,0.6912,0.6139,0.6491,0.6783,0.7204,0.0,0.8099,0.8194,0.8804,0.9035,0.9239,0.9486,0.9674,0.9607,0.9576,0.9497,0.722,0.0919,-0.0,-0.0,-0.0,-0.0,-0.0,-0.0,-0.0,-0.0,-0.0,-0.0,-0.0,-0.0,-0.0,-0.0,-0.0,-0.0,-0.0,-0.0,-0.0,-0.0,-0.0,-0.0,-0.0,-0.0,-0.0,-0.0,-0.0,-0.0,-0.0453,-0.1209,-0.0758,-0.0606,-0.1365,-0.8918,-1.2053,-1.2457,-1.2128,-1.2067,-1.206,-1.206,-1.2149,-1.2264,-1.2264,-1.2352,-1.2454,-1.2474,-1.2481,-1.2481,-1.2494,-1.2603,-1.2705,-1.2705,-1.282,-1.2901,-1.2759,-1.261,-1.2501,-1.2501,-1.2379,-1.2305,-1.2447,-1.2481,-1.2528,-1.2678,-1.2705,-1.2651,-1.2501,-1.261,-1.2705,-1.2705,-1.2827,-1.2908,-1.2908,-1.4805,-1.7011,-1.9199,-2.1567,-2.2841,-2.2841,-2.4559,-2.5518,-2.5518,-2.5772,-2.5905,-2.5905,-2.6159,-2.6293,-2.6293,-2.6293,-2.6293,-2.6293,-2.6293,-2.5972,0.8235,0.7293,0.6803,0.7346,0.7638,0.7916,0.8377,0.8574,0.8852,0.9537,0.9727,0.9836,1.0046,1.0148,1.0116,1.0263,1.05,0.8859,0.385,0.1337,-0.0,-0.0,-0.0,-0.0,-0.0,-0.0,-0.0,-0.0,-0.0,-0.0,-0.0,-0.0,-0.0,-0.0,-0.0,-0.0,-0.0,-0.0,-0.0,-0.0,-0.0,-0.0,-0.0,-0.0,-0.0,-0.0,-0.0,-0.0,-0.0,-0.0,-0.0,-0.0782,-0.9231,-1.2535,-1.2494,-1.2386,-1.2338,-1.2318,-1.2318,-1.2359,-1.2413,-1.2413,-1.2454,-1.2515,-1.261,-1.2637,-1.2651,-1.2745,-1.2813,-1.2868,-1.2868,-1.2976,-1.3071,-1.3003,-1.2942,-1.2868,-1.2786,-1.2651,-1.2562,-1.2623,-1.2637,-1.2684,-1.284,-1.2868,-1.284,-1.2779,-1.282,-1.2868,-1.2868,-1.4017,-1.5361,-1.6729,-1.8798,-2.059,-2.1523,-2.3611,-2.4735,-2.4735,-2.5544,-2.6026,-2.6026,-2.6146,-2.6213,-2.6213,-2.6333,-2.6386,-2.6386,-2.6386,-2.6386,-2.6386,-2.6386,-2.6253,0.7921,0.759,0.7522,0.8085,0.8465,0.8737,0.8879,0.9117,0.9462,1.0005,1.0148,1.0202,1.0317,1.0371,1.0432,1.0534,1.0451,0.9714,0.7273,0.2965,-0.0,-0.0,-0.0,-0.0,-0.0,-0.0,-0.0,-0.0,-0.0,-0.0,-0.0,-0.0,-0.0,-0.0,-0.0,-0.0,-0.0,-0.0,-0.0,-0.0,-0.0,-0.0,-0.0,-0.0,-0.0,-0.0,-0.0,-0.0,-0.0,-0.0,-0.1439,-0.3991,-0.885,-1.1516,-1.2651,-1.2617,-1.2556,-1.2501,-1.2501,-1.2528,-1.2562,-1.2562,-1.2596,-1.2651,-1.2759,-1.2793,-1.282,-1.2929,-1.299,-1.3017,-1.3017,-1.3125,-1.3234,-1.3234,-1.32,-1.3146,-1.3044,-1.2901,-1.2793,-1.2793,-1.2793,-1.284,-1.299,-1.3017,-1.303,-1.3078,-1.3556,-1.4018,-1.3982,-1.5913,-1.8051,-2.0442,-2.2055,-2.3258,-2.3927,-2.5409,-2.6386,-2.6386,-2.6386,-2.6386,-2.6386,-2.6386,-2.6386,-2.6386,-2.6386,-2.6386,-2.6386,-2.6386,-2.6386,-2.6386,-2.6386,-2.6426,0.7302,0.7584,0.8119,0.8574,0.9239,0.9815,0.9964,1.0127,1.0249,1.027,1.0385,1.048,1.0487,1.0609,1.0711,1.0711,1.0731,1.0665,1.0819,0.4513,-0.0,-0.0,-0.0,-0.0,-0.0,-0.0,-0.0,-0.0,-0.0,-0.0,-0.0,-0.0,-0.0,-0.0,-0.0,-0.0,-0.0,-0.0,-0.0,-0.0,-0.0,-0.0,-0.0,-0.0,-0.0,-0.0,-0.0,-0.0,-0.0,-0.0,-0.4798,-1.1714,-0.8033,-0.9144,-1.2773,-1.2739,-1.263,-1.2501,-1.2501,-1.2596,-1.2725,-1.2725,-1.2827,-1.2949,-1.2949,-1.2956,-1.2956,-1.2963,-1.3057,-1.3166,-1.3166,-1.3281,-1.3397,-1.3397,-1.3281,-1.3173,-1.3166,-1.3057,-1.2956,-1.2956,-1.2956,-1.2996,-1.3139,-1.3166,-1.3214,-1.3363,-1.5177,-1.6408,-1.6241,-1.8304,-2.0533,-2.2808,-2.3128,-2.3939,-2.6056,-2.6386,-2.6386,-2.6386,-2.6386,-2.6386,-2.6386,-2.6386,-2.6386,-2.6386,-2.6386,-2.6386,-2.6386,-2.6386,-2.6386,-2.6386,-2.6386,-2.6547,0.8146,0.833,0.8791,0.9435,0.9788,1.0012,1.0168,1.0317,1.0453,1.0555,1.0371,1.0195,1.0195,1.0243,1.031,1.0412,1.0683,1.0806,1.0973,0.9032,0.5577,0.0565,-0.0,-0.0,-0.0,-0.0,-0.0,-0.0,-0.0,-0.0,-0.0,-0.0,-0.0,-0.0,-0.0,-0.0,-0.0,-0.0,-0.0,-0.0,-0.0,-0.0,-0.0,-0.0,-0.0,-0.0,-0.0,-0.0,-0.0,-0.0,-0.5237,-1.299,-1.1511,-1.1783,-1.2929,-1.2915,-1.2868,-1.2807,-1.2807,-1.284,-1.2881,-1.2881,-1.2915,-1.2976,-1.3071,-1.3105,-1.3125,-1.3227,-1.3288,-1.3322,-1.3322,-1.3363,-1.3424,-1.3532,-1.3512,-1.3451,-1.3349,-1.3288,-1.322,-1.3119,-1.3105,-1.3152,-1.3302,-1.3322,-1.3342,-1.3397,-1.4052,-1.5499,-1.8351,-1.9371,-2.0716,-2.282,-2.443,-2.5581,-2.6386,-2.6386,-2.6386,-2.6386,-2.6386,-2.6386,-2.6386,-2.6386,-2.6386,-2.6386,-2.6386,-2.6386,-2.6386,-2.6386,-2.6493,-2.668,-2.668,-2.6841,0.8696,0.8906,0.9266,0.9958,1.0168,1.0249,1.0399,1.0466,1.0521,1.0616,1.0243,0.9903,0.9958,1.0012,1.0032,0.9971,1.0385,1.0765,1.0792,1.1104,0.9566,0.4712,0.172,-0.0,-0.0,-0.0,-0.0,-0.0,-0.0,-0.0,-0.0,-0.0,-0.0,-0.0,-0.0,-0.0,-0.0,-0.0,-0.0,-0.0,-0.0,-0.0,-0.0,-0.0,-0.0,-0.0,-0.0,-0.0,-0.0339,-0.3696,-0.7357,-1.1168,-1.271,-1.3281,-1.3064,-1.3064,-1.3085,-1.3105,-1.2996,-1.2996,-1.3037,-1.3037,-1.3071,-1.3132,-1.3227,-1.3254,-1.3275,-1.337,-1.3403,-1.341,-1.3464,-1.3485,-1.3519,-1.3668,-1.3668,-1.36,-1.3505,-1.3437,-1.337,-1.3275,-1.3254,-1.3288,-1.3383,-1.3403,-1.3887,-1.5522,-1.5028,-1.5843,-1.942,-2.12,-2.282,-2.4111,-2.5568,-2.6386,-2.6386,-2.6386,-2.6386,-2.6386,-2.6386,-2.6386,-2.6386,-2.6386,-2.6386,-2.6386,-2.6493,-2.6547,-2.6547,-2.6653,-2.68,-2.6987,-2.6987,-2.7134,0.8906,0.9306,0.9578,1.0161,1.0405,1.0541,1.0677,1.0602,1.0493,1.0453,0.9985,0.9618,0.972,0.989,0.9883,0.9462,0.9924,1.0385,1.0527,1.0981,1.1418,1.1572,0.5078,0.0436,-0.0,-0.0,-0.0,-0.0,-0.0,-0.0,-0.0,-0.0,-0.0,-0.0,-0.0,-0.0,-0.0,-0.0,-0.0,-0.0,-0.0,-0.0,-0.0,-0.0,-0.0,-0.0,-0.0,-0.0,-0.0686,-1.0304,-1.1419,-0.7539,-1.1794,-1.3391,-1.3186,-1.3186,-1.3275,-1.3363,-1.3078,-1.3071,-1.3186,-1.3186,-1.3281,-1.3403,-1.3403,-1.3403,-1.3403,-1.341,-1.341,-1.3451,-1.36,-1.3641,-1.3675,-1.3817,-1.3743,-1.3641,-1.3641,-1.3519,-1.341,-1.3403,-1.3403,-1.3403,-1.3403,-1.3403,-1.4871,-1.9095,-1.8118,-1.762,-1.9745,-2.3632,-2.6228,-2.6228,-2.6386,-2.6386,-2.6386,-2.6386,-2.6386,-2.6386,-2.6386,-2.6386,-2.6386,-2.64,-2.6413,-2.6413,-2.6694,-2.6841,-2.6841,-2.7134,-2.7268,-2.7281,-2.7281,-2.7442,0.9388,0.9842,1.027,1.0541,1.0636,1.0643,1.0568,1.0609,1.0507,0.9951,0.953,0.9144,0.8743,0.915,0.9551,0.9551,1.0426,1.1158,1.1314,1.1482,1.1564,1.1626,0.9891,0.6387,0.0581,-0.0,-0.0,-0.0,-0.0,-0.0,-0.0,-0.0,-0.0,-0.0,-0.0,-0.0,-0.0,-0.0,-0.0,-0.0,-0.0,-0.0,-0.0,-0.0,-0.0,-0.0,-0.0,-0.0,-0.0693,-1.0422,-1.3311,-1.2107,-1.3244,-1.3478,-1.3342,-1.3342,-1.337,-1.339,-1.3315,-1.3315,-1.3342,-1.3342,-1.337,-1.3403,-1.3403,-1.3403,-1.3424,-1.3539,-1.3573,-1.3607,-1.3749,-1.3783,-1.3824,-1.398,-1.3899,-1.3783,-1.3783,-1.3675,-1.3539,-1.3424,-1.3403,-1.3403,-1.3403,-1.3403,-1.4383,-1.6975,-1.8435,-1.9897,-2.2006,-2.33,-2.3952,-2.3952,-2.5409,-2.6386,-2.6386,-2.6386,-2.6386,-2.6386,-2.6386,-2.6386,-2.6386,-2.66,-2.6707,-2.6707,-2.7001,-2.7148,-2.7148,-2.7228,-2.7375,-2.7589,-2.7589,-2.7749,0.9883,1.0243,1.0527,1.0683,1.067,1.0548,1.0263,1.0161,0.9937,0.9252,0.8771,0.8391,0.8119,0.8682,0.9191,0.9211,1.0215,1.105,1.1206,1.1226,1.1335,1.1619,1.1667,0.9914,0.5531,0.2048,-0.0,-0.0,-0.0,-0.0,-0.0,-0.0,-0.0,-0.0,-0.0,-0.0,-0.0,-0.0,-0.0,-0.0,-0.0,-0.0,-0.0,-0.0,-0.0,-0.0,-0.0,-0.2451,-0.6485,-0.9864,-1.2247,-1.3797,-1.3763,-1.3607,-1.3403,-1.3403,-1.3403,-1.341,-1.3478,-1.3498,-1.3492,-1.3424,-1.3444,-1.3498,-1.3498,-1.3546,-1.3614,-1.3695,-1.3722,-1.3756,-1.3905,-1.3939,-1.398,-1.4136,-1.4,-1.3838,-1.3838,-1.3675,-1.3505,-1.3417,-1.3403,-1.3403,-1.3403,-1.4217,-1.5514,-1.7792,-1.9897,-2.2006,-2.4271,-2.4602,-2.4602,-2.4602,-2.574,-2.6386,-2.6386,-2.6386,-2.6386,-2.6386,-2.6507,-2.6587,-2.6587,-2.6867,-2.7014,-2.7014,-2.7308,-2.7455,-2.7455,-2.7589,-2.7736,-2.7896,-2.7896,-2.7989,1.031,1.0507,1.0548,1.0663,1.0609,1.0392,0.9876,0.9578,0.9211,0.8513,0.7957,0.7611,0.7658,0.8296,0.8811,0.8771,0.9741,1.0575,1.0806,1.0839,1.1043,1.1586,1.1536,1.1569,1.1616,0.5471,0.1042,0.0149,-0.0,-0.0,-0.0,-0.0,-0.0,-0.0,-0.0,-0.0,-0.0,-0.0,-0.0,-0.0,-0.0,-0.0,-0.0,-0.0,-0.0,-0.0,-0.141,-0.6555,-1.3905,-0.9805,-1.0234,-1.3713,-1.3831,-1.3641,-1.3403,-1.3424,-1.3431,-1.3451,-1.3607,-1.3654,-1.3634,-1.3505,-1.3546,-1.3654,-1.3654,-1.3743,-1.3844,-1.3865,-1.3871,-1.3905,-1.4061,-1.4102,-1.4129,-1.4245,-1.4048,-1.3838,-1.3817,-1.3593,-1.3403,-1.3403,-1.3403,-1.3403,-1.3403,-1.5185,-1.7302,-1.9582,-2.1684,-2.3952,-2.607,-2.6386,-2.6386,-2.6386,-2.6386,-2.6386,-2.6386,-2.6426,-2.6453,-2.6453,-2.672,-2.6881,-2.6881,-2.7161,-2.7321,-2.7321,-2.7615,-2.7762,-2.7762,-2.8016,-2.8136,-2.8136,-2.8136,-2.8136,1.0426,1.0582,1.0656,1.0555,1.0609,1.0466,0.9646,0.9517,0.9225,0.8004,0.7672,0.7455,0.698,0.7604,0.8391,0.8981,0.9876,1.0717,1.1375,1.1463,1.1511,1.164,1.166,1.1583,1.161,1.0441,0.6876,0.0453,-0.0,-0.0,-0.0,-0.0,-0.0,-0.0,-0.0,-0.0,-0.0,-0.0,-0.0,-0.0,-0.0,-0.0,-0.0,-0.0,-0.0,-0.0529,-0.8389,-1.2776,-1.4222,-1.3154,-1.3165,-1.37,-1.3722,-1.3559,-1.3417,-1.3546,-1.3587,-1.3607,-1.3756,-1.3804,-1.3797,-1.3777,-1.3783,-1.3804,-1.3804,-1.3824,-1.3865,-1.3994,-1.4034,-1.4068,-1.4224,-1.4258,-1.4238,-1.4136,-1.3973,-1.381,-1.3688,-1.3526,-1.3403,-1.3403,-1.3403,-1.3403,-1.3403,-1.5185,-1.7302,-1.9582,-2.1684,-2.3952,-2.607,-2.6386,-2.6386,-2.6386,-2.6386,-2.6386,-2.6386,-2.6613,-2.6747,-2.6747,-2.7028,-2.7188,-2.7188,-2.7468,-2.7629,-2.7629,-2.7909,-2.807,-2.807,-2.8123,-2.8136,-2.8136,-2.8136,-2.8136,1.0548,1.0724,1.0806,1.0649,1.0663,1.0426,0.9293,0.9028,0.8621,0.7197,0.6905,0.6817,0.6525,0.7075,0.7794,0.8465,0.9456,1.0351,1.0948,1.1314,1.1415,1.1523,1.1549,0.996,0.589,0.5515,0.4063,0.0303,-0.0,-0.0,-0.0,-0.0,-0.0,-0.0,-0.0,-0.0,-0.0,-0.0,-0.0,-0.0,-0.0,-0.0,-0.0,-0.0,-0.2658,-0.767,-1.1982,-1.3951,-1.4088,-1.3901,-1.3733,-1.3579,-1.3743,-1.3648,-1.3539,-1.3688,-1.3736,-1.3763,-1.3912,-1.396,-1.3973,-1.4055,-1.4027,-1.396,-1.396,-1.4014,-1.4095,-1.417,-1.419,-1.4204,-1.4278,-1.4238,-1.4163,-1.4089,-1.3899,-1.3688,-1.3539,-1.3451,-1.3403,-1.3403,-1.3403,-1.3728,-1.4863,-1.6811,-1.9085,-2.12,-2.346,-2.5251,-2.6228,-2.6386,-2.6386,-2.6386,-2.6386,-2.6453,-2.66,-2.6747,-2.6894,-2.7041,-2.7335,-2.7495,-2.7495,-2.7776,-2.7923,-2.7923,-2.807,-2.8136,-2.8136,-2.8136,-2.8136,-2.8136,-2.8136,-2.8136,1.0656,1.0833,1.0873,1.0751,1.0697,1.0317,0.8967,0.852,0.7984,0.6552,0.6207,0.6159,0.6159,0.6593,0.717,0.7834,0.8784,0.9686,1.0392,1.0786,1.092,1.048,1.1128,0.8504,0.0735,-0.0,-0.0,-0.0,-0.0,-0.0,-0.0,-0.0,-0.0,-0.0,-0.0,-0.0,-0.0,-0.0,-0.0,-0.0,-0.0,-0.0,-0.0,-0.1935,-0.6905,-1.4169,-1.367,-1.3585,-1.3881,-1.3727,-1.3599,-1.3682,-1.3763,-1.3743,-1.3695,-1.3838,-1.3892,-1.3912,-1.4068,-1.4122,-1.4143,-1.4265,-1.4217,-1.4122,-1.4122,-1.4204,-1.4299,-1.4299,-1.4299,-1.4299,-1.4299,-1.4183,-1.4055,-1.3994,-1.3777,-1.3546,-1.3424,-1.3403,-1.3403,-1.3403,-1.3728,-1.4541,-1.6319,-1.876,-2.12,-2.282,-2.4933,-2.6386,-2.6386,-2.6386,-2.6386,-2.6386,-2.644,-2.6573,-2.68,-2.6934,-2.7108,-2.7348,-2.7629,-2.7789,-2.7789,-2.8016,-2.8136,-2.8136,-2.8136,-2.8136,-2.8136,-2.8136,-2.8136,-2.8136,-2.8136,-2.8136,1.0697,1.0833,1.0738,1.0724,1.0616,1.0161,0.8811,0.8282,0.7733,0.6512,0.6037,0.584,0.584,0.6118,0.6627,0.7502,0.7957,0.8737,1.0276,1.03,0.9232,0.6637,0.9496,0.8563,0.0754,-0.0,-0.0,-0.0,-0.0,-0.0,-0.0,-0.0,-0.0,-0.0,-0.0,-0.0,-0.0,-0.0,-0.0,-0.0,-0.0,-0.0,-0.0344,-0.8511,-1.2606,-1.35,-1.3607,-1.374,-1.3727,-1.3722,-1.3715,-1.381,-1.3695,-1.3722,-1.3838,-1.3994,-1.4048,-1.4075,-1.4224,-1.4278,-1.4278,-1.4292,-1.4292,-1.4278,-1.4278,-1.4292,-1.4299,-1.4299,-1.4299,-1.4299,-1.4299,-1.4183,-1.4007,-1.3736,-1.3546,-1.3417,-1.3403,-1.3403,-1.3403,-1.3403,-1.5028,-1.6319,-1.6647,-2.0059,-2.282,-2.314,-2.4933,-2.6386,-2.6386,-2.6386,-2.6386,-2.6386,-2.6627,-2.6787,-2.6814,-2.7308,-2.7629,-2.7655,-2.7936,-2.8096,-2.8096,-2.8123,-2.8136,-2.8136,-2.8136,-2.8136,-2.8136,-2.8136,-2.8136,-2.8136,-2.8136,-2.8136,1.0568,1.0833,1.0812,1.0629,1.0331,0.9761,0.8499,0.7841,0.7183,0.6084,0.5759,0.5677,0.5677,0.5847,0.6159,0.6709,0.7346,0.8099,0.9022,1.0127,0.952,0.6203,0.5137,0.3372,0.0299,-0.0,-0.0,-0.0,-0.0,-0.0,-0.0,-0.0,-0.0,-0.0,-0.0,-0.0,-0.0,-0.0,-0.0,-0.0,-0.5493,-0.8117,-0.8133,-0.9025,-1.095,-1.3574,-1.3469,-1.3579,-1.3559,-1.3661,-1.3661,-1.3729,-1.3851,-1.3933,-1.4,-1.415,-1.4211,-1.4217,-1.4278,-1.4299,-1.4299,-1.4299,-1.4299,-1.4299,-1.4299,-1.4299,-1.4299,-1.4299,-1.4299,-1.4299,-1.4299,-1.4116,-1.3885,-1.3675,-1.3512,-1.3403,-1.3403,-1.3403,-1.3403,-1.3403,-1.5185,-1.6975,-1.8435,-2.1028,-2.362,-2.492,-2.5898,-2.6386,-2.6386,-2.6386,-2.6386,-2.6386,-2.6653,-2.6894,-2.7068,-2.7468,-2.7776,-2.7949,-2.8083,-2.8136,-2.8136,-2.8136,-2.8136,-2.8136,-2.8136,-2.8136,-2.8136,-2.8136,-2.8136,-2.8136,-2.8136,-2.8243,1.0287,1.0568,1.0717,1.0595,1.0053,0.9306,0.833,0.7502,0.6675,0.5718,0.5488,0.5454,0.5454,0.5569,0.5786,0.6132,0.6797,0.7502,0.8174,0.9384,0.9464,0.7423,0.2989,-0.0,-0.0,-0.0,-0.0,-0.0,-0.0,-0.0,-0.0,-0.0,-0.0,-0.0,-0.0,-0.0,-0.0,-0.0,-0.0,-0.017,-0.9081,-1.3462,-1.3337,-1.0154,-1.0475,-1.3586,-1.3519,-1.3479,-1.3634,-1.3675,-1.3722,-1.3783,-1.3994,-1.4102,-1.415,-1.4258,-1.4299,-1.4299,-1.4299,-1.4299,-1.4299,-1.4299,-1.4299,-1.4299,-1.4299,-1.4299,-1.4299,-1.4299,-1.4299,-1.4278,-1.419,-1.4,-1.379,-1.3607,-1.3478,-1.3403,-1.3403,-1.3403,-1.3562,-1.4217,-1.6164,-1.8272,-2.0393,-2.2659,-2.4602,-2.6228,-2.6386,-2.6386,-2.6386,-2.6386,-2.6426,-2.6507,-2.6774,-2.7041,-2.7241,-2.7615,-2.7923,-2.8123,-2.8136,-2.8136,-2.8136,-2.8136,-2.8136,-2.8136,-2.8136,-2.8136,-2.8136,-2.8136,-2.8136,-2.815,-2.823,-2.8444,0.9648,0.9944,1.0358,1.0643,0.9829,0.8825,0.837,0.7339,0.6268,0.559,0.5243,0.5135,0.5135,0.5264,0.5515,0.5962,0.6288,0.6905,0.8099,0.8001,0.8426,1.0151,0.4241,-0.0,-0.0,-0.0,-0.0,-0.0,-0.0,-0.0,-0.0,-0.0,-0.0,-0.0,-0.0,-0.0,-0.0,-0.0,-0.0,-0.0168,-0.9045,-1.3363,-1.3392,-1.3318,-1.3291,-1.3464,-1.358,-1.3627,-1.3641,-1.3783,-1.3933,-1.4068,-1.4068,-1.4163,-1.4299,-1.4299,-1.4299,-1.4299,-1.4299,-1.4299,-1.4299,-1.4299,-1.4299,-1.4299,-1.4299,-1.4299,-1.4299,-1.4299,-1.4299,-1.4231,-1.3926,-1.3844,-1.377,-1.3471,-1.3403,-1.3403,-1.3403,-1.3403,-1.4052,-1.6164,-1.8281,-2.0554,-2.2659,-2.492,-2.6386,-2.6386,-2.6386,-2.6386,-2.6386,-2.6386,-2.6493,-2.6787,-2.7081,-2.7268,-2.7268,-2.7802,-2.8136,-2.8136,-2.8136,-2.8136,-2.8136,-2.8136,-2.8136,-2.8136,-2.8136,-2.8136,-2.8136,-2.8136,-2.8136,-2.815,-2.8457,-2.8764,0.8696,0.8872,0.9022,0.8913,0.8296,0.759,0.7143,0.6349,0.5616,0.527,0.5087,0.5013,0.5114,0.5257,0.5474,0.582,0.6213,0.6709,0.74,0.7916,0.8384,0.8714,0.351,-0.0,-0.0,-0.0,-0.0,-0.0,-0.0,-0.0,-0.0,-0.0,-0.0,-0.0,-0.0,-0.0,-0.0,-0.0,-0.3041,-0.9114,-0.895,-1.0461,-1.3485,-1.3437,-1.3471,-1.3573,-1.3614,-1.3682,-1.3783,-1.3939,-1.4027,-1.4082,-1.419,-1.4258,-1.4299,-1.4299,-1.4299,-1.4299,-1.4299,-1.4299,-1.4299,-1.4299,-1.4299,-1.4299,-1.4299,-1.4299,-1.4299,-1.4299,-1.4224,-1.4122,-1.4021,-1.3851,-1.3675,-1.358,-1.3478,-1.3403,-1.3403,-1.4541,-1.5835,-1.6483,-1.9572,-2.2327,-2.298,-2.492,-2.6386,-2.6386,-2.6386,-2.6386,-2.6386,-2.6386,-2.6507,-2.6787,-2.7094,-2.7348,-2.7549,-2.7923,-2.8136,-2.8136,-2.8136,-2.8136,-2.8136,-2.8136,-2.8136,-2.8136,-2.8136,-2.8136,-2.8136,-2.8136,-2.8136,-2.815,-2.8457,-2.8751,0.7731,0.7909,0.8119,0.7984,0.7414,0.6817,0.6532,0.5854,0.5216,0.5006,0.4938,0.4945,0.5033,0.5223,0.5481,0.5827,0.6213,0.6646,0.6999,0.77,0.8153,0.7981,0.5121,0.2224,0.0151,-0.0,-0.0,-0.0,-0.0,-0.0,-0.0,-0.0,-0.0,-0.0,-0.0,-0.0,-0.0,-0.3355,-0.7925,-1.3385,-1.0597,-1.0737,-1.3451,-1.3478,-1.3539,-1.3634,-1.3749,-1.3844,0.0,-1.4095,-1.4156,-1.4163,-1.4265,-1.4299,-1.4299,-1.4299,-1.4299,-1.4299,-1.4299,-1.4299,-1.4299,-1.4299,-1.4299,-1.4299,-1.4299,-1.4299,-1.4299,-1.4299,-1.419,-1.4055,-1.4,-1.381,-1.3614,-1.3559,-1.3471,-1.3562,-1.4375,-1.5679,-1.713,-1.876,-2.119,-2.33,-2.4271,-2.5409,-2.6386,-2.6386,-2.6386,-2.6386,-2.6386,-2.648,-2.6667,-2.6961,-2.7255,-2.7549,-2.7843,-2.803,-2.8136,-2.8136,-2.8136,-2.8136,-2.8136,-2.8136,-2.8136,-2.8136,-2.8136,-2.8136,-2.8136,-2.8136,-2.8203,-2.8323,-2.8524,-2.8632,0.0,0.7014,0.7502,0.7624,0.7027,0.641,0.6396,0.5739,0.0,0.4775,0.483,0.4925,0.4945,0.5176,0.5508,0.5969,0.6295,0.6649,0.7,0.7346,0.7409,0.7454,0.7392,0.5415,0.0437,-0.0,-0.0,-0.0,-0.0,-0.0,-0.0,-0.0,-0.0,-0.0,-0.0667,-0.1,-0.101,-0.9282,-1.3385,-1.3378,-1.3485,-1.3458,-1.3471,-1.358,-1.3641,-1.3675,-1.3953,-1.4082,-1.4102,-1.4245,-1.4299,-1.4299,-1.4299,-1.4299,-1.4299,-1.4299,-1.4299,-1.4299,-1.4299,-1.4299,-1.4299,-1.4299,-1.4299,-1.4299,-1.4299,-1.4299,-1.4299,-1.4285,-1.4177,-1.4021,-1.3865,-1.3722,-1.3573,-1.3437,-1.3562,-1.4217,-1.6164,-1.6811,-1.8272,-2.2327,-2.33,-2.3952,-2.607,-2.6386,-2.6386,-2.6386,-2.6386,-2.64,-2.6413,-2.6653,-2.6947,-2.7268,-2.7535,-2.7816,-2.8123,-2.8136,-2.8136,-2.8136,-2.8136,-2.8136,-2.8136,-2.8136,-2.8136,-2.8136,-2.8136,-2.8136,-2.8136,-2.8136,-2.8297,-2.8577,-2.8577,-2.8885,0.6334,0.0,0.6207,0.6132,0.5956,0.5766,0.0,0.5365,0.5108,0.504,0.4972,0.4986,0.5216,0.5377,0.5617,0.6112,0.6451,0.6766,0.7012,0.7498,0.6341,0.2329,0.1891,0.1346,0.0146,-0.0,-0.0,-0.0,-0.0,-0.0,-0.0,-0.0,-0.0,-0.0,-0.6724,-1.0273,-1.0304,-1.2353,-1.3365,-1.3478,-1.3458,-1.3498,-1.3587,-1.3614,-1.3756,-1.3973,-1.4041,-1.4136,-1.4251,-1.4285,-1.4299,-1.4299,-1.4299,-1.4299,-1.4299,-1.4299,-1.4299,-1.4299,-1.4299,-1.4299,-1.4299,-1.4299,-1.4299,-1.4299,-1.4299,-1.4299,-1.4278,-1.4156,-1.4014,-1.3865,-1.3715,-1.3566,-1.3444,-1.341,-1.4706,-1.5999,-1.6483,-1.9238,-2.1845,-2.298,-2.4442,-2.574,-2.6386,-2.6386,-2.6386,-2.6386,-2.6386,-2.6466,-2.6694,-2.6774,-2.7014,-2.7549,-2.7655,-2.7816,-2.8123,-2.8136,-2.8136,-2.8136,-2.8136,-2.8136,-2.8136,-2.8136,-2.8136,-2.8136,-2.8136,-2.8136,-2.8136,-2.8136,-2.8177,-2.8257,-2.8257,-2.8379,0.6069,0.5713,0.5474,0.5399,0.5433,0.5447,0.5291,0.5189,0.5128,0.5128,0.5128,0.5196,0.5426,0.5622,0.5858,0.6364,0.6604,0.6799,0.7017,0.5459,0.323,0.0282,-0.0,-0.0,-0.0,-0.0,-0.0,-0.0,-0.0,-0.0,-0.0,-0.386,-0.6065,-0.6065,-0.8928,-1.1311,-1.3385,-1.3358,-1.3526,-1.3559,-1.3539,-1.36,-1.3729,-1.3797,-1.3919,-1.4075,-1.4143,-1.4224,-1.4299,-1.4299,-1.4299,-1.4299,-1.4299,-1.4299,-1.4299,-1.4299,-1.4299,-1.4299,-1.4299,-1.4299,-1.4299,-1.4299,-1.4251,-1.4197,-1.4197,-1.4143,-1.4089,-1.4075,-1.3912,-1.3729,-1.3648,-1.3512,-1.3403,-1.3403,-1.5028,-1.6811,-1.7955,-2.0705,-2.346,-2.4442,-2.5568,-2.6386,-2.6386,-2.6386,-2.6386,-2.6386,-2.6507,-2.664,-2.68,-2.7054,-2.7348,-2.7669,-2.7816,-2.7963,-2.8123,-2.8136,-2.8136,-2.8136,-2.8136,-2.8136,-2.8136,-2.8136,-2.8136,-2.8136,-2.8136,-2.8136,-2.8136,-2.8136,-2.8136,-2.8136,-2.8136,-2.826,0.5954,0.5495,0.5243,0.5155,0.525,0.5332,0.5223,0.5203,0.5209,0.523,0.5352,0.5542,0.5669,0.59,0.6042,0.6103,0.6492,0.6857,0.7242,0.3071,-0.0,-0.0,-0.0,-0.0,-0.0,-0.0,-0.0,-0.0,-0.0,-0.0667,-0.202,-0.9282,-1.3385,-1.3378,-0.9751,-0.9588,-1.3405,-1.3519,-1.3553,-1.3675,-1.3668,-1.3736,-1.3878,-1.4014,-1.4082,-1.4116,-1.4245,-1.4299,-1.4299,-1.4299,-1.4299,-1.4299,-1.4299,-1.4299,-1.4299,-1.4299,-1.4299,-1.4299,-1.4299,-1.4299,-1.4299,-1.4272,-1.4177,-1.4068,-1.4041,-1.3933,-1.3838,-1.3966,-1.3824,-1.3627,-1.36,-1.3659,-1.3887,-1.3887,-1.5843,-1.8109,-1.9907,-2.2006,-2.4111,-2.6056,-2.6386,-2.6386,-2.6386,-2.6386,-2.64,-2.6453,-2.6667,-2.6854,-2.6947,-2.7388,-2.7722,-2.7762,-2.7989,-2.8136,-2.8136,-2.8136,-2.8136,-2.8136,-2.8136,-2.8136,-2.8136,-2.8136,-2.8136,-2.8136,-2.8136,-2.8136,-2.8136,-2.8136,-2.8136,-2.8136,-2.8136,-2.826,0.5753,0.568,0.5766,0.5257,0.525,0.5393,0.5494,0.5521,0.5555,0.5671,0.582,0.5937,0.5918,0.6085,0.567,0.3946,0.5567,0.7173,0.7779,0.3385,-0.0,-0.0,-0.0,-0.0,-0.0,-0.0,-0.0,-0.0,-0.0,-0.3362,-1.0986,-1.2701,-1.3372,-1.3345,-1.2791,-1.2836,-1.3661,-1.3654,-1.3641,-1.3641,-1.3756,-1.3892,-1.4034,-1.4061,-1.4143,-1.4265,-1.4292,-1.4299,-1.4299,-1.4299,-1.4299,-1.4299,-1.4299,-1.4299,-1.4299,-1.4299,-1.4299,-1.4299,-1.4299,-1.4299,-1.4278,-1.415,-1.4089,-1.4048,-1.3912,-1.3777,-1.3668,-1.3688,-1.3661,-1.36,-1.3471,-1.4721,-1.6164,-1.6164,-1.9248,-2.2166,-2.2499,-2.4271,-2.6056,-2.6386,-2.6386,-2.6386,-2.6386,-2.6386,-2.6466,-2.672,-2.6787,-2.7001,-2.7495,-2.7642,-2.7789,-2.8043,-2.8123,-2.8136,-2.8136,-2.8136,-2.8136,-2.8136,-2.8136,-2.8136,-2.8136,-2.8136,-2.8136,-2.8136,-2.8136,-2.8136,-2.8136,-2.8136,-2.8136,-2.8136,-2.8136,-2.826,0.5338,0.5239,0.5494,0.5786,0.6274,0.6702,0.6776,0.6919,0.6966,0.6702,0.677,0.6766,0.6403,0.5396,0.3925,0.1729,0.487,0.6611,0.4083,0.1516,-0.0,-0.0,-0.0,-0.0,-0.0,-0.0,-0.0,-0.0,-0.4533,-0.9114,-1.3211,-1.3351,-1.3325,-1.3478,-1.3444,-1.3498,-1.3654,-1.3729,-1.3804,-1.3871,-1.3933,-1.4048,-1.4197,-1.4197,-1.4231,-1.4299,-1.4299,-1.4299,-1.4299,-1.4299,-1.4299,-1.4299,-1.4299,-1.4299,-1.4299,-1.4299,-1.4299,-1.4299,-1.4299,-1.4299,-1.4278,-1.4122,-1.4014,-1.3919,-1.377,-1.362,-1.3505,-1.3505,-1.3505,-1.3818,-1.4886,-1.5835,-1.6975,-1.8118,-2.0867,-2.314,-2.314,-2.4761,-2.6386,-2.6386,-2.6386,-2.6386,-2.6386,-2.652,-2.6667,-2.68,-2.7094,-2.7388,-2.7655,-2.7843,-2.7989,-2.8123,-2.8136,-2.8136,-2.8136,-2.8136,-2.8136,-2.8136,-2.8136,-2.8136,-2.8136,-2.8136,-2.8136,-2.8136,-2.8136,-2.8136,-2.8136,-2.8136,-2.8136,-2.8136,-2.8136,-2.826,0.4998,0.4979,0.5481,0.6315,0.6939,0.7441,0.7828,0.7991,0.7991,0.7548,0.7614,0.7483,0.6647,0.4299,0.183,0.0277,0.3483,0.4729,0.056,-0.0,-0.0,-0.0,-0.0,-0.0,-0.0,-0.0,-0.0,-0.0,-0.8265,-1.3385,-1.3378,-1.3318,-1.3451,-1.3437,-1.3451,-1.3526,-1.3675,-1.3824,-1.3953,-1.4075,-1.4109,-1.4183,-1.4299,-1.4299,-1.4299,-1.4299,-1.4299,-1.4299,-1.4299,-1.4299,-1.4299,-1.4299,-1.4299,-1.4299,-1.4299,-1.4299,-1.4299,-1.4299,-1.4299,-1.4278,-1.4224,-1.4068,-1.3912,-1.3763,-1.362,-1.3492,-1.3403,-1.3403,-1.3728,-1.4541,-1.6164,-1.7293,-1.8598,-2.0231,-2.2327,-2.3952,-2.3952,-2.5251,-2.6386,-2.6386,-2.6386,-2.6413,-2.648,-2.668,-2.6867,-2.7014,-2.7415,-2.7722,-2.7789,-2.8003,-2.8136,-2.8136,-2.8136,-2.8136,-2.8136,-2.8136,-2.8136,-2.8136,-2.8136,-2.8136,-2.8136,-2.8136,-2.8136,-2.8136,-2.8136,-2.8136,-2.8136,-2.8136,-2.8136,-2.8136,-2.8136,-2.8233,0.4919,0.5508,0.641,0.6627,0.6315,0.6349,0.7889,0.7821,0.7475,0.7632,0.7883,0.761,0.6493,0.2998,0.0124,-0.0,0.0262,0.0415,-0.0,-0.0,-0.0,-0.0,-0.0,-0.0,-0.0,-0.0,-0.0,-0.0,-0.8265,-1.3372,-1.3338,-1.3471,-1.3437,-1.3403,-1.3539,-1.3682,-1.3824,-1.398,-1.4061,-1.4075,-1.4217,-1.4292,-1.4299,-1.4299,-1.4299,-1.4299,-1.4299,-1.4299,-1.4299,-1.4299,-1.4299,-1.4299,-1.4299,-1.4299,-1.4299,-1.4299,-1.4299,-1.4299,-1.4299,-1.4204,-1.4061,-1.3905,-1.3763,-1.3614,-1.3464,-1.341,-1.3403,-1.3403,-1.4863,-1.6483,-1.6483,-1.9572,-2.2648,-2.282,-2.4602,-2.6228,-2.6228,-2.6228,-2.6386,-2.6386,-2.6386,-2.648,-2.6747,-2.6814,-2.7014,-2.7549,-2.7669,-2.7802,-2.807,-2.8123,-2.8136,-2.8136,-2.8136,-2.8136,-2.8136,-2.8136,-2.8136,-2.8136,-2.8136,-2.8136,-2.8136,-2.8136,-2.8136,-2.8136,-2.8136,-2.8136,-2.8136,-2.8136,-2.8136,-2.8136,-2.8136,-2.8127,0.5093,0.5705,0.6573,0.7007,0.7082,0.7434,0.8899,0.9205,0.9171,0.8804,0.909,0.8757,0.71,0.3103,-0.0,-0.0,-0.0,-0.0,-0.0,-0.0,-0.0,-0.0,-0.0,-0.0,-0.0,-0.0,-0.2329,-0.7921,-0.8923,-1.043,-1.3305,-1.3437,-1.3458,-1.3539,-1.36,-1.3743,-1.398,-1.4041,-1.4122,-1.4211,-1.4272,-1.4299,-1.4299,-1.4299,-1.4299,-1.4299,-1.4299,-1.4299,-1.4299,-1.4299,-1.4299,-1.4299,-1.4299,-1.4299,-1.4299,-1.4299,-1.4299,-1.4299,-1.4299,-1.4197,-1.4215,-1.5413,-1.4754,-1.3762,-1.5081,-1.535,-1.535,-1.535,-1.7946,-2.0382,-1.8923,-2.0867,-2.346,-2.4761,-2.574,-2.6386,-2.6386,-2.6386,-2.6386,-2.6386,-2.6533,-2.6694,-2.68,-2.7121,-2.7442,-2.7669,-2.7856,-2.8016,-2.8123,-2.8136,-2.8136,-2.8136,-2.8136,-2.8136,-2.8136,-2.8136,-2.8136,-2.8136,-2.8136,-2.8136,-2.8136,-2.8136,-2.8136,-2.8136,-2.8136,-2.8136,-2.8136,-2.8136,-2.8136,-2.8136,-2.8136,-2.8207,0.5554,0.6071,0.6865,0.7604,0.7841,0.8262,0.9707,1.0012,1.0005,1.0032,0.8296,0.6456,0.5073,0.2173,-0.0,-0.0,-0.0,-0.0,-0.0,-0.0,-0.0,-0.0,-0.0,-0.0,-0.0,-0.0,-0.3653,-1.2791,-1.0586,-1.0242,-1.3284,-1.3417,-1.3471,-1.3627,-1.3675,-1.3817,-1.4068,-1.4122,-1.4197,-1.4299,-1.4299,-1.4299,-1.4299,-1.4299,-1.4299,-1.4299,-1.4299,-1.4299,-1.4299,-1.4299,-1.4299,-1.4299,-1.4299,-1.4299,-1.4299,-1.4299,-1.4299,-1.4292,-1.4245,-1.4646,-1.5167,-1.5848,-1.534,-1.4688,-1.5389,-1.5999,-1.6647,-1.6647,-1.9735,-2.282,-2.1362,-2.2499,-2.4602,-2.6056,-2.6386,-2.6386,-2.6386,-2.6386,-2.6413,-2.6507,-2.668,-2.6881,-2.7068,-2.7428,-2.7736,-2.7829,-2.8016,-2.8136,-2.8136,-2.8136,-2.8136,-2.8136,-2.8136,-2.8136,-2.8136,-2.8136,-2.8136,-2.8136,-2.8136,-2.8136,-2.8136,-2.8136,-2.8136,-2.8136,-2.8136,-2.8136,-2.8136,-2.8136,-2.8136,-2.8136,-2.8136,-2.822,0.6213,0.6695,0.74,0.8445,0.8377,0.8486,1.012,0.9924,0.9788,1.0908,0.5175,-0.0,-0.0,-0.0,-0.0,-0.0,-0.0,-0.0,-0.0,-0.0,-0.0,-0.0,-0.0,-0.0,-0.0,-0.0,-0.3641,-1.2656,-1.3437,-1.3318,-1.3451,-1.3424,-1.3471,-1.3627,-1.377,-1.3919,-1.4075,-1.4224,-1.4299,-1.4299,-1.4299,-1.4299,-1.4299,-1.4299,-1.4299,-1.4299,-1.4299,-1.4299,-1.4299,-1.4299,-1.4299,-1.4299,-1.4299,-1.4299,-1.4299,-1.4299,-1.4299,-1.4278,-1.4122,-1.5332,-1.6681,-1.4344,-1.5006,-1.6164,-1.4052,-1.5028,-1.6647,-1.6647,-1.9735,-2.314,-2.314,-2.4761,-2.6386,-2.6386,-2.6386,-2.6386,-2.6386,-2.6386,-2.648,-2.6774,-2.6827,-2.7014,-2.7602,-2.7696,-2.7802,-2.8096,-2.8136,-2.8136,-2.8136,-2.8136,-2.8136,-2.8136,-2.8136,-2.8136,-2.8136,-2.8136,-2.8136,-2.8136,-2.8136,-2.8136,-2.8136,-2.8136,-2.8136,-2.8136,-2.8136,-2.8136,-2.8136,-2.8136,-2.8136,-2.8136,-2.8136,-2.8127,0.5691,0.6763,0.7821,0.8024,0.8852,0.9768,1.0358,1.0243,0.9532,0.7804,0.6477,0.4412,0.0696,-0.0,-0.0,-0.0,-0.0,-0.0,-0.0,-0.0,-0.0,-0.0,-0.0,-0.0,-0.0,-0.0,-0.2488,-0.8186,-1.1605,-1.3478,-1.3417,-1.3505,-1.3627,-1.3777,-1.3926,-1.4075,-1.4231,-1.4278,-1.4299,-1.4299,-1.4299,-1.4299,-1.4299,-1.4299,-1.4299,-1.4299,-1.4299,-1.4299,-1.4299,-1.4299,-1.4299,-1.4299,-1.4299,-1.4299,-1.4285,-1.4177,-1.4143,-1.4116,-1.396,-1.516,-1.6843,-1.6125,-1.6146,-1.6811,-1.7629,-1.8444,-1.9258,-2.0705,-2.33,-2.5409,-2.5409,-2.5898,-2.6386,-2.6386,-2.6386,-2.6386,-2.6386,-2.6547,-2.672,-2.68,-2.7148,-2.7495,-2.7669,-2.7869,-2.8043,-2.8123,-2.8136,-2.8136,-2.8136,-2.8136,-2.8136,-2.8136,-2.8136,-2.8136,-2.8136,-2.8136,-2.8136,-2.8136,-2.8136,-2.8136,-2.8136,-2.8136,-2.8136,-2.8136,-2.8136,-2.8136,-2.8136,-2.8136,-2.8136,-2.8136,-2.8136,-2.822,0.6709,0.7556,0.8296,0.8974,0.9713,1.0385,1.0772,1.0766,1.0116,0.8435,0.6395,0.39,0.0582,-0.0,-0.0,-0.0,-0.0,-0.0,-0.0,-0.0,-0.0,-0.0,-0.0,-0.0,-0.0,-0.0,-0.1832,-0.6324,-1.0909,-1.3471,-1.3403,-1.3546,-1.3695,-1.3838,-1.3994,-1.4143,-1.4299,-1.4299,-1.4299,-1.4299,-1.4299,-1.4299,-1.4299,-1.4299,-1.4299,-1.4299,-1.4299,-1.4299,-1.4299,-1.4299,-1.4299,-1.4299,-1.4299,-1.4299,-1.4278,-1.4129,-1.4075,-1.4215,-1.4834,-1.6357,-1.8072,-1.7007,-1.7234,-1.7955,-1.8444,-1.9258,-2.0393,-2.2499,-2.4761,-2.6386,-2.6386,-2.6386,-2.6386,-2.6386,-2.6386,-2.6426,-2.6533,-2.6694,-2.6894,-2.7121,-2.7455,-2.7736,-2.7856,-2.803,-2.8136,-2.8136,-2.8136,-2.8136,-2.8136,-2.8136,-2.8136,-2.8136,-2.8136,-2.8136,-2.8136,-2.8136,-2.8136,-2.8136,-2.8136,-2.8136,-2.8136,-2.8136,-2.8136,-2.8136,-2.8136,-2.8136,-2.8136,-2.8136,-2.8203,-2.814,-2.814,-2.8248,0.8404,0.8648,0.8784,1.0609,1.0731,1.0457,1.0735,1.0983,1.1353,1.1514,0.531,-0.0,-0.0,-0.0,-0.0,-0.0,-0.0,-0.0,-0.0,-0.0,-0.0,-0.0,-0.0,-0.0,-0.0,-0.0665,-0.2677,-0.644,-1.087,-1.3471,-1.3403,-1.3559,-1.3709,-1.3838,-1.4007,-1.4156,-1.4299,-1.4299,-1.4299,-1.4299,-1.4299,-1.4299,-1.4299,-1.4299,-1.4299,-1.4299,-1.4299,-1.4299,-1.4299,-1.4299,-1.4299,-1.4299,-1.4299,-1.4299,-1.4278,-1.4129,-1.4061,-1.4354,-1.6229,-1.8238,-1.9667,-1.7355,-1.8272,-1.9745,-1.762,-1.8435,-2.0716,-2.282,-2.492,-2.6386,-2.6386,-2.6386,-2.6386,-2.6386,-2.6413,-2.6507,-2.676,-2.6867,-2.7054,-2.7602,-2.7722,-2.7829,-2.8096,-2.8136,-2.8136,-2.8136,-2.8136,-2.8136,-2.8136,-2.8136,-2.8136,-2.8136,-2.8136,-2.8136,-2.8136,-2.8136,-2.8136,-2.8136,-2.8136,-2.8136,-2.8136,-2.8136,-2.8136,-2.8136,-2.8136,-2.8136,-2.8136,-2.8136,-2.8114,-2.8221,-2.8234,-2.8338,0.7007,0.8079,0.9178,1.0066,1.0826,1.0568,0.7597,0.9404,1.1345,1.0928,0.5156,-0.0,-0.0,-0.0,-0.0,-0.0,-0.0,-0.0,-0.0,-0.0,-0.0,-0.0,-0.0,-0.0,-0.0,-0.6385,-0.9431,-0.685,-1.0898,-1.3444,-1.3403,-1.3654,-1.381,-1.3838,-1.4109,-1.4265,-1.4299,-1.4299,-1.4299,-1.4299,-1.4299,-1.4299,-1.4299,-1.4299,-1.4299,-1.4299,-1.4299,-1.4299,-1.4299,-1.4299,-1.4299,-1.4299,-1.4299,-1.4299,-1.4278,-1.4129,-1.3994,-1.4201,-1.6181,-1.8321,-1.9642,-1.7311,-1.9248,-2.2006,-1.9907,-2.0716,-2.282,-2.5092,-2.6056,-2.6386,-2.6386,-2.6386,-2.6386,-2.6386,-2.656,-2.6747,-2.6814,-2.7188,-2.7549,-2.7669,-2.7883,-2.807,-2.8136,-2.8136,-2.8136,-2.8136,-2.8136,-2.8136,-2.8136,-2.8136,-2.8136,-2.8136,-2.8136,-2.8136,-2.8136,-2.8136,-2.8136,-2.8136,-2.8136,-2.8136,-2.8136,-2.8136,-2.8136,-2.8136,-2.8136,-2.8136,-2.8136,-2.8136,-2.8114,-2.8221,-2.9186,-2.9512,0.7441,0.8241,0.8933,1.0256,1.1138,1.0535,0.6647,0.887,1.0509,0.6362,0.261,-0.0,-0.0,-0.0,-0.0,-0.0,-0.0,-0.0,-0.0,-0.0,-0.0,-0.0,-0.0,-0.0,-0.0,-0.8097,-1.2508,-1.0085,-1.2099,-1.3437,-1.3403,-1.3682,-1.3838,-1.3838,-1.4136,-1.4299,-1.4299,-1.4299,-1.4299,-1.4299,-1.4299,-1.4299,-1.4299,-1.4299,-1.4299,-1.4299,-1.4299,-1.4299,-1.4299,-1.4299,-1.4299,-1.4299,-1.4299,-1.4299,-1.4278,-1.4129,-1.4021,-1.4256,-1.6197,-1.753,-1.8247,-1.7001,-1.8923,-2.1362,-2.0231,-2.1362,-2.362,-2.574,-2.6386,-2.6386,-2.6386,-2.6386,-2.6426,-2.656,-2.6707,-2.6867,-2.7001,-2.7388,-2.7736,-2.7883,-2.803,-2.8136,-2.8136,-2.8136,-2.8136,-2.8136,-2.8136,-2.8136,-2.8136,-2.8136,-2.8136,-2.8136,-2.8136,-2.8136,-2.8136,-2.8136,-2.8136,-2.8136,-2.8136,-2.8136,-2.8136,-2.8136,-2.8136,-2.8136,-2.8136,-2.8136,-2.8136,-2.8136,-2.818,-2.8233,-2.9403,-2.985,0.8004,0.8486,0.8771,1.0683,1.1409,1.0517,0.6643,0.7809,0.7777,0.1385,-0.0,-0.0,-0.0,-0.0,-0.0,-0.0,-0.0,-0.0,-0.0,-0.0,-0.0,-0.0,-0.0,-0.0,-0.0,-0.7413,-1.2508,-1.3338,-1.3464,-1.3431,-1.3403,-1.3682,-1.3838,-1.3838,-1.4136,-1.4299,-1.4299,-1.4299,-1.4299,-1.4299,-1.4299,-1.4299,-1.4299,-1.4299,-1.4299,-1.4299,-1.4299,-1.4299,-1.4299,-1.4299,-1.4299,-1.4299,-1.4299,-1.4285,-1.4251,-1.415,-1.4061,-1.4305,-1.6245,-1.6943,-1.6859,-1.6698,-1.8272,-2.0393,-2.0069,-2.1684,-2.4111,-2.5898,-2.6386,-2.6386,-2.6386,-2.6386,-2.6466,-2.6747,-2.6867,-2.6974,-2.7281,-2.7575,-2.7843,-2.8096,-2.819,-2.8217,-2.8217,-2.827,-2.8283,-2.823,-2.827,-2.8257,-2.8163,-2.819,-2.8203,-2.815,-2.8136,-2.8136,-2.8136,-2.8136,-2.8136,-2.8136,-2.8136,-2.8136,-2.8136,-2.8136,-2.8136,-2.8136,-2.8136,-2.8136,-2.8136,-2.819,-2.8129,-2.8256,-2.93,-2.9852,0.6471,0.7997,0.9686,1.0867,1.1454,1.0519,0.6628,0.359,0.1213,0.0154,-0.0,-0.0,-0.0,-0.0,-0.0,-0.0,-0.0,-0.0,-0.0,-0.0,-0.0,-0.0,-0.0,-0.0,-0.0,-0.4533,-0.924,-1.3158,-1.3444,-1.3403,-1.3403,-1.3682,-1.3838,-1.3838,-1.4136,-1.4299,-1.4299,-1.4299,-1.4299,-1.4299,-1.4299,-1.4299,-1.4299,-1.4299,-1.4299,-1.4299,-1.4299,-1.4299,-1.4299,-1.4299,-1.4299,-1.4299,-1.4299,-1.4217,-1.4116,-1.4231,-1.4021,-1.4034,-1.6309,-1.6801,-1.6681,-1.6656,-1.941,-2.2327,-2.0393,-2.282,-2.6056,-2.6386,-2.6386,-2.6386,-2.6386,-2.6386,-2.6466,-2.6747,-2.7014,-2.7281,-2.7575,-2.7869,-2.8096,-2.8136,-2.8364,-2.8551,-2.8551,-2.8751,-2.8831,-2.8577,-2.8764,-2.8738,-2.8217,-2.8377,-2.8444,-2.8177,-2.8136,-2.8136,-2.8136,-2.8136,-2.8136,-2.8136,-2.8136,-2.8136,-2.8136,-2.8136,-2.8136,-2.8136,-2.8136,-2.8136,-2.8136,-2.822,-2.8142,-2.8256,-2.9312,-2.9853,0.6675,0.8282,0.9842,1.0806,1.1314,1.1201,0.947,0.4342,-0.0,-0.0,-0.0,-0.0,-0.0,-0.0,-0.0,-0.0,-0.0,-0.0,-0.0,-0.0,-0.0,-0.0,-0.0,-0.2021,-0.7077,-0.7056,-0.8553,-1.3131,-1.3431,-1.3403,-1.3403,-1.3607,-1.3756,-1.3838,-1.4055,-1.4211,-1.4299,-1.4299,-1.4299,-1.4299,-1.4299,-1.4299,-1.4299,-1.4299,-1.4299,-1.4299,-1.4299,-1.4299,-1.4299,-1.4299,-1.4299,-1.4299,-1.4299,-1.4204,-1.4089,-1.4245,-1.4068,-1.3926,-1.4834,-1.5041,-1.5158,-1.6196,-1.876,-2.1362,-2.1684,-2.3952,-2.6386,-2.6386,-2.6386,-2.6386,-2.6386,-2.6507,-2.6707,-2.7001,-2.7295,-2.7589,-2.7883,-2.8056,-2.819,-2.8364,-2.8644,-2.8845,-2.8845,-2.8951,-2.8991,-2.8871,-2.8951,-2.8938,-2.8684,-2.8617,-2.8551,-2.8417,-2.8404,-2.8404,-2.8404,-2.8404,-2.8404,-2.8404,-2.8243,-2.8136,-2.8136,-2.831,-2.8404,-2.8404,-2.8404,-2.8404,-2.8404,-2.8314,-2.8404,-2.8693,-2.9432,-2.9595,0.679,0.8045,0.9157,1.0365,1.0975,1.0959,1.0292,0.5667,0.1207,0.0153,-0.0,-0.0,-0.0,-0.0,-0.0,-0.0,-0.0,-0.0,-0.0,-0.0,-0.0,-0.0,-0.0,-0.3535,-1.2527,-1.044,-0.9736,-1.3118,-1.3417,-1.3403,-1.3403,-1.3546,-1.3695,-1.3838,-1.3994,-1.4143,-1.4299,-1.4299,-1.4299,-1.4299,-1.4299,-1.4299,-1.4299,-1.4299,-1.4299,-1.4299,-1.4299,-1.4299,-1.4299,-1.4299,-1.4299,-1.4299,-1.4258,-1.417,-1.4082,-1.4156,-1.4014,-1.379,-1.379,-1.3695,-1.3881,-1.5231,-1.7629,-2.0231,-2.1845,-2.4271,-2.6386,-2.6386,-2.6386,-2.6386,-2.6386,-2.66,-2.6894,-2.7201,-2.7482,-2.7802,-2.8177,-2.8257,-2.835,-2.8657,-2.8951,-2.9152,-2.9152,-2.9205,-2.9232,-2.9165,-2.9219,-2.9205,-2.9058,-2.8911,-2.8804,-2.8724,-2.8711,-2.8711,-2.8711,-2.8711,-2.8711,-2.8711,-2.8497,-2.8377,-2.8377,-2.8591,-2.8711,-2.8711,-2.8791,-2.8791,-2.8724,-2.8617,-2.8679,-2.9282,-2.9486,-2.9352,0.603,0.6586,0.7339,0.9374,1.0012,0.9355,0.6697,0.5726,0.445,0.0745,-0.0,-0.0,-0.0,-0.0,-0.0,-0.0,-0.0,-0.0,-0.0,-0.0,-0.0,-0.0,-0.0,-0.3535,-1.2527,-1.3184,-1.3151,-1.3458,-1.3417,-1.3403,-1.3403,-1.3546,-1.3695,-1.3838,-1.3994,-1.4143,-1.4299,-1.4299,-1.4299,-1.4299,-1.4299,-1.4299,-1.4299,-1.4299,-1.4299,-1.4299,-1.4299,-1.4299,-1.4299,-1.4299,-1.4299,-1.4285,-1.4143,-1.4082,-1.4055,-1.3912,-1.377,-1.3641,-1.3641,-1.3539,-1.341,-1.3569,-1.65,-1.9907,-2.0069,-2.298,-2.6386,-2.6386,-2.6386,-2.6386,-2.6386,-2.66,-2.6894,-2.7201,-2.7482,-2.7856,-2.8457,-2.8577,-2.8671,-2.8965,-2.9259,-2.9459,-2.9459,-2.9686,-2.978,-2.9499,-2.97,-2.9673,-2.9112,-2.9272,-2.9325,-2.9045,-2.9018,-2.9018,-2.9018,-2.9018,-2.9018,-2.9018,-2.9005,-2.8991,-2.8991,-2.9005,-2.9018,-2.9018,-2.9299,-2.9312,-2.9219,-2.9312,-2.9459,-2.988,-2.9282,-2.9282,0.5705,0.6254,0.6898,0.8323,0.9866,1.077,0.9753,0.5703,0.1634,0.03,-0.0,-0.0,-0.0,-0.0,-0.0,-0.0,-0.0,-0.0,-0.0,-0.0,-0.0,-0.0,-0.0,-0.1346,-0.4535,-1.01,-1.3325,-1.3458,-1.3417,-1.3403,-1.3403,-1.3451,-1.3593,-1.3831,-1.3892,-1.4041,-1.4299,-1.4299,-1.4299,-1.4299,-1.4299,-1.4299,-1.4299,-1.4299,-1.4299,-1.4299,-1.4299,-1.4299,-1.4299,-1.4299,-1.4299,-1.4285,-1.4129,-1.4014,-1.3919,-1.3865,-1.3688,-1.3498,-1.3593,-1.3532,-1.3894,-1.6664,-1.8607,-2.0393,-2.314,-2.5092,-2.6386,-2.6386,-2.6386,-2.6426,-2.6613,-2.6881,-2.7228,-2.7709,-2.8056,-2.839,-2.8791,-2.8885,-2.8978,-2.9272,-2.9566,-2.9766,-2.9766,-2.9847,-2.9887,-2.978,-2.9847,-2.9833,-2.9633,-2.9526,-2.9446,-2.9339,-2.9325,-2.9325,-2.9325,-2.9325,-2.9325,-2.9325,-2.9152,-2.9045,-2.9045,-2.9219,-2.9325,-2.9325,-2.9806,-2.9806,-2.9515,-2.9619,-2.986,-3.024,-2.9847,-2.9753,0.525,0.5684,0.6213,0.7312,0.8888,1.0301,1.1419,0.6558,0.1584,0.0299,-0.0,-0.0,-0.0,-0.0,-0.0,-0.0,-0.0,-0.0,-0.0,-0.0,-0.0,-0.0,-0.0,-0.0,-0.0,-0.6714,-1.1778,-1.3284,-1.3417,-1.3403,-1.3403,-1.3403,-1.3539,-1.3831,-1.3892,-1.4041,-1.4299,-1.4299,-1.4299,-1.4299,-1.4299,-1.4299,-1.4299,-1.4299,-1.4299,-1.4299,-1.4299,-1.4299,-1.4299,-1.4299,-1.4299,-1.4278,-1.4075,-1.3966,-1.3899,-1.3749,-1.36,-1.3485,-1.3532,-1.3485,-1.4052,-1.7629,-1.9258,-2.0554,-2.4271,-2.574,-2.6386,-2.6386,-2.6386,-2.6453,-2.6747,-2.7121,-2.7535,-2.803,-2.8377,-2.8684,-2.8978,-2.9112,-2.9272,-2.9566,-2.978,-2.9913,-2.9913,-2.9913,-2.9913,-2.9913,-2.9913,-2.9913,-2.9913,-2.9753,-2.9633,-2.9633,-2.9633,-2.9633,-2.9633,-2.9633,-2.9633,-2.9633,-2.9446,-2.9339,-2.9339,-2.9526,-2.9673,-2.978,-3.0167,-3.0221,-2.9927,-3.0114,-3.0261,-3.055,-3.006,-2.986,0.0,0.0,0.0,0.6356,0.6892,0.7841,1.0718,0.8497,0.4708,0.0875,-0.0,-0.0,-0.0,-0.0,-0.0,-0.0,-0.0,-0.0,-0.0,-0.0,-0.0,-0.0,-0.0,-0.0,-0.0,-0.4021,-0.8549,-1.3111,-1.3424,-1.3403,-1.3403,-1.3403,-1.3539,-1.3824,-1.3987,-1.4143,-1.4292,-1.4299,-1.4299,-1.4299,-1.4299,-1.4299,-1.4299,-1.4299,-1.4299,-1.4299,-1.4299,-1.4299,-1.4299,-1.4299,-1.4299,-1.4265,-1.396,-1.3933,-1.4007,-1.3566,-1.3498,-1.36,-1.3451,-1.3403,-1.3728,-1.5999,-1.8109,-2.0231,-2.2487,-2.4761,-2.6386,-2.6386,-2.64,-2.6466,-2.6774,-2.7281,-2.7789,-2.807,-2.839,-2.8698,-2.8978,-2.9285,-2.9579,-2.986,-2.9913,-2.9913,-2.9913,-2.9913,-2.9913,-2.9913,-2.9913,-2.9913,-2.9913,-2.9913,-2.9913,-2.9913,-2.9913,-2.9913,-2.9913,-2.9913,-2.9913,-2.9913,-2.9913,-2.9913,-2.9927,-2.9927,-3.0074,-3.0368,-3.0381,-3.0528,-3.0808,-3.0795,-3.0648,-3.0368,-3.0074,-2.9766,0.4567,0.0,0.0,0.0,0.0,0.0,0.7661,0.7486,0.5801,0.0945,-0.0,-0.0,-0.0,-0.0,-0.0,-0.0,-0.0,-0.0,-0.0,-0.0,-0.0,-0.0,-0.0,-0.0,-0.0,-0.4025,-0.8558,-1.2977,-1.3437,-1.3403,-1.3403,-1.3505,-1.36,-1.3688,-1.3939,-1.4095,-1.4136,-1.4245,-1.4299,-1.4299,-1.4299,-1.4299,-1.4299,-1.4299,-1.4299,-1.4299,-1.4299,-1.4299,-1.4299,-1.4299,-1.4238,-1.4116,-1.3919,-1.3804,-1.3722,-1.3485,-1.3424,-1.3458,-1.3417,-1.3403,-1.4052,-1.7792,-1.942,-2.0554,-2.4271,-2.5898,-2.6386,-2.6386,-2.6547,-2.6814,-2.7321,-2.7736,-2.8043,-2.8123,-2.8537,-2.8938,-2.9018,-2.9432,-2.982,-2.99,-2.9913,-2.9913,-2.9913,-2.9913,-2.9913,-2.9913,-2.9913,-2.9913,-2.9913,-2.9913,-2.9913,-2.9913,-2.9913,-2.9913,-2.9913,-2.9913,-2.9913,-2.9913,-2.9913,-3.0007,-3.0221,-3.0234,-3.0381,-3.0662,-3.0875,-3.1022,-3.1102,-3.0889,-3.0755,-3.0662,-3.0368,-3.0074,0.4519,0.458,0.4633,0.4782,0.0,0.0,0.5947,0.6511,0.6667,0.5143,0.2308,-0.0,-0.0,-0.0,-0.0,-0.0,-0.0,-0.0,-0.0,-0.0,-0.0,-0.0,-0.0,-0.0,-0.0,-0.5826,-1.0533,-1.3238,-1.3417,-1.3417,-1.3403,-1.3485,-1.3559,-1.3627,-1.3851,-1.4007,-1.4075,-1.4224,-1.4299,-1.4299,-1.4299,-1.4299,-1.4299,-1.4299,-1.4299,-1.4299,-1.4299,-1.4299,-1.4299,-1.4299,-1.4211,-1.4055,-1.3899,-1.3756,-1.3607,-1.3458,-1.3403,-1.3403,-1.3403,-1.4052,-1.5358,-1.877,-2.0554,-2.1845,-2.5409,-2.6386,-2.6386,-2.6386,-2.668,-2.7108,-2.7575,-2.7923,-2.8177,-2.831,-2.8698,-2.9072,-2.9205,-2.9593,-2.9913,-2.9913,-2.9913,-2.9913,-2.9913,-2.9913,-2.9913,-2.9913,-2.9913,-2.9913,-2.9913,-2.9913,-2.9913,-2.9913,-2.9913,-2.9913,-2.9913,-2.9913,-2.9913,-2.9913,-3.0034,-3.0181,-3.0354,-3.0474,-3.0675,-3.0969,-3.1142,-3.1223,-3.1223,-3.1049,-3.0849,-3.0608,-3.0314,-3.0087,0.4553,0.4519,0.4553,0.4633,0.4877,0.0,0.5324,0.5887,0.7138,1.0103,0.5418,0.0578,0.0434,0.0439,0.0296,-0.0,-0.0,-0.0,-0.0,-0.0,-0.0,-0.0,-0.0,-0.0,-0.0,-0.7721,-1.2598,-1.2578,-1.3019,-1.3417,-1.3403,-1.3403,-1.3464,-1.36,-1.3743,-1.3892,-1.4048,-1.4197,-1.4285,-1.4299,-1.4299,-1.4299,-1.4299,-1.4299,-1.4299,-1.4299,-1.4299,-1.4299,-1.4299,-1.4299,-1.4197,-1.4034,-1.3892,-1.3743,-1.3587,-1.3451,-1.3403,-1.3403,-1.3403,-1.4706,-1.6647,-1.9095,-2.12,-2.314,-2.574,-2.6386,-2.64,-2.6466,-2.6881,-2.7375,-2.7669,-2.7949,-2.8217,-2.8537,-2.8831,-2.9125,-2.9419,-2.9713,-2.9913,-2.9913,-2.9913,-2.9913,-2.9913,-2.9913,-2.9913,-2.9913,-2.9913,-2.9913,-2.9913,-2.9913,-2.9913,-2.9913,-2.9913,-2.9913,-2.9913,-2.9913,-2.9927,-2.9967,-3.0207,-3.0394,-3.0448,-3.0702,-3.0982,-3.1276,-3.1249,-3.1196,-3.1129,-3.1129,-3.0862,-3.0354,-3.006,-2.9913,0.4694,0.4519,0.4525,0.4553,0.4646,0.0,0.5074,0.5885,0.64,0.0,0.5072,0.4394,0.2737,0.2704,0.2264,0.0373,-0.0,-0.0,-0.0,-0.0,-0.0,-0.0,-0.0,-0.0,-0.0,-0.4685,-0.7746,-0.7637,-1.1167,-1.3275,-1.3397,-1.3403,-1.3417,-1.3444,-1.3593,-1.3743,-1.3885,-1.4041,-1.4177,-1.4299,-1.4299,-1.4299,-1.4299,-1.4299,-1.4299,-1.4299,-1.4299,-1.4299,-1.4299,-1.4299,-1.4136,-1.3885,-1.3851,-1.3682,-1.3444,-1.341,-1.3403,-1.3403,-1.3403,-1.3728,-1.4706,-1.8607,-2.0231,-2.12,-2.5251,-2.6386,-2.6493,-2.6961,-2.7348,-2.7682,-2.7976,-2.8096,-2.8217,-2.8537,-2.8831,-2.9125,-2.9419,-2.9713,-2.9913,-2.9913,-2.9913,-2.9913,-2.9913,-2.9913,-2.9913,-2.9913,-2.9913,-2.9913,-2.9913,-2.9913,-2.9913,-2.9913,-2.9913,-2.9913,-2.9913,-2.9913,-3.002,-3.0261,-3.0327,-3.0568,-3.1036,-3.1116,-3.1276,-3.1583,-3.1343,-3.0996,-3.0528,-3.0528,-3.0474,-3.0354,-3.006,-2.9913,0.504,0.4687,0.4579,0.4579,0.4633,0.0,0.0,0.5348,0.5689,0.4855,0.5196,0.5401,0.4579,0.4747,0.4634,0.3564,0.1509,-0.0,-0.0,-0.0,-0.0,-0.0,-0.0,-0.0,-0.0,-0.1917,-0.4971,-0.9083,-1.1739,-1.3146,-1.3281,-1.3288,-1.3322,-1.3397,-1.3553,-1.3695,-1.3838,-1.3994,-1.415,-1.4299,-1.4299,-1.4299,-1.4299,-1.4299,-1.4299,-1.4299,-1.4299,-1.4299,-1.4292,-1.4217,-1.4048,-1.3838,-1.3838,-1.3661,-1.3403,-1.3403,-1.3403,-1.3403,-1.3403,-1.4871,-1.6983,-1.9258,-2.1362,-2.3632,-2.574,-2.6493,-2.6694,-2.7148,-2.7468,-2.7762,-2.807,-2.8136,-2.8257,-2.8711,-2.8938,-2.9165,-2.9606,-2.982,-2.9913,-2.9913,-2.9913,-2.9913,-2.9913,-2.9913,-2.9913,-2.9913,-2.9913,-2.9913,-2.9913,-2.9913,-2.9913,-2.9913,-2.9913,-2.9913,-2.9913,-2.9913,-3.0047,-3.0341,-3.0501,-3.0768,-3.1209,-3.137,-3.145,-3.145,-3.1156,-3.0795,-3.0354,-3.0207,-3.014,-3.014,-2.998,-2.9913,0.5481,0.4999,0.4775,0.4775,0.4735,0.4702,0.0,0.0,0.0,0.5285,0.5313,0.5417,0.5718,0.6017,0.6276,0.6495,0.3619,0.0984,0.0114,-0.0,-0.0,-0.0,-0.0,-0.0,-0.0,-0.0,-0.2845,-0.9572,-1.1874,-1.304,-1.3207,-1.3193,-1.3241,-1.3397,-1.3519,-1.3654,-1.3797,-1.3953,-1.4102,-1.4258,-1.4285,-1.4299,-1.4299,-1.4299,-1.4299,-1.4299,-1.4299,-1.4285,-1.4245,-1.4122,-1.3966,-1.3797,-1.3797,-1.3634,-1.3403,-1.3403,-1.3403,-1.3403,-1.3403,-1.6008,-1.9258,-1.9745,-2.282,-2.64,-2.6453,-2.668,-2.6974,-2.7268,-2.7562,-2.7843,-2.8083,-2.819,-2.8364,-2.8911,-2.9085,-2.9272,-2.9806,-2.9913,-2.9913,-2.9913,-2.9913,-2.9913,-2.9913,-2.9913,-2.9913,-2.9913,-2.9913,-2.9913,-2.9913,-2.9913,-2.9913,-2.9913,-2.9913,-2.9913,-2.9913,-2.9913,-3.0074,-3.0421,-3.0662,-3.0942,-3.1289,-3.149,-3.145,-3.1142,-3.0862,-3.0568,-3.0274,-3.0034,-2.9913,-2.9913,-2.9913,-2.9913,0.5996,0.5311,0.5081,0.5081,0.4884,0.4755,0.4807,0.0,0.4781,0.49,0.0,0.5192,0.5409,0.0,0.0,0.5803,0.5852,0.4526,0.0559,-0.0,-0.0,-0.0,-0.0,-0.0,-0.0,-0.0,-0.0448,-0.1289,-0.8403,-1.274,-1.3025,-1.3097,-1.3241,-1.3397,-1.3417,-1.3498,-1.3654,-1.3797,-1.3946,-1.4102,-1.4238,-1.4299,-1.4299,-1.4299,-1.4299,-1.4299,-1.4299,-1.4224,-1.4095,-1.4082,-1.3905,-1.3654,-1.3654,-1.3553,-1.3403,-1.3403,-1.3403,-1.3403,-1.3403,-1.5028,-1.7302,-1.9258,-2.282,-2.644,-2.6694,-2.6987,-2.7281,-2.7562,-2.7856,-2.8096,-2.8136,-2.835,-2.8631,-2.8965,-2.9245,-2.9526,-2.9847,-2.9913,-2.9913,-2.9913,-2.9913,-2.9913,-2.9913,-2.9913,-2.9913,-2.9913,-2.9913,-2.9913,-2.9913,-2.9913,-2.9913,-2.9913,-2.9913,-2.9913,-2.9913,-2.9913,-3.0154,-3.0715,-3.0768,-3.1036,-3.1597,-3.1396,-3.1142,-3.0849,-3.0555,-3.0261,-2.9967,-2.9927,-2.9913,-2.9913,-2.9913,-2.9913,0.6559,0.6268,0.6152,0.5549,0.5562,0.5562,0.4931,0.4735,0.4707,0.4775,0.0,0.0,0.0,0.0,0.0,0.0,0.5689,0.4935,0.217,0.0,-0.0,0.0,0.0,0.0,-0.0,-0.0,-0.0,-0.0,-0.5468,-1.0068,-1.2546,-1.2889,-1.3119,-1.3261,-1.3356,-1.3471,-1.3627,-1.377,-1.3919,-1.4075,-1.4224,-1.4299,-1.4299,-1.4299,-1.4299,-1.4299,-1.4299,-1.4211,-1.4061,-1.3973,-1.3817,-1.362,-1.3532,-1.3458,-1.3403,-1.3403,-1.3403,-1.3562,-1.4863,-1.6656,-1.9085,-2.2499,-2.5034,-2.6667,-2.6787,-2.7148,-2.7549,-2.7669,-2.7909,-2.819,-2.8364,-2.8511,-2.8724,-2.9192,-2.9392,-2.9566,-2.986,-2.9913,-2.9913,-2.9913,-2.9913,-2.9913,-2.9913,-2.9913,-2.9913,-2.9913,-2.9913,-2.9913,-2.9913,-2.9913,-2.9913,-2.9913,-2.9913,-2.9913,-2.9913,-2.9913,-3.01,-3.0515,-3.0702,-3.0982,-3.1396,-3.1129,-3.0835,-3.0541,-3.0421,-3.0207,-2.9913,-3.0087,-3.0181,-3.0167,-2.9993,-3.0794,0.7326,0.7163,0.7027,0.6023,0.603,0.6051,0.5142,0.487,0.4809,0.4809,0.4748,0.0,0.0,0.0,0.5006,0.5006,0.0,0.4715,0.3099,0.1215,0.0,0.0,0.0,0.0,0.0,-0.0,-0.0,-0.0,-0.3886,-0.8067,-1.2357,-1.2762,-1.3024,-1.3166,-1.3322,-1.3451,-1.3566,-1.3709,-1.3858,-1.4007,-1.4163,-1.4258,-1.4299,-1.4299,-1.4299,-1.4299,-1.4299,-1.419,-1.4,-1.3885,-1.3736,-1.3553,-1.3444,-1.3403,-1.3403,-1.3403,-1.3403,-1.3728,-1.5835,-1.8435,-2.1362,-2.5251,-2.6587,-2.6841,-2.6921,-2.7295,-2.7722,-2.7802,-2.7976,-2.8217,-2.8524,-2.8671,-2.8858,-2.9366,-2.9539,-2.9659,-2.9873,-2.9913,-2.9913,-2.9913,-2.9913,-2.9913,-2.9913,-2.9913,-2.9913,-2.9913,-2.9913,-2.9913,-2.9913,-2.9913,-2.9913,-2.9913,-2.9913,-2.9913,-2.9913,-2.9913,-3.0047,-3.0341,-3.0488,-3.0715,-3.1089,-3.0755,-3.0488,-3.0368,-3.0274,-3.0127,-2.9913,-3.014,-3.0637,-3.1416,-3.1277,-3.2318,0.8397,0.7794,0.7366,0.6464,0.603,0.5779,0.5603,0.5332,0.5114,0.5114,0.4891,0.4735,0.4891,0.4802,0.4707,0.4707,0.4743,0.0,0.0,0.0,0.0,0.0,0.0,0.0,0.0,-0.0,-0.0,0.0,-0.3907,-0.8131,-1.2327,-1.2822,-1.3024,-1.3166,-1.3322,-1.3403,-1.341,-1.3559,-1.3709,-1.3851,-1.4007,-1.4156,-1.4299,-1.4299,-1.4299,-1.4299,-1.4299,-1.4129,-1.3844,-1.3844,-1.3668,-1.341,-1.3403,-1.3403,-1.3403,-1.3403,-1.3403,-1.3728,-1.5835,-1.941,-2.33,-2.574,-2.6587,-2.6881,-2.7161,-2.7455,-2.7762,-2.8043,-2.8136,-2.8217,-2.8524,-2.8818,-2.9098,-2.9406,-2.97,-2.99,-2.9913,-2.9913,-2.9913,-2.9913,-2.9913,-2.9913,-2.9913,-2.9913,-2.9913,-2.9913,-2.9913,-2.9913,-2.9913,-2.9913,-2.9913,-2.9913,-2.9913,-2.9913,-2.9913,-2.9913,-3.0047,-3.0341,-3.01,-3.0207,-3.0782,-3.0247,-3.0074,-3.0354,-3.0074,-2.9927,-2.9913,-2.9927,-3.1304,-3.3695,-3.4187,-3.4337,0.9218,0.9367,0.9279,0.7685,0.7658,0.7645,0.6207,0.5718,0.5549,0.5454,0.5196,0.4999,0.5047,0.4857,0.4694,0.4694,0.466,0.4384,0.0,0.0,0.0,0.0,0.0,0.0,0.0,0.0,0.0,0.0,-0.1348,0.0,-1.2396,-1.2702,-1.2782,-1.3166,-1.322,-1.3302,-1.3397,-1.3553,-1.3702,-1.3844,-1.3994,-1.415,-1.4299,-1.4299,-1.4299,-1.4292,-1.419,-1.4034,-1.3831,-1.3743,-1.358,-1.3403,-1.3403,-1.3403,-1.3403,-1.3403,-1.3403,-1.3887,-1.7465,-2.1684,-2.5448,-2.6281,-2.6881,-2.7175,-2.7468,-2.7762,-2.8016,-2.811,-2.8136,-2.8257,-2.8764,-2.8965,-2.9165,-2.9659,-2.9847,-2.9913,-2.9913,-2.9913,-2.9913,-2.9913,-2.9913,-2.9913,-2.9913,-2.9913,-2.9913,-2.9913,-2.9913,-2.9913,-2.9913,-2.9913,-2.9913,-2.9913,-2.9913,-2.9833,-2.9646,-2.9272,-2.9179,-2.9472,-2.9392,-2.9513,-2.9913,-2.9927,-2.9967,-3.006,-2.9967,-2.9913,-2.9913,-3.0114,-3.1485,-3.3873,-3.5801,-3.7548,1.0093,1.0358,1.0344,0.8764,0.8804,0.8811,0.7197,0.6668,0.6425,0.607,0.5663,0.5287,0.5212,0.5036,0.4829,0.4748,0.4648,0.4369,0.0,0.1538,0.0,0.0,0.0,0.0,0.0,0.0,0.0,0.0,0.0,0.0,0.0,-1.1823,-1.2688,-1.301,-1.3119,-1.322,-1.3315,-1.3471,-1.3648,-1.3844,-1.3939,-1.4102,-1.4299,-1.4299,-1.4299,-1.4292,-1.4197,-1.4034,-1.3831,-1.3743,-1.3587,-1.3403,-1.3403,-1.3403,-1.3403,-1.3403,-1.4383,-1.6172,-1.9745,-2.346,-2.644,-2.6734,-2.7028,-2.7321,-2.7615,-2.7909,-2.8163,-2.8283,-2.831,-2.8444,-2.9045,-2.9205,-2.9325,-2.9806,-2.9913,-2.9913,-2.9913,-2.9913,-2.9913,-2.9913,-2.9833,-2.9766,-2.9766,-2.9673,-2.9673,-2.9887,-2.9913,-2.9913,-2.9913,-2.982,-2.9766,-2.9766,-2.9673,-2.9486,-2.9192,-2.8631,-2.8497,-2.9005,-2.8845,-2.8991,-2.9619,-2.9713,-2.9806,-2.9913,-2.9913,-2.9913,-2.9913,-3.0987,-3.2312,-3.3709,-3.7233,-3.9617]},{"header":{"parameterUnit":"m.s-1","parameterCategory":1,"la1":30.6,"la2":29.2853,"lo1":-89.7004,"lo2":-87.6739,"dx":0.0162,"dy":0.0183,"nx":112,"ny":82,"refTime":"2022-12-10T18:00:00:Z","depth":0,"parameterNumber":3,"parameterNumberName":"V-component_of_WINDS"},"data":[0.0,0.0,0.0,0.0,0.0,0.0,0.0,0.0,0.0,0.0,0.0,0.0,0.0,0.0,0.0,0.0,0.0,0.0,0.0,0.0,0.0,0.0,0.0,0.0,0.0,0.0,0.0,0.0,0.0,0.0,0.0,0.0,0.0,0.0,0.0,0.0,0.0,0.0,0.0,0.0,0.0,0.0,0.0,0.0,0.0,0.0,0.0,0.0,0.0,0.0,0.0,0.0,0.0,0.0,0.0,0.0,0.0,0.0,0.0,0.0,0.0,0.0,0.0,0.0,0.0,0.0,0.0,0.0,0.0,0.0,0.0,0.0,0.0,0.0,0.0,0.0,0.0,0.0,0.0,0.0,0.0,0.0,0.0,0.0,0.0,0.0,0.0,0.0,0.0,0.0,-3.3739,-3.6413,-4.2323,-4.581,-4.5149,-4.4232,-4.0855,-3.4211,0.0,0.0,0.0,0.0,0.0,0.0,0.0,0.0,0.0,0.0,0.0,0.0,0.0,0.0,0.0,0.0,0.0,0.0,0.0,0.0,0.0,0.0,0.0,0.0,0.0,0.0,0.0,0.0,0.0,0.0,0.0,0.0,0.0,0.0,0.0,0.0,0.0,0.0,0.0,0.0,0.0,0.0,0.0,0.0,0.0,0.0,0.0,0.0,0.0,0.0,0.0,0.0,0.0,0.0,0.0,0.0,0.0,0.0,0.0,0.0,0.0,0.0,0.0,0.0,0.0,0.0,0.0,0.0,0.0,0.0,0.0,0.0,0.0,0.0,0.0,0.0,0.0,0.0,0.0,0.0,0.0,0.0,0.0,0.0,0.0,0.0,0.0,0.0,0.0,0.0,0.0,0.0,0.0,0.0,0.0,0.0,0.0,0.0,0.0,0.0,0.0,0.0,0.0,0.0,-3.595,-4.3422,-4.5847,-4.6874,-4.6764,-4.5369,-4.1442,-3.4247,0.0,0.0,0.0,0.0,0.0,0.0,0.0,0.0,0.0,0.0,0.0,0.0,0.0,0.0,0.0,0.0,0.0,0.0,0.0,0.0,0.0,0.0,0.0,0.0,0.0,0.0,0.0,0.0,0.0,0.0,0.0,0.0,0.0,0.0,0.0,0.0,0.0,0.0,0.0,0.0,0.0,0.0,0.0,0.0,0.0,0.0,0.0,0.0,0.0,0.0,0.0,0.0,0.0,0.0,0.0,0.0,0.0,0.0,0.0,0.0,0.0,0.0,0.0,0.0,0.0,0.0,0.0,0.0,0.0,0.0,0.0,0.0,0.0,0.0,0.0,0.0,0.0,0.0,0.0,0.0,0.0,0.0,0.0,0.0,0.0,0.0,0.0,0.0,0.0,0.0,0.0,0.0,0.0,0.0,0.0,0.0,0.0,0.0,0.0,0.0,0.0,0.0,0.0,-3.3336,-3.7951,-4.5736,-4.7278,-4.7755,-4.7755,-4.6287,-4.2249,-3.4908,-3.2596,0.0,0.0,0.0,0.0,0.0,0.0,0.0,0.0,0.0,0.0,0.0,0.0,0.0,0.0,0.0,0.0,0.0,0.0,0.0,0.0,0.0,0.0,0.0,0.0,0.0,0.0,0.0,0.0,0.0,0.0,0.0,0.0,0.0,0.0,0.0,0.0,0.0,0.0,0.0,0.0,0.0,0.0,0.0,0.0,0.0,0.0,0.0,0.0,0.0,0.0,0.0,0.0,0.0,0.0,0.0,0.0,0.0,0.0,0.0,0.0,0.0,0.0,0.0,0.0,0.0,0.0,0.0,0.0,0.0,0.0,0.0,0.0,0.0,0.0,0.0,0.0,0.0,0.0,0.0,0.0,0.0,0.0,0.0,0.0,0.0,0.0,0.0,0.0,0.0,0.0,0.0,0.0,0.0,0.0,0.0,0.0,0.0,0.0,0.0,0.0,0.0,0.0,-3.7266,-4.1446,-4.7095,-4.8416,-4.882,-4.8636,-4.7278,-4.3204,-3.5467,-3.3853,0.0,0.0,0.0,0.0,0.0,0.0,0.0,0.0,0.0,0.0,0.0,0.0,0.0,0.0,0.0,0.0,0.0,0.0,0.0,0.0,0.0,0.0,0.0,0.0,0.0,0.0,0.0,0.0,0.0,0.0,0.0,0.0,0.0,0.0,0.0,0.0,0.0,0.0,0.0,0.0,0.0,0.0,0.0,0.0,0.0,0.0,0.0,0.0,0.0,0.0,0.0,0.0,0.0,0.0,0.0,0.0,0.0,0.0,0.0,0.0,0.0,0.0,0.0,0.0,0.0,0.0,0.0,0.0,0.0,0.0,0.0,0.0,0.0,0.0,0.0,0.0,0.0,0.0,0.0,0.0,0.0,0.0,0.0,0.0,0.0,0.0,0.0,0.0,0.0,0.0,0.0,0.0,0.0,0.0,0.0,0.0,0.0,0.0,0.0,0.0,0.0,0.0,-4.2469,-4.7977,-4.926,-5.0141,-5.0325,-4.9554,-4.8673,-4.4378,-3.554,-3.4945,0.0,0.0,0.0,0.0,0.0,0.0,0.0,0.0,0.0,0.0,0.0,0.0,0.0,0.0,0.0,0.0,0.0,0.0,0.0,0.0,0.0,0.0,0.0,0.0,0.0,0.0,0.0,0.0,0.0,0.0,0.0,0.0,0.0,0.0,0.0,0.0,0.0,0.0,0.0,0.0,0.0,0.0,0.0,0.0,0.0,0.0,0.0,0.0,0.0,0.0,0.0,0.0,0.0,0.0,0.0,0.0,0.0,0.0,0.0,0.0,0.0,0.0,0.0,0.0,0.0,0.0,0.0,0.0,0.0,0.0,0.0,0.0,0.0,0.0,0.0,0.0,0.0,0.0,0.0,0.0,0.0,0.0,0.0,0.0,0.0,0.0,0.0,0.0,0.0,0.0,0.0,0.0,0.0,0.0,0.0,0.0,0.0,0.0,0.0,0.0,0.0,0.0,-4.1698,-4.6947,-5.0695,-5.0912,-5.0875,-5.1059,-4.9884,-4.5331,-3.6491,0.0,0.0,0.0,0.0,0.0,0.0,0.0,0.0,0.0,0.0,0.0,0.0,0.0,0.0,0.0,0.0,0.0,0.0,0.0,0.0,0.0,0.0,0.0,0.0,0.0,0.0,0.0,0.0,0.0,0.0,0.0,0.0,0.0,0.0,0.0,0.0,0.0,0.0,0.0,0.0,0.0,0.0,0.0,0.0,0.0,0.0,0.0,0.0,0.0,0.0,0.0,0.0,0.0,0.0,0.0,0.0,0.0,0.0,0.0,0.0,0.0,0.0,0.0,0.0,0.0,0.0,0.0,0.0,0.0,0.0,0.0,0.0,0.0,0.0,0.0,0.0,0.0,0.0,0.0,0.0,0.0,0.0,0.0,0.0,0.0,0.0,0.0,0.0,0.0,0.0,0.0,0.0,0.0,0.0,0.0,0.0,0.0,0.0,0.0,0.0,0.0,0.0,-3.6949,-4.2679,-4.8025,-5.2345,-5.2153,-5.189,-5.2186,-5.0848,-4.6102,-3.7044,0.0,0.0,0.0,0.0,0.0,0.0,0.0,0.0,0.0,0.0,0.0,0.0,0.0,0.0,0.0,0.0,0.0,0.0,0.0,0.0,0.0,0.0,0.0,0.0,0.0,0.0,0.0,0.0,0.0,0.0,0.0,0.0,0.0,0.0,0.0,0.0,0.0,0.0,0.0,0.0,0.0,0.0,0.0,0.0,0.0,0.0,0.0,0.0,0.0,0.0,0.0,0.0,0.0,0.0,0.0,0.0,0.0,0.0,0.0,0.0,0.0,0.0,0.0,0.0,0.0,0.0,0.0,0.0,0.0,0.0,0.0,0.0,0.0,0.0,0.0,0.0,0.0,0.0,0.0,0.0,0.0,0.0,0.0,0.0,0.0,0.0,0.0,0.0,0.0,0.0,0.0,0.0,0.0,0.0,0.0,0.0,0.0,0.0,0.0,0.0,0.0,0.0,-3.8593,-4.6467,-5.2666,-5.4327,-5.4118,-5.3534,-5.2823,-5.1562,-4.6728,0.0,0.0,0.0,0.0,0.0,0.0,0.0,0.0,0.0,0.0,0.0,0.0,0.0,0.0,0.0,0.0,0.0,0.0,0.0,0.0,0.0,0.0,0.0,0.0,0.0,0.0,0.0,0.0,0.0,0.0,0.0,0.0,0.0,0.0,0.0,0.0,0.0,0.0,0.0,0.0,0.0,0.0,0.0,0.0,0.0,0.0,0.0,0.0,0.0,0.0,0.0,0.0,0.0,0.0,0.0,0.0,0.0,0.0,0.0,0.0,0.0,0.0,0.0,0.0,0.0,0.0,0.0,0.0,0.0,0.0,0.0,0.0,0.0,0.0,0.0,0.0,0.0,0.0,0.0,0.0,0.0,0.0,0.0,0.0,0.0,0.0,0.0,0.0,0.0,0.0,0.0,0.0,0.0,0.0,0.0,0.0,0.0,0.0,0.0,0.0,0.0,0.0,0.0,-3.8515,-4.6441,-5.2862,-5.5126,-5.5216,-5.5036,-5.4844,-5.3194,-4.8348,-3.9475,0.0,0.0,0.0,0.0,0.0,0.0,0.0,0.0,0.0,0.0,0.0,0.0,0.0,0.0,0.0,0.0,0.0,0.0,0.0,0.0,0.0,0.0,0.0,0.0,0.0,0.0,0.0,0.0,0.0,0.0,0.0,0.0,0.0,0.0,0.0,0.0,0.0,0.0,0.0,0.0,0.0,0.0,0.0,0.0,0.0,0.0,0.0,0.0,0.0,0.0,0.0,0.0,0.0,0.0,0.0,0.0,0.0,0.0,0.0,0.0,0.0,0.0,0.0,0.0,0.0,0.0,0.0,0.0,0.0,0.0,0.0,0.0,0.0,0.0,0.0,0.0,0.0,0.0,0.0,0.0,0.0,0.0,0.0,0.0,0.0,0.0,0.0,0.0,0.0,0.0,0.0,0.0,0.0,0.0,0.0,0.0,0.0,0.0,0.0,0.0,0.0,0.0,-3.9719,-4.7838,-5.4313,-5.6521,-5.6595,-5.6254,-5.5794,-5.419,-4.994,-4.2396,0.0,0.0,0.0,0.0,0.0,0.0,0.0,0.0,0.0,0.0,0.0,0.0,0.0,0.0,0.0,0.0,0.0,0.0,0.0,0.0,0.0,0.0,0.0,0.0,0.0,0.0,0.0,0.0,0.0,0.0,0.0,0.0,0.0,0.0,0.0,0.0,0.0,0.0,0.0,0.0,0.0,0.0,0.0,0.0,0.0,0.0,0.0,0.0,0.0,0.0,0.0,0.0,0.0,0.0,0.0,0.0,0.0,0.0,0.0,0.0,0.0,0.0,0.0,0.0,0.0,0.0,0.0,0.0,0.0,0.0,0.0,0.0,0.0,0.0,0.0,0.0,0.0,0.0,0.0,0.0,0.0,0.0,0.0,0.0,0.0,0.0,0.0,0.0,0.0,0.0,0.0,0.0,0.0,0.0,0.0,0.0,0.0,0.0,0.0,0.0,0.0,0.0,-4.147,-4.9894,-5.6319,-5.8011,-5.7877,-5.7282,-5.6154,-5.479,-5.1525,-4.5745,0.0,0.0,0.0,0.0,0.0,0.0,0.0,0.0,0.0,0.0,0.0,0.0,0.0,0.0,0.0,0.0,0.0,0.0,0.0,0.0,0.0,0.0,0.0,0.0,0.0,0.0,0.0,0.0,0.0,0.0,0.0,0.0,0.0,0.0,0.0,0.0,0.0,0.0,0.0,0.0,0.0,0.0,0.0,0.0,0.0,0.0,0.0,0.0,0.0,0.0,0.0,0.0,0.0,0.0,0.0,0.0,0.0,0.0,0.0,0.0,-3.2759,-2.8051,0.0,0.0,0.0,0.0,0.0,0.0,0.0,0.0,0.0,0.0,0.0,0.0,0.0,0.0,0.0,0.0,0.0,0.0,0.0,0.0,0.0,0.0,0.0,0.0,0.0,0.0,0.0,0.0,0.0,0.0,0.0,0.0,0.0,0.0,0.0,0.0,0.0,0.0,0.0,0.0,-4.0739,-4.951,-5.6088,-5.7165,-5.803,-5.8435,-5.8158,-5.6127,-5.2972,-4.8646,-4.5488,0.0,0.0,0.0,0.0,0.0,0.0,0.0,0.0,0.0,0.0,0.0,0.0,0.0,0.0,0.0,0.0,0.0,0.0,0.0,0.0,0.0,0.0,0.0,0.0,0.0,0.0,0.0,0.0,0.0,0.0,0.0,0.0,0.0,0.0,0.0,0.0,0.0,0.0,0.0,0.0,0.0,0.0,0.0,0.0,0.0,0.0,0.0,0.0,0.0,0.0,0.0,0.0,0.0,0.0,0.0,0.0,0.0,0.0,0.0,-3.5925,-3.3293,0.0,0.0,0.0,0.0,0.0,0.0,0.0,0.0,0.0,0.0,0.0,0.0,0.0,0.0,0.0,0.0,0.0,0.0,0.0,0.0,0.0,0.0,0.0,0.0,0.0,0.0,0.0,0.0,0.0,0.0,0.0,0.0,0.0,0.0,0.0,0.0,0.0,0.0,0.0,0.0,-4.2854,-5.1471,-5.7703,-5.8165,-5.9139,-5.9496,-5.8911,-5.768,-5.5805,-5.3176,-4.9499,0.0,0.0,0.0,0.0,0.0,0.0,0.0,0.0,0.0,0.0,0.0,0.0,0.0,0.0,0.0,0.0,0.0,0.0,0.0,0.0,0.0,0.0,0.0,0.0,0.0,0.0,0.0,0.0,0.0,0.0,0.0,0.0,0.0,0.0,0.0,0.0,0.0,0.0,0.0,0.0,0.0,0.0,0.0,0.0,0.0,0.0,0.0,0.0,0.0,0.0,0.0,0.0,0.0,-3.906,-3.9691,-4.0368,-4.0406,-4.1513,-4.3253,-3.9789,-3.9674,-4.1485,-3.6129,0.0,0.0,0.0,0.0,0.0,0.0,0.0,0.0,0.0,0.0,0.0,0.0,0.0,0.0,0.0,0.0,0.0,0.0,0.0,0.0,0.0,0.0,-4.2701,-4.2701,-4.5547,-4.6817,-4.1739,0.0,0.0,0.0,0.0,0.0,0.0,0.0,0.0,0.0,0.0,0.0,-4.6432,-5.4203,-5.9511,-5.9511,-6.0195,-6.024,-5.9206,-5.893,-5.8334,-5.73,-5.3337,-5.0241,0.0,0.0,0.0,0.0,0.0,0.0,0.0,0.0,0.0,0.0,0.0,0.0,0.0,0.0,0.0,0.0,0.0,0.0,0.0,0.0,0.0,0.0,0.0,0.0,0.0,0.0,0.0,0.0,0.0,0.0,0.0,0.0,-3.107,-3.1288,0.0,0.0,0.0,0.0,0.0,0.0,0.0,0.0,0.0,0.0,0.0,0.0,0.0,-3.6445,-3.6797,-4.0703,-4.2695,-4.2812,-4.6516,-4.8241,-4.8164,-4.8894,-4.9337,-4.949,-4.8952,0.0,-4.189,-4.1767,0.0,0.0,0.0,0.0,0.0,0.0,0.0,0.0,0.0,0.0,0.0,0.0,0.0,0.0,0.0,0.0,0.0,0.0,0.0,0.0,0.0,0.0,-5.1548,-5.1548,-5.2549,-5.3087,-5.1548,-4.5393,-3.9969,-3.9277,-3.9161,-3.8084,0.0,0.0,0.0,0.0,0.0,0.0,-5.0587,-5.6011,-5.9511,-5.9511,-5.992,-6.0122,-5.9951,-5.8925,-5.8245,-5.8065,-5.6401,-5.3596,-4.9394,-4.7634,0.0,0.0,0.0,0.0,0.0,0.0,0.0,0.0,0.0,0.0,0.0,0.0,0.0,0.0,0.0,0.0,0.0,0.0,0.0,0.0,0.0,0.0,0.0,0.0,0.0,0.0,0.0,0.0,0.0,-2.8598,-3.0182,-3.12,-2.9975,-2.8631,0.0,0.0,0.0,0.0,0.0,0.0,0.0,0.0,0.0,-3.9492,-4.0937,-4.2344,-4.3789,-4.6601,-4.8242,-4.875,-5.0547,-5.1815,-5.2578,-5.2897,-5.3203,-5.3472,-5.301,-5.1375,-4.876,-4.5822,-4.2876,-3.9934,0.0,0.0,0.0,0.0,-3.6895,-3.7661,-4.1085,-4.2277,-4.2008,-4.0508,0.0,0.0,0.0,0.0,0.0,0.0,0.0,-4.3162,-4.8355,-5.0741,-5.251,-5.5395,-5.6357,-5.6549,-5.6165,-5.3126,-4.9356,-4.5509,-4.4008,-4.2162,-3.8315,-3.9508,0.0,0.0,0.0,-5.0702,-5.3049,-5.7396,-6.0242,-6.0242,-6.0392,-6.0674,-6.1198,-6.0234,-5.9845,-6.0342,-5.8691,-5.67,-5.4452,-5.1007,-4.685,0.0,0.0,0.0,0.0,0.0,0.0,0.0,0.0,0.0,0.0,0.0,0.0,0.0,0.0,0.0,0.0,0.0,0.0,0.0,0.0,0.0,0.0,0.0,0.0,0.0,0.0,0.0,0.0,-3.0118,-3.1467,-3.2343,-3.2994,-3.2615,0.0,0.0,0.0,0.0,0.0,0.0,-3.9116,-3.9239,-4.0937,-4.4609,-4.6172,-4.7891,-4.9844,-5.1562,-5.2734,-5.3359,-5.3711,-5.4473,-5.5628,-5.5689,-5.5989,-5.6395,-5.5742,-5.5472,-5.5049,-4.9797,-4.7108,-4.6014,-4.294,-4.1174,-4.0449,-4.1336,-4.2002,-4.297,-4.6855,-4.8048,-4.7778,-4.7355,-4.6471,-4.5278,-4.3624,0.0,0.0,0.0,0.0,-4.6701,-5.2626,-5.3395,-5.3664,-5.7665,-5.8627,-5.855,-5.8357,-5.7934,-5.628,-5.1625,-4.9702,-4.7625,-4.3855,-4.5086,0.0,-4.547,-5.001,-5.4164,-5.5895,-5.905,-6.1127,-6.1127,-6.132,-6.1704,-6.2358,-6.182,-6.168,-6.2196,-6.0352,-5.9008,-5.8345,-5.4345,-5.0817,-4.8085,0.0,0.0,0.0,0.0,0.0,0.0,0.0,0.0,0.0,0.0,0.0,0.0,0.0,0.0,0.0,0.0,0.0,0.0,0.0,0.0,0.0,0.0,0.0,0.0,0.0,0.0,0.0,0.0,0.0,-3.7148,-3.914,0.0,0.0,0.0,0.0,-3.8281,-3.8398,-4.0272,-4.4374,-4.4609,-4.6562,-5.082,-5.1836,-5.2383,-5.25,-5.4219,-5.5117,-5.5195,-5.6836,-5.7617,-5.7576,-5.8186,-5.8427,-5.8335,-5.8204,-5.8127,-5.7819,-5.428,-5.0933,-4.7952,-4.7799,-4.5783,-4.3299,-4.657,-4.776,-4.8432,-5.3433,-5.4703,-5.378,-5.2125,-4.8856,-4.6163,-4.924,-4.7932,0.0,0.0,-5.2087,-5.2818,-5.8781,-5.9127,-5.8165,-5.9204,-5.9435,-5.9242,-5.8473,-5.7011,-5.6203,-5.755,-5.7742,-5.6819,-5.4203,0.0,-5.328,-5.478,-5.4664,-5.5895,-5.9973,-6.1396,-6.2012,-6.2012,-6.2704,-6.3205,-6.3243,-6.3205,-6.3015,-6.2612,-6.1359,-6.0039,-5.8756,-5.7248,-5.4349,-4.9861,-4.8751,0.0,0.0,0.0,0.0,0.0,0.0,0.0,0.0,0.0,0.0,0.0,0.0,0.0,0.0,0.0,0.0,0.0,0.0,0.0,0.0,0.0,0.0,0.0,0.0,0.0,0.0,0.0,0.0,-3.7578,-4.0078,0.0,-3.918,-4.0742,-4.2344,-4.3476,-4.5117,-4.7187,-4.9805,-4.9961,-5.1172,-5.3828,-5.4765,-5.5469,-5.6055,-5.7226,-5.7812,-5.7812,-5.8437,-5.8945,-5.9297,-5.9471,-5.9746,-6.0089,-5.9358,-5.9088,-5.8973,-5.778,-5.5895,-5.378,-5.3259,-5.2605,-5.2241,-5.4045,-5.5006,-5.578,-5.8165,-5.8781,-5.8434,-5.7819,-5.6626,-5.5588,-5.6819,-5.6742,-5.6472,-5.7742,-5.7857,-5.8127,-6.0242,-5.9935,-5.9281,-6.0127,-6.0319,-6.0242,-5.9973,-5.9435,-5.9319,-6.0512,-5.8511,-5.6357,-5.5434,-5.6819,-5.755,-5.5934,-5.7319,-5.9281,-6.1358,-6.1897,-6.2281,-6.282,-6.3128,-6.3551,-6.4089,-6.3628,-6.3463,-6.3871,-6.265,-6.1723,-6.1254,-6.0003,-5.8125,-5.5694,-5.4761,-5.1374,0.0,0.0,0.0,0.0,0.0,0.0,0.0,0.0,0.0,0.0,0.0,0.0,0.0,0.0,0.0,0.0,0.0,0.0,0.0,0.0,0.0,0.0,0.0,0.0,0.0,-3.8104,-4.0859,-3.8867,-4.2656,-4.4648,-4.2695,-4.5312,-4.7656,-4.8828,-5.0781,-5.2539,-5.3945,-5.4297,-5.5117,-5.6562,-5.7187,-5.7734,-5.832,-5.918,-5.9609,-5.9609,-5.9883,-6.043,-6.1133,-6.0932,-6.1259,-6.1897,-6.1127,-6.0781,-6.0781,-6.0781,-6.0127,-5.9011,-5.7857,-5.778,-5.8357,-5.8934,-5.9473,-6.005,-6.0935,-6.1589,-6.2012,-6.1743,-6.1627,-6.1627,-6.1627,-6.205,-6.2435,-6.2166,-6.1858,-6.1627,-6.1627,-6.1012,-6.0512,-6.1089,-6.1243,-6.132,-6.1589,-6.1627,-6.182,-6.2397,-5.9973,-5.805,-5.8588,-6.0319,-6.0666,-5.7857,-5.9819,-6.155,-6.1243,-6.2243,-6.3166,-6.3666,-6.4012,-6.4397,-6.4974,-6.3705,-6.3424,-6.4676,-6.2688,-6.1804,-6.2504,-6.0638,-5.9178,-5.8341,-5.7521,-5.4317,-4.8707,0.0,0.0,0.0,0.0,0.0,0.0,0.0,0.0,0.0,0.0,0.0,0.0,0.0,0.0,0.0,0.0,0.0,0.0,0.0,0.0,0.0,0.0,0.0,-3.9034,-4.1012,-4.2383,-4.1601,-4.7383,-5.0469,-4.8047,-5.1562,-5.4023,-5.4101,-5.4883,-5.5742,-5.664,-5.7461,-5.8359,-5.9219,-5.9258,-5.9258,-5.9297,-6.0039,-6.0469,-6.0508,-6.1328,-6.2187,-6.3047,-6.2695,-6.302,-6.3782,-6.3435,-6.332,-6.332,-6.332,-6.3358,-6.3166,-6.1512,-6.0896,-6.0896,-6.0896,-6.0935,-6.1089,-6.1935,-6.3281,-6.4512,-6.3666,-6.3397,-6.3397,-6.3397,-6.3397,-6.3551,-6.4359,-6.4012,-6.3358,-6.3358,-6.2743,-6.2166,-6.2166,-6.2166,-6.2358,-6.3128,-6.332,-6.332,-6.3358,-6.2704,-6.2666,-6.4282,-6.3858,-6.2743,-6.1127,-6.2243,0.0,-5.9973,-6.2589,-6.4628,-6.4589,-6.532,-6.5859,-6.5859,-6.3589,-6.3015,-6.5054,-6.1633,-6.0454,-6.2487,-5.938,-5.7627,-5.755,-5.6657,-5.502,-5.2492,0.0,0.0,0.0,0.0,0.0,0.0,0.0,0.0,0.0,0.0,0.0,0.0,0.0,0.0,0.0,0.0,0.0,0.0,0.0,0.0,0.0,-4.0882,-4.3948,-4.3238,-4.6483,-4.8828,-4.8633,-5.082,-5.2305,-5.2266,-5.332,-5.4805,-5.668,-5.7031,-5.7578,-5.8437,-5.8711,-5.9219,-6.0039,-6.0078,-6.0351,-6.1015,-6.1211,-6.164,-6.2305,-6.2539,-6.3086,-6.3945,-6.374,-6.3698,-6.377,-6.3603,-6.3435,-6.3358,-6.3974,-6.4243,-6.4128,-6.3051,-6.2627,-6.2704,-6.332,-6.3974,-6.4512,-6.4782,-6.5166,-6.5513,-6.5243,-6.5205,-6.5205,-6.5205,-6.5205,-6.5089,-6.4705,-6.4897,-6.5051,-6.4397,-6.4089,-6.3897,-6.3897,-6.3435,-6.3051,-6.3243,-6.332,-6.3512,-6.4128,-6.4051,-6.3858,-6.3705,-6.3474,-6.3128,-6.2666,-6.3012,-6.3281,-6.3205,-6.4551,-6.5051,-6.3782,-6.4436,-6.4974,-6.4974,-6.3942,-6.4352,-6.6777,-6.5537,-6.4971,-6.5567,-6.4099,-6.2548,-6.0981,-5.8368,-5.6354,0.0,0.0,0.0,0.0,0.0,0.0,0.0,0.0,0.0,0.0,0.0,0.0,0.0,0.0,0.0,0.0,0.0,0.0,0.0,0.0,0.0,0.0,-4.5023,-4.8145,-4.9607,-5.1042,-5.2226,-5.2969,-5.3789,-5.4687,-5.5547,-5.5976,-5.6797,-5.832,-5.875,-5.918,-5.9687,-6.0039,-6.0469,-6.0937,-6.0937,-6.1367,-6.2226,-6.2226,-6.2695,-6.3555,-6.3555,-6.3984,-6.4844,-6.4687,-6.476,-6.494,-6.4723,-6.4628,-6.4628,-6.5051,-6.5282,-6.5282,0.0,0.0,0.0,0.0,-6.5474,-6.5897,-6.5897,-6.5897,-6.5897,-6.5897,-6.5897,-6.5974,-6.6282,-6.6397,-6.6359,-6.6244,-6.6551,-6.6744,-6.5859,-6.5667,-6.5667,-6.5667,-6.5013,-6.4474,-6.482,-6.4628,-6.4628,-6.5474,-6.5667,0.0,-6.5474,-6.5128,-6.4551,-6.3474,-6.4512,-6.5243,-6.4666,-6.5974,-6.6551,-6.5551,-6.5663,-6.5848,-6.5848,-6.4388,0.0,0.0,0.0,-6.4874,-6.4874,-6.4387,0.0,0.0,0.0,-5.8868,-5.891,-5.7687,0.0,0.0,-5.1417,-5.0454,0.0,0.0,0.0,0.0,0.0,0.0,0.0,0.0,0.0,0.0,0.0,0.0,0.0,0.0,0.0,0.0,-4.9556,-5.3078,-5.6171,-5.4765,-5.4023,-5.5547,-5.6406,-5.7226,-5.8086,-5.8867,-5.9375,-5.9453,-6.0156,-6.0547,-6.0547,-6.1289,0.0,0.0,0.0,-6.2265,-6.3125,-6.3164,-6.3594,-6.4453,-6.4453,-6.4883,-6.5742,-6.5547,-6.5898,-6.6561,-6.6281,-6.6269,-6.6384,-6.6227,-6.6251,-6.6367,-6.6038,-6.5897,-6.5897,-6.5897,-6.5897,-6.5897,-6.5897,0.0,0.0,-6.6051,-6.609,-6.632,-6.7013,-6.7244,-6.7398,-6.8167,-6.8475,-6.8359,-6.759,-6.7398,-6.7359,-6.7282,-6.6628,-6.6244,-6.6936,-6.6551,-6.6282,-6.709,-6.7244,-6.7475,-6.8282,-6.7744,-6.6474,-6.4243,-6.6474,-6.759,-6.532,-6.709,-6.8436,-6.8167,-6.7782,0.0,-6.7566,-6.5002,-6.4445,-6.6934,-6.4395,-6.2843,-6.2843,-6.2843,-6.2509,-6.1767,-6.1767,-6.2281,-6.3356,-6.3356,-6.3356,-6.3172,-5.5881,-5.4293,0.0,0.0,0.0,0.0,0.0,0.0,0.0,0.0,0.0,0.0,0.0,0.0,0.0,0.0,0.0,-4.7795,-5.2312,-5.5817,-5.6523,-5.7383,-5.8086,-5.8398,-5.8594,-5.9023,-5.9844,-6.0078,-6.0469,-6.1172,-6.1367,-6.1445,-6.1445,-6.1601,-6.2031,-6.2734,-6.2734,-6.3164,-6.4023,-6.4062,-6.4492,-6.5351,-6.5351,0.0,-6.664,-6.6601,-6.6601,-6.66,-6.6531,-6.6461,-6.6409,-6.6376,-6.6353,-6.6361,-6.6151,-6.5974,-6.5897,-6.5897,-6.5897,-6.5897,-6.5897,-6.632,-6.6859,-6.6859,-6.7321,-6.7936,-6.809,-6.8167,0.0,-6.8359,-6.8898,-6.9398,-6.9244,-6.9206,-6.9013,-6.8321,-6.7475,-6.6898,-6.7051,-6.6974,-6.7128,-6.7975,-6.8167,-6.8205,-6.8359,-6.8282,-6.7975,-6.7513,-6.7975,-6.8244,-6.7744,-6.8706,-6.8667,-6.659,-6.6884,-6.7215,-6.7215,-6.6261,-6.6552,-6.8671,-6.7476,-6.6633,-6.6633,-6.6633,-6.6559,-6.6412,-6.6412,-6.6507,-6.6733,-6.6733,-6.6733,-6.6623,-6.25,-6.0945,0.0,0.0,0.0,0.0,0.0,0.0,0.0,0.0,0.0,0.0,0.0,-4.0331,-4.3789,0.0,-4.8782,-5.1823,-5.4658,-5.6953,-5.8203,-5.9219,-5.9805,-5.9805,-5.9805,-6.0117,-6.0976,-6.1055,-6.1211,-6.168,-6.1719,-6.1875,-6.2344,-6.2344,-6.2734,-6.3633,-6.3633,-6.4062,-6.4922,-6.4961,-6.539,-6.625,-6.625,-6.6484,-6.6914,-6.6914,-6.6836,-6.6757,-6.6633,-6.6859,-6.7345,-6.7759,-6.7878,-6.7775,-6.7596,-6.7145,-6.6705,-6.7154,-6.7244,-6.7167,-6.7167,-6.7398,-6.7744,-6.7744,-6.8052,-6.8475,-6.8936,-6.9052,-6.9129,-6.9552,-6.9975,-7.0283,-7.0283,-7.0629,-7.0821,-7.0398,-6.9629,-6.9013,-6.9013,-6.8321,-6.8013,-6.8898,-6.9052,-6.9167,-6.959,-6.9667,-6.9513,-6.9129,-6.9398,-6.9667,-6.9667,-7.0014,-6.9821,-6.8552,-6.8925,-6.9138,-6.8836,-6.8445,-6.8638,-6.9629,-6.9199,-6.8898,-6.8898,-6.8898,-6.8898,-6.8898,-6.8898,-6.8898,-6.8898,-6.8898,-6.8898,-6.8862,-6.721,-6.6035,0.0,0.0,0.0,0.0,0.0,0.0,0.0,-3.6276,-3.7815,-4.1893,-4.2854,-4.4333,-4.8911,-4.9912,-5.1485,-5.586,-5.6892,-5.7867,-5.9921,-6.0469,-6.0664,-6.0664,-6.0664,-6.0937,-6.164,-6.1719,-6.1758,-6.1953,-6.1953,-6.2344,-6.3203,-6.3242,-6.3633,-6.4531,-6.4531,-6.4961,-6.5859,-6.5859,-6.6211,-6.6914,-6.6914,-6.6914,-6.6914,-6.707,-6.7148,-6.7148,-6.7148,-6.7641,-6.849,-6.9202,-6.9411,-6.9245,-6.9196,-6.8702,-6.8013,-6.8462,-6.8513,-6.8398,-6.8398,-6.8513,-6.8667,-6.8667,-6.8783,-6.9013,-6.9706,-6.9937,-7.0052,-7.0706,-7.1014,-7.1168,-7.1168,-7.1783,-7.2399,-7.2245,-7.1514,-7.0898,-7.0898,-6.9706,-6.8898,-6.9783,-6.9937,-7.0206,-7.1014,-7.1168,-7.086,-7.0052,-7.0629,-7.1168,-7.1168,-7.1283,-7.1398,-7.1398,-7.1542,-7.1368,-7.0784,-7.0413,-7.0256,-7.0256,-7.0128,-7.011,-7.011,-7.0257,-7.033,-7.033,-7.0477,-7.055,-7.055,-7.055,-7.055,-7.055,-7.055,-6.9706,-3.0391,-3.1836,-3.4814,-3.6815,-3.8469,-4.0854,0.0,-4.5932,-4.6471,-4.9933,-5.1241,-5.2395,-5.4493,-5.557,-5.6652,-5.8004,-5.9125,-5.9879,-6.0149,-6.0976,-6.1562,-6.1562,-6.1562,-6.1601,-6.168,-6.1719,-6.2031,-6.2812,-6.2851,-6.3242,-6.4101,-6.414,-6.4531,-6.543,-6.5469,-6.5859,-6.6758,-6.6758,-6.6797,-6.6914,-6.6914,-6.6914,-6.6914,-6.7695,-6.8047,-6.8086,-6.8867,-6.9217,-6.9286,-6.9449,-6.9489,-6.9518,-7.0099,-7.0144,-6.9756,-6.8783,-6.8436,-6.8398,-6.8398,-6.8898,-6.9552,-6.9552,-7.0052,-7.0629,-7.0744,-7.0783,-7.0783,-7.086,-7.1475,-7.2052,-7.2052,-7.2706,-7.3168,-7.236,-7.1514,-7.0898,-7.0898,-7.0206,-6.9783,-7.0591,-7.0783,-7.1052,-7.1898,-7.2052,-7.1745,-7.0898,-7.1514,-7.2052,-7.2052,-7.2745,-7.3206,-7.3206,-7.2767,-7.2243,-7.1652,-7.1098,-7.0822,-7.0822,-7.0327,-7.011,-7.011,-7.0807,-7.1174,-7.1174,-7.1872,-7.2239,-7.2239,-7.2239,-7.2239,-7.2239,-7.2239,-7.1358,-3.8744,-3.8415,-3.8584,-4.1662,-4.3316,-4.4893,-4.7509,-4.8625,-5.0202,-5.4087,-5.5164,-5.578,-5.6973,-5.755,-5.811,-5.8957,-5.955,-6.0172,-6.0776,-6.1274,-6.1797,-6.2383,-6.2461,-6.2461,-6.2461,-6.2461,-6.2812,-6.3672,-6.375,-6.414,-6.5,-6.5078,-6.5469,-6.6328,-6.6367,-6.6523,-6.6914,-6.6914,-6.6914,-6.6914,-6.7422,-6.789,-6.8398,-6.9258,-6.9922,-7.0469,-7.1328,-7.1719,-7.168,-7.1719,-7.1719,-7.1675,-7.1319,-7.1091,-7.086,-7.0244,-6.9975,-6.986,-6.986,-7.009,-7.0398,-7.0398,-7.0629,-7.0975,-7.1514,-7.1668,-7.1745,-7.2283,-7.2668,-7.2976,-7.2976,-7.3591,-7.413,-7.3745,-7.3399,-7.2976,-7.2514,-7.1745,-7.1245,-7.1591,-7.1668,-7.1937,-7.2822,-7.2976,-7.2822,-7.2476,-7.2706,-7.2976,-7.2976,-7.2962,-7.3051,-7.319,-7.2687,-7.2402,-7.266,-7.2132,-7.1837,-7.1837,-7.1637,-7.1505,-7.1505,-7.1835,-7.2018,-7.2018,-7.2349,-7.2496,-7.2496,-7.2496,-7.2496,-7.2496,-7.2496,-7.2129,-4.3265,-4.3047,-4.2662,-4.5855,-4.8009,-4.9548,-5.0356,-5.1702,-5.3664,-5.6742,-5.755,-5.7857,-5.8511,-5.8819,-5.9165,-5.9742,-6.0035,-6.0475,-6.1446,-6.1726,-6.2226,-6.3203,-6.3359,-6.3437,-6.3672,-6.3515,-6.3711,-6.4609,-6.4648,-6.5039,-6.5898,-6.5976,-6.625,-6.6875,-6.6914,-6.6914,-6.6914,-6.7383,-6.7617,-6.7617,-6.8711,-6.9531,-7.0156,-7.1015,-7.1875,-7.2734,-7.3398,-7.3672,-7.3633,-7.3398,-7.3267,-7.3094,-7.2076,-7.1698,-7.1745,-7.1552,-7.1206,-7.0898,-7.0898,-7.1052,-7.1245,-7.1245,-7.1437,-7.1745,-7.236,-7.2552,-7.2706,-7.3322,-7.3668,-7.3822,-7.3822,-7.4437,-7.5053,-7.5053,-7.4861,-7.4553,-7.3976,-7.3168,-7.2552,-7.2552,-7.2552,-7.2822,-7.3668,-7.3822,-7.3899,-7.4168,-7.4043,-7.3837,-7.3645,-7.3292,-7.3077,-7.3093,-7.2705,-7.2657,-7.3097,-7.2761,-7.2496,-7.2496,-7.2496,-7.2496,-7.2496,-7.2496,-7.2496,-7.2496,-7.2496,-7.2496,-7.2496,-7.2496,-7.2496,-7.2496,-7.2496,-7.2606,-3.9884,-4.3008,-4.6047,-4.8625,-5.2395,-5.5665,-5.6511,-5.7434,-5.8127,-5.8242,-5.8896,-5.9435,-5.9473,-6.0165,-6.0742,-6.0742,-6.0858,-6.1266,-6.2151,-6.2572,-6.3086,-6.3945,-6.418,-6.4609,-6.543,-6.4765,-6.4609,-6.5508,-6.5547,-6.5937,-6.6797,-6.6875,-6.6875,-6.6914,-6.6914,-6.6914,-6.6914,-6.8594,-6.9375,-6.9336,-7.1055,-7.1914,-7.1953,-7.2812,-7.3711,-7.4531,-7.4531,-7.457,-7.4492,-7.3633,-7.3202,-7.2932,-7.1896,-7.1881,-7.2437,-7.2245,-7.1629,-7.0898,-7.0898,-7.1437,-7.2168,-7.2168,-7.2745,-7.3437,-7.3437,-7.3476,-7.3476,-7.3514,-7.4053,-7.4668,-7.4668,-7.5322,-7.5976,-7.5976,-7.5322,-7.4707,-7.4668,-7.4053,-7.3476,-7.3476,-7.3476,-7.3707,-7.4514,-7.4668,-7.4938,-7.5784,-7.5441,-7.4783,-7.402,-7.4101,-7.4041,-7.3454,-7.3354,-7.3135,-7.2573,-7.2496,-7.2496,-7.2496,-7.2496,-7.2496,-7.2496,-7.2496,-7.2496,-7.2496,-7.2496,-7.2496,-7.2496,-7.2496,-7.2496,-7.2496,-7.2496,-7.2936,-4.4495,-4.724,-4.9856,-5.351,-5.5511,-5.678,-5.7665,-5.8511,-5.9281,-5.9858,-5.8819,-5.7819,-5.7819,-5.8088,-5.8473,-5.905,-6.0589,-6.2074,-6.3036,-6.3265,-6.3741,-6.4763,-6.4922,-6.5351,-6.6367,-6.5664,-6.5508,-6.6406,-6.6445,-6.6601,-6.6875,-6.6914,-6.6914,-6.6914,-6.6914,-6.7422,-6.8555,-6.918,-7.0039,-7.1133,-7.289,-7.4023,-7.4609,-7.5508,-7.6055,-7.6328,-7.6328,-7.6328,-7.625,-7.539,-7.4895,-7.462,-7.3716,-7.3356,-7.3322,-7.3245,-7.2976,-7.2629,-7.2629,-7.2822,-7.3053,-7.3053,-7.3245,-7.3591,-7.413,-7.4322,-7.4437,-7.5014,-7.5361,-7.5553,-7.5553,-7.5784,-7.613,-7.6746,-7.663,-7.6284,-7.5707,-7.5361,-7.4976,-7.4399,-7.4322,-7.4591,-7.5438,-7.5553,-7.5668,-7.5976,-7.5818,-7.5336,-7.429,-7.4233,-7.4072,-7.3492,-7.3013,-7.2742,-7.2496,-7.2496,-7.2496,-7.2496,-7.2496,-7.2496,-7.2496,-7.2496,-7.2496,-7.2496,-7.2496,-7.2496,-7.2496,-7.2496,-7.2789,-7.3303,-7.3303,-7.3744,-4.8087,-5.051,-5.2549,-5.6472,-5.7665,-5.8127,-5.8973,-5.9358,-5.9665,-6.0204,-5.8088,-5.6165,-5.6472,-5.678,-5.6896,-5.6549,-5.8896,-6.105,-6.1997,-6.218,-6.3068,-6.5338,-6.568,-6.6055,-6.6719,-6.6367,-6.6289,-6.6875,-6.6914,-6.6914,-6.6914,-6.6914,-6.7187,-6.7773,-6.7812,-6.8633,-7.0312,-7.0976,-7.2187,-7.3867,-7.5,-7.582,-7.6367,-7.6953,-7.7187,-7.7226,-7.7539,-7.7656,-7.7616,-7.6942,-7.6404,-7.5862,-7.4945,-7.437,-7.4091,-7.4091,-7.4207,-7.4322,-7.3707,-7.3707,-7.3937,-7.3937,-7.413,-7.4476,-7.5014,-7.5168,-7.5284,-7.5822,-7.6015,-7.6053,-7.6361,-7.6476,-7.6669,-7.7515,-7.7515,-7.713,-7.6592,-7.6207,-7.5822,-7.5284,-7.5168,-7.5361,-7.5899,-7.6015,-7.5848,-7.5451,-7.5551,-7.5344,-7.4422,-7.3934,-7.3492,-7.3119,-7.2705,-7.2496,-7.2496,-7.2496,-7.2496,-7.2496,-7.2496,-7.2496,-7.2496,-7.2496,-7.2496,-7.2496,-7.2789,-7.2936,-7.2936,-7.323,-7.3634,-7.4147,-7.4147,-7.4551,-5.051,-5.2779,-5.4318,-5.7627,-5.9011,-5.9781,-6.055,-6.0127,-5.9511,-5.9281,-5.6626,-5.4549,-5.5126,-5.6088,-5.6049,-5.3664,-5.628,-5.8896,-5.9704,-5.9979,-6.1607,-6.5628,-6.6368,-6.6561,-6.6601,-6.6758,-6.6875,-6.6914,-6.6914,-6.6914,-6.6914,-6.6992,-6.7773,-6.9336,-6.9531,-7.043,-7.2109,-7.3867,-7.5547,-7.7187,-7.7187,-7.7187,-7.7187,-7.7265,-7.7265,-7.7305,-7.8164,-7.8555,-7.8552,-7.827,-7.7562,-7.6544,-7.553,-7.4985,-7.4784,-7.4784,-7.5284,-7.5784,-7.4168,-7.413,-7.4784,-7.4784,-7.5322,-7.6015,-7.6015,-7.6015,-7.6015,-7.6053,-7.6053,-7.6284,-7.713,-7.7361,-7.7553,-7.8361,-7.7938,-7.7361,-7.7361,-7.6669,-7.6053,-7.6015,-7.6015,-7.6015,-7.6015,-7.6015,-7.5622,-7.4506,-7.4749,-7.4828,-7.4336,-7.3275,-7.2553,-7.2553,-7.2496,-7.2496,-7.2496,-7.2496,-7.2496,-7.2496,-7.2496,-7.2496,-7.2496,-7.2532,-7.2569,-7.2569,-7.334,-7.3744,-7.3744,-7.4551,-7.4918,-7.4955,-7.4955,-7.5395,-5.3241,-5.5818,-5.8242,-5.9781,-6.0319,-6.0358,-5.9935,-6.0165,-5.9588,-5.6434,-5.4049,-5.1856,-4.9586,-5.1895,-5.4164,-5.4164,-5.9127,-6.3281,-6.4166,-6.4295,-6.4757,-6.5936,-6.6179,-6.6334,-6.6599,-6.664,-6.6758,-6.6875,-6.6914,-6.6914,-6.6914,-6.8086,-6.8945,-6.9375,-7.0664,-7.2187,-7.3906,-7.5664,-7.6758,-7.7187,-7.7187,-7.7187,-7.7226,-7.7851,-7.8164,-7.8203,-7.9023,-7.9375,-7.9372,-7.916,-7.8489,-7.7537,-7.7073,-7.6438,-7.5668,-7.5668,-7.5822,-7.5938,-7.5515,-7.5515,-7.5668,-7.5668,-7.5822,-7.6015,-7.6015,-7.6015,-7.613,-7.6784,-7.6976,-7.7169,-7.7977,-7.8169,-7.84,-7.9285,-7.8823,-7.8169,-7.8169,-7.7553,-7.6784,-7.613,-7.6015,-7.6015,-7.6015,-7.6015,-7.5756,-7.5017,-7.4632,-7.4255,-7.3699,-7.3341,-7.3172,-7.3172,-7.2761,-7.2496,-7.2496,-7.2496,-7.2496,-7.2496,-7.2496,-7.2496,-7.2496,-7.3083,-7.3377,-7.3377,-7.4184,-7.4588,-7.4588,-7.4808,-7.5212,-7.5799,-7.5799,-7.624,-5.6049,-5.8088,-5.9704,-6.0589,-6.0512,-5.9819,-5.8204,-5.7627,-5.6357,-5.2472,-4.974,-4.7586,-4.6047,-4.924,-5.2125,-5.2241,-5.7934,-6.2666,-6.3551,-6.3666,-6.4282,-6.5897,-6.6167,-6.6333,-6.6567,-6.7039,-6.7344,-6.7461,-6.7461,-6.7617,-6.7969,-6.9258,-7.0508,-7.164,-7.2617,-7.3984,-7.5703,-7.6719,-7.7187,-7.7187,-7.7187,-7.7383,-7.7773,-7.8281,-7.8672,-7.9062,-7.9922,-8.0236,-8.0168,-8.0334,-7.9571,-7.8246,-7.8054,-7.7169,-7.6015,-7.6015,-7.6015,-7.6053,-7.6438,-7.6553,-7.6515,-7.613,-7.6245,-7.6553,-7.6553,-7.6823,-7.7207,-7.7669,-7.7823,-7.8015,-7.8861,-7.9054,-7.9285,-8.0169,-7.94,-7.8477,-7.8477,-7.7553,-7.6592,-7.6092,-7.6015,-7.6015,-7.6015,-7.5787,-7.5413,-7.4828,-7.4255,-7.3699,-7.3066,-7.2997,-7.2997,-7.2997,-7.2686,-7.2496,-7.2496,-7.2496,-7.2496,-7.2496,-7.2826,-7.3046,-7.3046,-7.3817,-7.4221,-7.4221,-7.5028,-7.5432,-7.5432,-7.5799,-7.6203,-7.6644,-7.6644,-7.69,-5.8473,-5.9588,-5.9819,-6.0473,-6.0165,-5.8934,-5.6011,-5.4318,-5.2241,-4.8279,-4.5124,-4.3162,-4.3431,-4.7048,-4.9971,-4.974,-5.5241,-5.9973,-6.1281,-6.1473,-6.2627,-6.5705,-6.6269,-6.6461,-6.6731,-6.763,-6.8234,-6.8359,-6.8476,-6.8828,-6.9531,-7.0508,-7.2226,-7.4844,-7.4961,-7.5664,-7.7187,-7.7187,-7.7187,-7.7187,-7.7305,-7.7773,-7.8515,-7.8711,-7.9219,-7.9922,-8.0769,-8.1024,-8.0923,-8.1325,-8.0445,-7.8776,-7.8438,-7.7361,-7.6015,-7.613,-7.6169,-7.6284,-7.7169,-7.7438,-7.7323,-7.6592,-7.6823,-7.7438,-7.7438,-7.7938,-7.8515,-7.8631,-7.8669,-7.8861,-7.9746,-7.9977,-8.0131,-8.0785,-7.9669,-7.8477,-7.8361,-7.7092,-7.6015,-7.6015,-7.6015,-7.6015,-7.6015,-7.548,-7.4943,-7.4379,-7.3794,-7.3172,-7.261,-7.2496,-7.2496,-7.2496,-7.2496,-7.2496,-7.2496,-7.2606,-7.2679,-7.2679,-7.3413,-7.3854,-7.3854,-7.4625,-7.5065,-7.5065,-7.5873,-7.6276,-7.6276,-7.6974,-7.7304,-7.7304,-7.7304,-7.7304,-5.9127,-6.0012,-6.0435,-5.9858,-6.0165,-5.9358,-5.4703,-5.3972,-5.2318,-4.5393,-4.3508,-4.2277,-3.9585,-4.3124,-4.7586,-5.0933,-5.6011,-6.0781,-6.4512,-6.5013,-6.5282,-6.6013,-6.6128,-6.6538,-6.7564,-6.7834,-6.8287,-6.9139,-6.9844,-7.0312,-7.0469,-7.1992,-7.4062,-7.668,-7.6758,-7.6875,-7.7187,-7.7187,-7.7187,-7.7226,-7.793,-7.8359,-7.8555,-7.9922,-8.0625,-8.0818,-8.1522,-8.1821,-8.1701,-8.0772,-7.9741,-7.8699,-7.7823,-7.6899,-7.6092,-7.6823,-7.7053,-7.7169,-7.8015,-7.8284,-7.8246,-7.813,-7.8169,-7.8284,-7.8284,-7.84,-7.8631,-7.9361,-7.9592,-7.9785,-8.0669,-8.0862,-8.0746,-8.0169,-7.9246,-7.8323,-7.763,-7.6707,-7.6015,-7.6015,-7.6015,-7.6015,-7.6015,-7.548,-7.4943,-7.4379,-7.3794,-7.3172,-7.261,-7.2496,-7.2496,-7.2496,-7.2496,-7.2496,-7.2496,-7.312,-7.3487,-7.3487,-7.4258,-7.4698,-7.4698,-7.5469,-7.5909,-7.5909,-7.668,-7.7121,-7.7121,-7.7268,-7.7304,-7.7304,-7.7304,-7.7304,-5.9819,-6.0819,-6.1281,-6.0396,-6.0473,-5.9127,-5.2702,-5.1202,-4.8894,-4.0816,-3.9161,-3.8661,-3.7007,-4.0123,-4.4201,-4.8009,-5.3626,-5.8704,-6.2089,-6.4166,-6.5576,-6.6192,-6.6346,-6.6643,-6.7321,-6.8176,-6.8904,-6.9413,-7.0664,-7.1367,-7.1367,-7.3476,-7.543,-7.7148,-7.7187,-7.7187,-7.7187,-7.7187,-7.7422,-7.789,-7.8281,-7.8945,-7.9844,-8.0625,-8.1206,-8.1515,-8.1388,-8.1193,-8.0931,-7.9854,-7.8892,-7.8006,-7.7938,-7.74,-7.6784,-7.763,-7.79,-7.8054,-7.89,-7.9169,-7.9246,-7.9708,-7.9554,-7.9169,-7.9169,-7.9477,-7.9939,-8.0362,-8.0477,-8.0554,-8.0977,-8.0746,-8.0323,-7.99,-7.8823,-7.763,-7.6784,-7.6284,-7.6015,-7.6015,-7.6015,-7.5917,-7.5584,-7.5054,-7.4468,-7.3934,-7.329,-7.2816,-7.2553,-7.2496,-7.2496,-7.2496,-7.2496,-7.2679,-7.3083,-7.3487,-7.3891,-7.4294,-7.5102,-7.5542,-7.5542,-7.6313,-7.6717,-7.6717,-7.7121,-7.7304,-7.7304,-7.7304,-7.7304,-7.7304,-7.7304,-7.7304,-6.0435,-6.1435,-6.1666,-6.0973,-6.0666,-5.8511,-5.0856,-4.8317,-4.5278,-3.7161,-3.5199,-3.493,-3.493,-3.7392,-4.0662,-4.4432,-4.9817,-5.4934,-5.8934,-6.1959,-6.4393,-6.6167,-6.6497,-6.6844,-6.7418,-6.8633,-6.957,-7.0,-7.125,-7.2148,-7.2539,-7.4844,-7.6484,-7.7187,-7.7187,-7.7187,-7.7187,-7.7383,-7.7734,-7.8242,-7.8594,-7.9375,-8.0469,-8.0602,-8.0956,-8.1393,-8.0607,-8.0106,-7.9738,-7.8853,-7.8122,-7.7592,-7.8054,-7.7938,-7.7669,-7.8477,-7.8784,-7.89,-7.9785,-8.0092,-8.0208,-8.09,-8.0631,-8.0092,-8.0092,-8.0554,-8.1093,-8.1093,-8.1093,-8.1093,-8.1093,-8.0439,-7.9708,-7.9361,-7.813,-7.6823,-7.613,-7.6015,-7.6015,-7.6015,-7.5917,-7.5686,-7.5163,-7.4551,-7.3934,-7.3492,-7.2926,-7.2496,-7.2496,-7.2496,-7.2496,-7.2496,-7.2642,-7.301,-7.3634,-7.4001,-7.4478,-7.5139,-7.5909,-7.635,-7.635,-7.6974,-7.7304,-7.7304,-7.7304,-7.7304,-7.7304,-7.7304,-7.7304,-7.7304,-7.7304,-7.7304,-6.0666,-6.1435,-6.0896,-6.0819,-6.0204,-5.7627,-4.9971,-4.6971,-4.3855,-3.693,-3.4237,-3.3122,-3.3122,-3.4699,-3.7584,-4.2547,-4.5124,-4.9548,-5.828,-5.9942,-6.1775,-6.5917,-6.6513,-6.7309,-6.9097,-6.9336,-7.0078,-7.164,-7.1914,-7.2695,-7.4297,-7.6094,-7.7109,-7.7187,-7.7187,-7.7187,-7.7187,-7.8008,-7.8008,-7.7344,-7.8867,-7.9297,-7.8749,-7.931,-7.9594,-7.9605,-7.9191,-7.893,-7.8853,-7.7823,-7.7784,-7.8323,-7.7669,-7.7823,-7.8477,-7.9361,-7.9669,-7.9823,-8.0669,-8.0977,-8.0977,-8.1054,-8.1054,-8.0977,-8.0977,-8.1054,-8.1093,-8.1093,-8.1093,-8.1093,-8.1093,-8.0439,-7.9438,-7.79,-7.6823,-7.6092,-7.6015,-7.6015,-7.6015,-7.6015,-7.5551,-7.5163,-7.5091,-7.4212,-7.3492,-7.3391,-7.2926,-7.2496,-7.2496,-7.2496,-7.2496,-7.2496,-7.3156,-7.3597,-7.367,-7.5028,-7.5909,-7.5983,-7.6754,-7.7194,-7.7194,-7.7268,-7.7304,-7.7304,-7.7304,-7.7304,-7.7304,-7.7304,-7.7304,-7.7304,-7.7304,-7.7304,-5.9935,-6.1435,-6.132,-6.0281,-5.8588,-5.5357,-4.8202,-4.447,-4.0739,-3.4507,-3.266,-3.2199,-3.2199,-3.316,-3.493,-3.8046,-4.1662,-4.5932,-5.1164,-5.6006,-6.011,-6.2976,-6.5267,-6.7142,-6.8593,-6.914,-7.0117,-7.1875,-7.25,-7.3086,-7.3789,-7.4961,-7.5625,-7.5625,-7.664,-7.6953,-7.6406,-7.7265,-7.7812,-7.8008,-7.8558,-7.888,-7.9036,-7.9214,-7.9168,-7.8998,-7.8382,-7.8006,-7.7891,-7.7476,-7.7476,-7.7861,-7.8554,-7.9015,-7.94,-8.0246,-8.0592,-8.0631,-8.0977,-8.1093,-8.1093,-8.1093,-8.1093,-8.1093,-8.1093,-8.1093,-8.1093,-8.1093,-8.1093,-8.1093,-8.1093,-8.0054,-7.8746,-7.7553,-7.663,-7.6015,-7.6015,-7.6015,-7.6015,-7.6015,-7.548,-7.5017,-7.4632,-7.3943,-7.3238,-7.2889,-7.263,-7.2496,-7.2496,-7.2496,-7.2496,-7.2496,-7.323,-7.3891,-7.4368,-7.5469,-7.6313,-7.679,-7.7157,-7.7304,-7.7304,-7.7304,-7.7304,-7.7304,-7.7304,-7.7304,-7.7304,-7.7304,-7.7304,-7.7304,-7.7304,-7.7598,-5.7604,-5.9935,-6.0781,-6.0089,-5.7011,-5.2779,-4.724,-4.2547,-3.7853,-3.2429,-3.1121,-3.0929,-3.0929,-3.1583,-3.2814,-3.4776,-3.8546,-4.2547,-4.6355,-5.1893,-5.6557,-5.9381,-6.2233,-6.4765,-6.6797,-6.8906,-7.0664,-7.1914,-7.2578,-7.3047,-7.3281,-7.414,-7.4726,-7.4961,-7.6172,-7.664,-7.6289,-7.7148,-7.7773,-7.8125,-7.8185,-7.8344,-7.8643,-7.8447,-7.8247,-7.8045,-7.766,-7.7429,-7.7323,-7.7553,-7.7823,-7.8169,-7.9361,-7.9977,-8.0246,-8.0862,-8.1093,-8.1093,-8.1093,-8.1093,-8.1093,-8.1093,-8.1093,-8.1093,-8.1093,-8.1093,-8.1093,-8.1093,-8.1093,-8.0977,-8.0477,-7.94,-7.8207,-7.7169,-7.6438,-7.6015,-7.6015,-7.6015,-7.5947,-7.5787,-7.5236,-7.4672,-7.4161,-7.3541,-7.2997,-7.2553,-7.2496,-7.2496,-7.2496,-7.2496,-7.2606,-7.2826,-7.356,-7.4294,-7.4845,-7.5873,-7.6717,-7.7268,-7.7304,-7.7304,-7.7304,-7.7304,-7.7304,-7.7304,-7.7304,-7.7304,-7.7304,-7.7304,-7.7304,-7.7341,-7.7561,-7.8148,-5.3353,-5.6395,-5.8742,-6.0358,-5.5742,-5.0048,-4.7471,-4.1623,-3.5545,-3.1302,-2.9737,-2.9121,-2.9121,-2.9852,-3.1275,-3.3814,-3.5661,-3.9161,-4.5932,-4.7812,-5.0354,-5.5445,-5.7069,-5.9453,-6.3711,-6.8906,-7.1992,-7.1992,-7.1992,-7.2383,-7.3242,-7.414,-7.5,-7.5859,-7.5898,-7.6328,-7.7187,-7.8047,-7.8047,-7.7226,-7.7875,-7.7766,-7.6929,-7.6506,-7.6352,-7.6361,-7.7015,-7.7284,-7.7361,-7.8169,-7.9015,-7.9785,-7.9785,-8.0323,-8.1093,-8.1093,-8.1093,-8.1093,-8.1093,-8.1093,-8.1093,-8.1093,-8.1093,-8.1093,-8.1093,-8.1093,-8.1093,-8.1093,-8.1093,-8.0708,-7.8977,-7.8515,-7.8092,-7.6399,-7.6015,-7.6015,-7.6015,-7.6015,-7.5818,-7.5236,-7.471,-7.4117,-7.3541,-7.2889,-7.2496,-7.2496,-7.2496,-7.2496,-7.2496,-7.2496,-7.2789,-7.3597,-7.4404,-7.4918,-7.4918,-7.6387,-7.7304,-7.7304,-7.7304,-7.7304,-7.7304,-7.7304,-7.7304,-7.7304,-7.7304,-7.7304,-7.7304,-7.7304,-7.7304,-7.7341,-7.8185,-7.9029,-4.8087,-5.0317,-5.1164,-5.0548,-4.7048,-4.3047,-4.0508,-3.6007,-3.1852,-2.989,-2.8852,-2.8429,-2.9006,-2.9813,-3.1044,-3.3006,-3.5238,-3.8046,-4.197,-4.7945,-5.2934,-5.5808,-6.1814,-6.6523,-6.8437,-7.0664,-7.1992,-7.1992,-7.2539,-7.3008,-7.3281,-7.414,-7.4726,-7.5,-7.6172,-7.664,-7.6328,-7.7187,-7.7401,-7.7001,-7.706,-7.6869,-7.6476,-7.6207,-7.6399,-7.6976,-7.7207,-7.7592,-7.8169,-7.9054,-7.9554,-7.9862,-8.0477,-8.0862,-8.1093,-8.1093,-8.1093,-8.1093,-8.1093,-8.1093,-8.1093,-8.1093,-8.1093,-8.1093,-8.1093,-8.1093,-8.1093,-8.1093,-8.0669,-8.0092,-7.9515,-7.8554,-7.7553,-7.7015,-7.6438,-7.6015,-7.6015,-7.5686,-7.5306,-7.5127,-7.4341,-7.3602,-7.3442,-7.2889,-7.2496,-7.2496,-7.2496,-7.2496,-7.2496,-7.2496,-7.2826,-7.3597,-7.4441,-7.5139,-7.5689,-7.6717,-7.7304,-7.7304,-7.7304,-7.7304,-7.7304,-7.7304,-7.7304,-7.7304,-7.7304,-7.7304,-7.7304,-7.7304,-7.7304,-7.7341,-7.8185,-7.8993,-4.2228,-4.4855,-4.6047,-4.5278,-4.2047,-3.8661,-3.7046,-3.3199,-2.9583,-2.839,-2.8005,-2.8044,-2.8544,-2.9621,-3.1083,-3.3045,-3.5238,-3.8176,-4.2395,-4.794,-5.297,-5.6786,-6.3309,-6.7932,-6.914,-7.0937,-7.2148,-7.2461,-7.3008,-7.3594,-7.4258,-7.4805,-7.5234,-7.5586,-7.6328,-7.6601,-7.6406,-7.6841,-7.7015,-7.689,-7.6614,-7.6397,-7.6284,-7.6438,-7.6784,-7.7323,-7.7977,-7.8515,0.0,-7.9939,-8.0285,-8.0323,-8.09,-8.1093,-8.1093,-8.1093,-8.1093,-8.1093,-8.1093,-8.1093,-8.1093,-8.1093,-8.1093,-8.1093,-8.1093,-8.1093,-8.1093,-8.1093,-8.0477,-7.9708,-7.94,-7.8323,-7.7207,-7.6899,-7.6399,-7.5947,-7.5718,-7.5379,-7.4942,-7.4551,-7.3897,-7.3341,-7.3066,-7.2761,-7.2496,-7.2496,-7.2496,-7.2496,-7.2496,-7.2753,-7.3266,-7.4074,-7.4882,-7.5689,-7.6497,-7.7011,-7.7304,-7.7304,-7.7304,-7.7304,-7.7304,-7.7304,-7.7304,-7.7304,-7.7304,-7.7304,-7.7304,-7.7304,-7.7488,-7.7818,-7.8369,-7.9202,0.0,-3.9777,-4.2547,-4.3239,-3.9854,-3.6353,-3.6276,-3.2545,0.0,-2.7082,-2.739,-2.7928,-2.8044,-2.9352,-3.1237,-3.3853,-3.5699,-3.9206,-4.6152,-4.843,-5.1896,-5.859,-6.2455,-6.5166,-6.6756,-7.0039,-7.2422,-7.3242,-7.3398,-7.418,-7.582,-7.5976,-7.6367,-7.7187,-7.6403,-7.636,-7.7181,-7.6981,-7.689,-7.6852,-7.6476,-7.6322,-7.6399,-7.7015,-7.7361,-7.7553,-7.9131,-7.9862,-7.9977,-8.0785,-8.1093,-8.1093,-8.1093,-8.1093,-8.1093,-8.1093,-8.1093,-8.1093,-8.1093,-8.1093,-8.1093,-8.1093,-8.1093,-8.1093,-8.1093,-8.1093,-8.1093,-8.1016,-8.04,-7.9515,-7.8631,-7.7823,-7.6976,-7.6207,-7.5947,-7.5787,-7.5236,-7.5054,-7.4672,-7.3602,-7.3341,-7.3172,-7.261,-7.2496,-7.2496,-7.2496,-7.2496,-7.2532,-7.2569,-7.323,-7.4037,-7.4918,-7.5652,-7.6423,-7.7268,-7.7304,-7.7304,-7.7304,-7.7304,-7.7304,-7.7304,-7.7304,-7.7304,-7.7304,-7.7304,-7.7304,-7.7304,-7.7304,-7.7745,-7.8516,-7.8516,-7.936,-2.9483,0.0,-3.5199,-3.4776,-3.3776,-3.2699,0.0,-3.0429,-2.8967,-2.8582,-2.8198,-2.8275,-2.9583,-3.011,-3.1455,-3.4661,-3.6584,-3.9899,-4.6229,-5.421,-6.0332,-6.2769,-6.6653,-6.8541,-6.7031,-7.0586,-7.3086,-7.3281,-7.4531,-7.5469,-7.5898,-7.6523,-7.6992,-7.7187,-7.6855,-7.6737,-7.6969,-7.6905,-7.6775,-7.6438,-7.6322,-7.6553,-7.7053,-7.7207,-7.8015,-7.9246,-7.9631,-8.0169,-8.0823,-8.1016,-8.1093,-8.1093,-8.1093,-8.1093,-8.1093,-8.1093,-8.1093,-8.1093,-8.1093,-8.1093,-8.1093,-8.1093,-8.1093,-8.1093,-8.1093,-8.1093,-8.0977,-8.0285,-7.9477,-7.8631,-7.7784,-7.6938,-7.6245,-7.6053,-7.5654,-7.5271,-7.5127,-7.4388,-7.3747,-7.3442,-7.305,-7.2686,-7.2496,-7.2496,-7.2496,-7.2496,-7.2496,-7.2716,-7.334,-7.356,-7.4221,-7.5689,-7.5983,-7.6423,-7.7268,-7.7304,-7.7304,-7.7304,-7.7304,-7.7304,-7.7304,-7.7304,-7.7304,-7.7304,-7.7304,-7.7304,-7.7304,-7.7304,-7.7414,-7.7635,-7.7635,-7.8504,-2.6822,-2.9053,-3.1044,-3.0621,-3.0814,-3.0891,-3.0006,-2.9429,-2.9083,-2.9083,-2.9083,-2.9467,-3.0775,-3.3595,-3.5971,-3.6559,-4.1114,-4.6182,-5.0728,-5.6691,-6.1634,-6.457,-6.7305,-6.918,-6.9765,-7.2305,-7.4062,-7.4453,-7.5351,-7.6055,-7.6484,-7.6856,-7.7066,-7.7066,-7.6866,-7.6828,-7.689,-7.6736,-7.6707,-7.6899,-7.6784,-7.713,-7.7861,-7.8246,-7.8938,-7.9823,-8.0208,-8.0669,-8.1093,-8.1093,-8.1093,-8.1093,-8.1093,-8.1093,-8.1093,-8.1093,-8.1093,-8.1093,-8.1093,-8.1093,-8.1093,-8.1093,-8.0823,-8.0516,-8.0516,-8.0208,-7.99,-7.9823,-7.89,-7.7861,-7.74,-7.663,-7.6015,-7.6015,-7.5551,-7.5054,-7.4789,-7.4034,-7.329,-7.305,-7.2705,-7.2496,-7.2496,-7.2496,-7.2496,-7.2496,-7.2826,-7.3193,-7.3634,-7.4331,-7.5139,-7.6019,-7.6423,-7.6827,-7.7268,-7.7304,-7.7304,-7.7304,-7.7304,-7.7304,-7.7304,-7.7304,-7.7304,-7.7304,-7.7304,-7.7304,-7.7304,-7.7304,-7.7304,-7.7304,-7.7304,-7.8174,-2.6047,-2.7941,-2.9737,-2.9236,-2.9775,-3.0237,-2.9621,-2.9506,-2.9544,-2.966,-3.0352,-3.1429,-3.2993,-3.7784,-4.1042,-3.965,-4.6936,-5.3901,-5.6924,-5.8591,-6.1015,-6.5117,-6.6836,-6.8945,-7.2226,-7.3906,-7.5117,-7.5859,-7.6015,-7.6403,-7.7122,-7.6981,-7.689,-7.6852,-7.6648,-7.6708,-7.7006,-7.6669,-7.6861,-7.7553,-7.7515,-7.79,-7.8707,-7.9477,-7.9862,-8.0054,-8.0785,-8.1093,-8.1093,-8.1093,-8.1093,-8.1093,-8.1093,-8.1093,-8.1093,-8.1093,-8.1093,-8.1093,-8.1093,-8.1093,-8.1093,-8.0939,-8.04,-7.9785,-7.9631,-7.9015,-7.8477,-7.9208,-7.84,-7.7284,-7.713,-7.6485,-7.5848,-7.5848,-7.5344,-7.4711,-7.4293,-7.3699,-7.3119,-7.2573,-7.2496,-7.2496,-7.2496,-7.2496,-7.2532,-7.2679,-7.3266,-7.378,-7.4037,-7.5249,-7.6166,-7.6276,-7.69,-7.7304,-7.7304,-7.7304,-7.7304,-7.7304,-7.7304,-7.7304,-7.7304,-7.7304,-7.7304,-7.7304,-7.7304,-7.7304,-7.7304,-7.7304,-7.7304,-7.7304,-7.7304,-7.8174,-2.5171,-2.9219,-3.2699,-2.9813,-2.9775,-3.0583,-3.116,-3.1314,-3.1506,-3.216,-3.3006,-3.5008,-3.9599,-3.9534,-4.0346,-4.5101,-5.0829,-5.6381,-6.1148,-6.4599,-6.6367,-6.5664,-6.8906,-7.0625,-6.914,-7.3047,-7.5742,-7.5898,-7.6562,-7.6997,-7.6954,-7.6927,-7.6813,-7.6659,-7.6437,-7.6707,-7.7476,-7.7438,-7.7361,-7.7361,-7.8015,-7.8784,-7.9592,-7.9746,-8.0208,-8.09,-8.1054,-8.1093,-8.1093,-8.1093,-8.1093,-8.1093,-8.1093,-8.1093,-8.1093,-8.1093,-8.1093,-8.1093,-8.1093,-8.1093,-8.0977,-8.0246,-7.99,-7.9669,-7.89,-7.813,-7.7515,-7.763,-7.7476,-7.713,-7.6399,-7.5731,-7.5236,-7.5236,-7.4426,-7.3651,-7.359,-7.3066,-7.2573,-7.2496,-7.2496,-7.2496,-7.2496,-7.2496,-7.2716,-7.3413,-7.3597,-7.4184,-7.5542,-7.5946,-7.635,-7.7047,-7.7268,-7.7304,-7.7304,-7.7304,-7.7304,-7.7304,-7.7304,-7.7304,-7.7304,-7.7304,-7.7304,-7.7304,-7.7304,-7.7304,-7.7304,-7.7304,-7.7304,-7.7304,-7.7304,-7.8174,-2.5662,-2.8269,-3.116,-3.2814,-3.5584,-3.8007,-3.843,-3.9238,-3.9508,-3.8007,-3.8392,-3.9899,-4.2844,-4.4754,-4.8513,-5.6575,-5.7097,-5.8023,-6.2288,-6.3146,-6.3906,-6.543,-6.8164,-7.039,-7.1562,-7.4648,-7.6601,-7.6601,-7.6858,-7.7001,-7.6881,-7.6698,-7.6544,-7.6438,-7.6245,-7.6553,-7.7438,-7.7861,-7.8284,-7.8669,-7.9015,-7.9669,-8.0516,-8.0516,-8.0708,-8.1093,-8.1093,-8.1093,-8.1093,-8.1093,-8.1093,-8.1093,-8.1093,-8.1093,-8.1093,-8.1093,-8.1093,-8.1093,-8.1093,-8.1093,-8.0977,-8.0092,-7.9477,-7.8938,-7.8092,-7.7246,-7.6592,-7.6592,-7.6592,-7.6417,-7.5699,-7.5306,-7.5017,-7.4749,-7.3989,-7.3391,-7.3391,-7.2943,-7.2496,-7.2496,-7.2496,-7.2496,-7.2496,-7.2863,-7.3266,-7.3634,-7.4441,-7.5249,-7.5983,-7.6497,-7.69,-7.7268,-7.7304,-7.7304,-7.7304,-7.7304,-7.7304,-7.7304,-7.7304,-7.7304,-7.7304,-7.7304,-7.7304,-7.7304,-7.7304,-7.7304,-7.7304,-7.7304,-7.7304,-7.7304,-7.7304,-7.8174,-2.6327,-2.8236,-3.1083,-3.5815,-3.9354,-4.22,-4.4393,-4.5316,-4.5316,-4.3926,-4.4311,-4.5324,-4.6559,-5.0403,-5.5907,-6.3554,-6.1346,-6.0087,-6.4216,-6.2773,-6.2734,-6.664,-6.8281,-7.0547,-7.4258,-7.5976,-7.6992,-7.7187,-7.7019,-7.689,-7.6852,-7.6506,-7.6284,-7.6207,-7.6284,-7.6707,-7.7553,-7.84,-7.9131,-7.9823,-8.0015,-8.0439,-8.1093,-8.1093,-8.1093,-8.1093,-8.1093,-8.1093,-8.1093,-8.1093,-8.1093,-8.1093,-8.1093,-8.1093,-8.1093,-8.1093,-8.1093,-8.1093,-8.1093,-8.0977,-8.0669,-7.9785,-7.89,-7.8054,-7.7246,-7.6515,-7.6015,-7.6015,-7.5917,-7.5686,-7.5236,-7.4905,-7.4591,-7.4206,-7.3602,-7.3172,-7.3172,-7.2816,-7.2496,-7.2496,-7.2496,-7.2569,-7.2753,-7.3303,-7.3817,-7.4221,-7.5322,-7.6166,-7.635,-7.6937,-7.7304,-7.7304,-7.7304,-7.7304,-7.7304,-7.7304,-7.7304,-7.7304,-7.7304,-7.7304,-7.7304,-7.7304,-7.7304,-7.7304,-7.7304,-7.7304,-7.7304,-7.7304,-7.7304,-7.7304,-7.7304,-7.81,-2.654,-3.1237,-3.6353,-3.7584,-3.5815,-3.6007,-4.4739,-4.4355,-4.3503,-4.8188,-4.977,-5.0919,-5.2884,-5.4918,-5.6797,-5.8281,-6.0156,-6.3475,-6.9336,-6.8633,-6.8555,-7.1211,-7.164,-7.2461,-7.4414,-7.5469,-7.6328,-7.7148,-7.7019,-7.6813,-7.6621,-7.6399,-7.6207,-7.6015,-7.6784,-7.7592,-7.84,-7.9285,-7.9746,-7.9823,-8.0631,-8.1054,-8.1093,-8.1093,-8.1093,-8.1093,-8.1093,-8.1093,-8.1093,-8.1093,-8.1093,-8.1093,-8.1093,-8.1093,-8.1093,-8.1093,-8.1093,-8.1093,-8.1093,-8.0554,-7.9746,-7.8861,-7.8054,-7.7207,-7.6361,-7.6053,-7.6015,-7.6015,-7.5584,-7.5127,-7.5127,-7.4341,-7.3504,-7.3492,-7.2997,-7.2553,-7.2553,-7.2553,-7.2496,-7.2496,-7.2496,-7.2753,-7.3487,-7.367,-7.4221,-7.5689,-7.6019,-7.6387,-7.7121,-7.7268,-7.7304,-7.7304,-7.7304,-7.7304,-7.7304,-7.7304,-7.7304,-7.7304,-7.7304,-7.7304,-7.7304,-7.7304,-7.7304,-7.7304,-7.7304,-7.7304,-7.7304,-7.7304,-7.7304,-7.7304,-7.7304,-7.7806,-2.7819,-3.2352,-3.7276,-3.9738,-4.0162,-4.2162,-5.0471,-5.2202,-5.201,-5.1915,-5.4323,-5.6078,-5.4855,-5.9215,-6.2578,-6.1289,-6.3711,-6.6523,-6.8828,-6.9062,-6.9336,-7.0273,-7.1328,-7.2695,-7.4414,-7.539,-7.6214,-7.6976,-7.6827,-7.6637,-7.6429,-7.6207,-7.6322,-7.6784,-7.713,-7.7938,-7.9285,-7.9631,-8.0092,-8.0592,-8.0939,-8.1093,-8.1093,-8.1093,-8.1093,-8.1093,-8.1093,-8.1093,-8.1093,-8.1093,-8.1093,-8.1093,-8.1093,-8.1093,-8.1093,-8.1093,-8.1093,-8.1093,-8.1093,-8.0516,-7.96,-7.8382,-7.7713,-7.7062,-7.5819,-7.5446,-7.5446,-7.5446,-7.4751,-7.4124,-7.4509,-7.3989,-7.329,-7.2943,-7.2686,-7.2496,-7.2496,-7.2496,-7.2496,-7.2496,-7.2899,-7.334,-7.3634,-7.4515,-7.5395,-7.6019,-7.6533,-7.6974,-7.7268,-7.7304,-7.7304,-7.7304,-7.7304,-7.7304,-7.7304,-7.7304,-7.7304,-7.7304,-7.7304,-7.7304,-7.7304,-7.7304,-7.7304,-7.7304,-7.7304,-7.7304,-7.7304,-7.7304,-7.7304,-7.7304,-7.7304,-7.8027,-3.0713,-3.443,-3.8931,-4.3124,-4.447,-4.6855,-5.5049,-5.678,-5.6742,-5.6896,-5.9029,-6.0162,-5.7982,-6.2228,-6.5586,-6.4062,-6.6523,-6.8906,-6.9687,-7.0078,-7.0351,-7.0586,-7.1914,-7.3164,-7.4101,-7.5234,-7.6045,-7.6437,-7.6537,-7.6505,-7.6313,-7.6092,-7.6399,-7.7284,-7.7553,-7.8361,-7.9785,-8.0092,-8.0516,-8.1093,-8.1093,-8.1093,-8.1093,-8.1093,-8.1093,-8.1093,-8.1093,-8.1093,-8.1093,-8.1093,-8.1093,-8.1093,-8.1093,-8.1093,-8.1093,-8.1093,-8.1093,-8.1054,-8.0785,-7.9998,-7.8947,-7.7896,-7.7122,-7.6453,-7.5638,-7.5271,-7.5091,-7.5091,-7.4299,-7.3492,-7.3888,-7.359,-7.2997,-7.2573,-7.2496,-7.2496,-7.2496,-7.2496,-7.2569,-7.2826,-7.3303,-7.3854,-7.4368,-7.5359,-7.6203,-7.646,-7.6974,-7.7304,-7.7304,-7.7304,-7.7304,-7.7304,-7.7304,-7.7304,-7.7304,-7.7304,-7.7304,-7.7304,-7.7304,-7.7304,-7.7304,-7.7304,-7.7304,-7.7304,-7.7304,-7.7304,-7.7304,-7.7304,-7.7304,-7.7304,-7.7304,-7.8063,-3.5238,-3.7969,-4.197,-4.7894,-4.7509,-4.8125,-5.7396,-5.628,-5.5511,-6.3484,-6.3971,-6.3008,-6.3008,-6.375,-6.4609,-6.5469,-6.7773,-7.039,-7.293,-7.2539,-7.2305,-7.3203,-7.4062,-7.4258,-7.3398,-7.4883,-7.5811,-7.5628,-7.6207,-7.6506,-7.6284,-7.613,-7.6399,-7.7284,-7.8092,-7.8938,-7.9823,-8.0669,-8.1093,-8.1093,-8.1093,-8.1093,-8.1093,-8.1093,-8.1093,-8.1093,-8.1093,-8.1093,-8.1093,-8.1093,-8.1093,-8.1093,-8.1093,-8.1093,-8.1093,-8.1093,-8.1093,-8.0977,-8.0092,-7.8875,-7.7642,-7.7393,-7.6312,-7.5236,-7.5818,-7.5551,-7.5091,-7.5091,-7.4299,-7.3391,-7.3391,-7.2943,-7.2496,-7.2496,-7.2496,-7.2496,-7.2496,-7.2496,-7.2753,-7.356,-7.3707,-7.4221,-7.5836,-7.6093,-7.6387,-7.7194,-7.7304,-7.7304,-7.7304,-7.7304,-7.7304,-7.7304,-7.7304,-7.7304,-7.7304,-7.7304,-7.7304,-7.7304,-7.7304,-7.7304,-7.7304,-7.7304,-7.7304,-7.7304,-7.7304,-7.7304,-7.7304,-7.7304,-7.7304,-7.7304,-7.7304,-7.7806,-3.2275,-3.8354,-4.4355,-4.5509,-5.0202,-5.5395,-5.8742,-5.8088,-5.8526,-6.4726,-6.4323,-6.3088,-6.3785,-6.6133,-6.7422,-6.5859,-6.7734,-7.0117,-7.2109,-7.2148,-7.2305,-7.3203,-7.4062,-7.4726,-7.5078,-7.5586,-7.6014,-7.6281,-7.6508,-7.6438,-7.6092,-7.6592,-7.7284,-7.813,-7.8977,-7.9823,-8.0708,-8.0977,-8.1093,-8.1093,-8.1093,-8.1093,-8.1093,-8.1093,-8.1093,-8.1093,-8.1093,-8.1093,-8.1093,-8.1093,-8.1093,-8.1093,-8.1093,-8.1093,-8.1016,-8.04,-8.0208,-8.0054,-7.9169,-7.7993,-7.6768,-7.6682,-7.5959,-7.5054,-7.4866,-7.467,-7.4464,-7.4034,-7.3341,-7.2761,-7.2761,-7.263,-7.2496,-7.2496,-7.2496,-7.2496,-7.2496,-7.2936,-7.3413,-7.3634,-7.4588,-7.5542,-7.6019,-7.657,-7.7047,-7.7268,-7.7304,-7.7304,-7.7304,-7.7304,-7.7304,-7.7304,-7.7304,-7.7304,-7.7304,-7.7304,-7.7304,-7.7304,-7.7304,-7.7304,-7.7304,-7.7304,-7.7304,-7.7304,-7.7304,-7.7304,-7.7304,-7.7304,-7.7304,-7.7304,-7.7304,-7.8063,-3.8046,-4.2854,-4.7048,-5.0894,-5.5088,-5.8896,-6.1089,-6.1843,-6.2982,-6.6301,-6.6411,-6.6135,-6.6716,-6.8828,-6.9961,-6.8398,-6.9414,-7.1055,-7.2773,-7.3047,-7.3359,-7.4219,-7.5117,-7.5586,-7.539,-7.6015,-7.6306,-7.6105,-7.6413,-7.6399,-7.6015,-7.6823,-7.7669,-7.8477,-7.9361,-8.0208,-8.1093,-8.1093,-8.1093,-8.1093,-8.1093,-8.1093,-8.1093,-8.1093,-8.1093,-8.1093,-8.1093,-8.1093,-8.1093,-8.1093,-8.1093,-8.1093,-8.1093,-8.1093,-8.0977,-8.0131,-7.9823,-7.96,-7.8135,-7.6953,-7.6006,-7.5931,-7.5399,-7.4789,-7.467,-7.4464,-7.4161,-7.359,-7.2943,-7.2496,-7.2496,-7.2496,-7.2496,-7.2496,-7.2496,-7.2606,-7.2899,-7.334,-7.3891,-7.4515,-7.5432,-7.6203,-7.6533,-7.7011,-7.7304,-7.7304,-7.7304,-7.7304,-7.7304,-7.7304,-7.7304,-7.7304,-7.7304,-7.7304,-7.7304,-7.7304,-7.7304,-7.7304,-7.7304,-7.7304,-7.7304,-7.7304,-7.7304,-7.7304,-7.7304,-7.7304,-7.7304,-7.7304,-7.7488,-7.7843,-7.7843,-7.8676,-4.7663,-4.9048,-4.9817,-6.0165,-6.0858,-6.0073,-6.4147,-6.6521,-6.7846,-6.7898,-6.9406,-7.0703,-7.0781,-7.1484,-7.1992,-7.1992,-7.207,-7.2695,-7.4375,-7.4687,-7.5039,-7.5898,-7.6719,-7.6562,-7.5,-7.6247,-7.6672,-7.5507,-7.6142,-7.6399,-7.6015,-7.6899,-7.7746,-7.8477,-7.9438,-8.0285,-8.1093,-8.1093,-8.1093,-8.1093,-8.1093,-8.1093,-8.1093,-8.1093,-8.1093,-8.1093,-8.1093,-8.1093,-8.1093,-8.1093,-8.1093,-8.1093,-8.1093,-8.1093,-8.0977,-8.0131,-7.9746,-7.9377,-7.7179,-7.5966,-7.5367,-7.5171,-7.4672,-7.4336,-7.4828,-7.4632,-7.4072,-7.3492,-7.2889,-7.2496,-7.2496,-7.2496,-7.2496,-7.2496,-7.2569,-7.2826,-7.3523,-7.3817,-7.4331,-7.5836,-7.6166,-7.646,-7.7194,-7.7304,-7.7304,-7.7304,-7.7304,-7.7304,-7.7304,-7.7304,-7.7304,-7.7304,-7.7304,-7.7304,-7.7304,-7.7304,-7.7304,-7.7304,-7.7304,-7.7304,-7.7304,-7.7304,-7.7304,-7.7304,-7.7304,-7.7304,-7.7304,-7.7304,-7.777,-7.8603,-7.8639,-7.9474,-3.9738,-4.5817,-5.2049,-5.7088,-6.1396,-6.4887,-6.6678,-6.7985,-6.8718,-6.8034,-6.9379,-7.0898,-7.1601,-7.1875,-7.1992,-7.1992,-7.2578,-7.3398,-7.4453,-7.5195,-7.5937,-7.6836,-7.7109,-7.7031,-7.668,-7.6844,-7.6806,-7.6373,-7.6335,-7.6245,-7.6015,-7.7438,-7.8323,-7.8477,-8.0015,-8.09,-8.1093,-8.1093,-8.1093,-8.1093,-8.1093,-8.1093,-8.1093,-8.1093,-8.1093,-8.1093,-8.1093,-8.1093,-8.1093,-8.1093,-8.1093,-8.1093,-8.1093,-8.1093,-8.0977,-8.0131,-7.9361,-7.8531,-7.695,-7.5585,-7.4606,-7.4981,-7.4426,-7.3699,-7.4293,-7.4072,-7.3492,-7.2871,-7.2573,-7.2496,-7.2496,-7.2496,-7.2496,-7.2496,-7.2973,-7.3487,-7.367,-7.4698,-7.5689,-7.6019,-7.6607,-7.7121,-7.7304,-7.7304,-7.7304,-7.7304,-7.7304,-7.7304,-7.7304,-7.7304,-7.7304,-7.7304,-7.7304,-7.7304,-7.7304,-7.7304,-7.7304,-7.7304,-7.7304,-7.7304,-7.7304,-7.7304,-7.7304,-7.7304,-7.7304,-7.7304,-7.7304,-7.7304,-7.777,-7.8603,-7.8583,-7.9462,-4.22,-4.674,-5.0664,-5.8165,-6.3166,-6.6514,-6.7486,-6.853,-6.9285,-6.9239,-7.0342,-7.1445,-7.1914,-7.1992,-7.1992,-7.1992,-7.2734,-7.3594,-7.4492,-7.5351,-7.6211,-7.7109,-7.7187,-7.7187,-7.7187,-7.7036,-7.68,-7.6604,-7.6391,-7.6207,-7.6015,-7.7592,-7.8477,-7.8477,-8.0169,-8.1093,-8.1093,-8.1093,-8.1093,-8.1093,-8.1093,-8.1093,-8.1093,-8.1093,-8.1093,-8.1093,-8.1093,-8.1093,-8.1093,-8.1093,-8.1093,-8.1093,-8.1093,-8.1093,-8.0977,-8.0131,-7.9515,-7.8838,-7.7026,-7.5932,-7.5281,-7.5132,-7.4509,-7.3888,-7.4206,-7.3888,-7.3238,-7.2686,-7.2496,-7.2496,-7.2496,-7.2496,-7.2606,-7.2973,-7.3377,-7.3817,-7.4184,-7.5249,-7.6203,-7.6607,-7.7011,-7.7304,-7.7304,-7.7304,-7.7304,-7.7304,-7.7304,-7.7304,-7.7304,-7.7304,-7.7304,-7.7304,-7.7304,-7.7304,-7.7304,-7.7304,-7.7304,-7.7304,-7.7304,-7.7304,-7.7304,-7.7304,-7.7304,-7.7304,-7.7304,-7.7304,-7.7304,-7.7304,-7.7953,-7.9179,-7.9169,-7.9836,-4.5393,-4.8125,-4.974,-6.0589,-6.4705,-6.6399,-6.7447,-6.8541,-6.9606,-7.0533,-7.1406,-7.1992,-7.1992,-7.1992,-7.1992,-7.1992,-7.2851,-7.3789,-7.4492,-7.5469,-7.6406,-7.7109,-7.7187,-7.7187,-7.7187,-7.6987,-7.68,-7.6621,-7.6361,-7.6169,-7.6015,-7.7592,-7.8477,-7.8477,-8.0169,-8.1093,-8.1093,-8.1093,-8.1093,-8.1093,-8.1093,-8.1093,-8.1093,-8.1093,-8.1093,-8.1093,-8.1093,-8.1093,-8.1093,-8.1093,-8.1093,-8.1093,-8.1093,-8.1016,-8.0823,-8.0246,-7.9746,-7.9107,-7.7256,-7.6425,-7.6044,-7.532,-7.4672,-7.4161,-7.4249,-7.3794,-7.3119,-7.263,-7.2496,-7.2496,-7.2496,-7.2496,-7.2716,-7.3487,-7.3817,-7.4111,-7.4955,-7.5763,-7.6497,-7.7194,-7.7451,-7.7524,-7.7524,-7.7671,-7.7708,-7.7561,-7.7671,-7.7635,-7.7378,-7.7451,-7.7488,-7.7341,-7.7304,-7.7304,-7.7304,-7.7304,-7.7304,-7.7304,-7.7304,-7.7304,-7.7304,-7.7304,-7.7304,-7.7304,-7.7304,-7.7304,-7.7304,-7.7451,-7.8345,-7.9793,-7.9957,-8.0377,-3.6699,-4.5355,-5.4934,-6.1627,-6.4141,-6.5489,-6.7291,-6.85,-6.9521,-7.0507,-7.1406,-7.1992,-7.1992,-7.1992,-7.1992,-7.1992,-7.3359,-7.4453,-7.457,-7.6015,-7.707,-7.7187,-7.7187,-7.7187,-7.7187,-7.6858,-7.6632,-7.6573,-7.6245,-7.6015,-7.6015,-7.7592,-7.8477,-7.8477,-8.0169,-8.1093,-8.1093,-8.1093,-8.1093,-8.1093,-8.1093,-8.1093,-8.1093,-8.1093,-8.1093,-8.1093,-8.1093,-8.1093,-8.1093,-8.1093,-8.1093,-8.1093,-8.1093,-8.0631,-8.0054,-8.0708,-7.9515,-7.7608,-7.7561,-7.6577,-7.5243,-7.5129,-7.4384,-7.3602,-7.4161,-7.3492,-7.2573,-7.2496,-7.2496,-7.2496,-7.2496,-7.2496,-7.2716,-7.3487,-7.4221,-7.4955,-7.5763,-7.657,-7.7194,-7.7304,-7.7928,-7.8442,-7.8442,-7.8993,-7.9213,-7.8516,-7.9029,-7.8956,-7.7524,-7.7965,-7.8148,-7.7414,-7.7304,-7.7304,-7.7304,-7.7304,-7.7304,-7.7304,-7.7304,-7.7304,-7.7304,-7.7304,-7.7304,-7.7304,-7.7304,-7.7304,-7.7304,-7.8063,-7.8922,-7.9793,-8.0534,-8.0919,-3.7853,-4.6971,-5.5818,-6.1281,-6.4166,-6.6049,-6.7384,-6.8534,-6.957,-7.0508,-7.1406,-7.1992,-7.1992,-7.1992,-7.1992,-7.1992,-7.3476,-7.4609,-7.4609,-7.6094,-7.7187,-7.7187,-7.7187,-7.7161,-7.7019,-7.6786,-7.6555,-7.6419,-7.6169,-7.6015,-7.6015,-7.7169,-7.8015,-7.8477,-7.9708,-8.0592,-8.1093,-8.1093,-8.1093,-8.1093,-8.1093,-8.1093,-8.1093,-8.1093,-8.1093,-8.1093,-8.1093,-8.1093,-8.1093,-8.1093,-8.1093,-8.1093,-8.1093,-8.0554,-7.99,-8.0785,-7.9785,-7.7985,-7.8135,-7.738,-7.6202,-7.5389,-7.4551,-7.3888,-7.3794,-7.3172,-7.2496,-7.2496,-7.2496,-7.2496,-7.2496,-7.2826,-7.3377,-7.4184,-7.4992,-7.5799,-7.6607,-7.7084,-7.7451,-7.7928,-7.8699,-7.925,-7.925,-7.9543,-7.9653,-7.9323,-7.9543,-7.9507,-7.8809,-7.8626,-7.8442,-7.8075,-7.8038,-7.8038,-7.8038,-7.8038,-7.8038,-7.8038,-7.7598,-7.7304,-7.7304,-7.7781,-7.8038,-7.8038,-7.8038,-7.8038,-7.8038,-7.886,-7.9658,-8.0467,-8.0865,-8.0764,-3.8507,-4.5624,-5.1933,-5.8781,-6.2243,-6.4624,-6.6869,-6.8202,-6.9169,-6.9922,-7.0937,-7.168,-7.168,-7.1836,-7.1992,-7.1992,-7.3476,-7.4609,-7.4609,-7.6094,-7.7187,-7.7187,-7.7187,-7.7106,-7.6916,-7.6715,-7.6531,-7.6342,-7.6092,-7.6015,-7.6015,-7.6823,-7.7669,-7.8477,-7.9361,-8.0208,-8.1093,-8.1093,-8.1093,-8.1093,-8.1093,-8.1093,-8.1093,-8.1093,-8.1093,-8.1093,-8.1093,-8.1093,-8.1093,-8.1093,-8.1093,-8.1093,-8.0862,-8.0362,-7.9862,-8.0285,-7.9477,-7.8207,-7.8207,-7.7669,-7.6763,-7.5709,-7.4866,-7.4206,-7.3747,-7.3066,-7.2496,-7.2496,-7.2496,-7.2496,-7.2496,-7.3083,-7.3891,-7.4735,-7.5506,-7.6387,-7.7414,-7.7635,-7.7892,-7.8736,-7.9543,-8.0094,-8.0094,-8.0241,-8.0314,-8.0131,-8.0277,-8.0241,-7.9837,-7.9433,-7.914,-7.8919,-7.8883,-7.8883,-7.8883,-7.8883,-7.8883,-7.8883,-7.8295,-7.7965,-7.7965,-7.8552,-7.8883,-7.8883,-7.9103,-7.9103,-7.8919,-7.9706,-8.043,-8.1002,-8.1012,-8.0645,-3.4199,-3.7353,-4.1623,-5.3164,-5.678,-5.9068,-6.5086,-6.7139,-6.7901,-6.8277,-6.9648,-7.0781,-7.0781,-7.1445,-7.1992,-7.1992,-7.3476,-7.4609,-7.4609,-7.6094,-7.7187,-7.7187,-7.7187,-7.7106,-7.6916,-7.6727,-7.6534,-7.6322,-7.6092,-7.6015,-7.6015,-7.6823,-7.7669,-7.8477,-7.9361,-8.0208,-8.1093,-8.1093,-8.1093,-8.1093,-8.1093,-8.1093,-8.1093,-8.1093,-8.1093,-8.1093,-8.1093,-8.1093,-8.1093,-8.1093,-8.1093,-8.1016,-8.0208,-7.9862,-7.9708,-7.89,-7.8092,-7.7361,-7.7361,-7.6784,-7.6053,-7.5985,-7.5203,-7.4293,-7.4249,-7.3442,-7.2496,-7.2496,-7.2496,-7.2496,-7.2496,-7.3083,-7.3891,-7.4735,-7.5506,-7.6533,-7.8185,-7.8516,-7.8772,-7.958,-8.0388,-8.0938,-8.0938,-8.1562,-8.1819,-8.1048,-8.1599,-8.1525,-7.9984,-8.0424,-8.0571,-7.98,-7.9727,-7.9727,-7.9727,-7.9727,-7.9727,-7.9727,-7.969,-7.9653,-7.9653,-7.969,-7.9727,-7.9727,-8.0498,-8.0534,-7.9737,-8.0534,-8.0938,-8.0992,-8.1002,-8.1002,-3.2352,-3.5468,-3.9123,-4.7201,-5.3234,-5.8112,-6.1576,-6.5181,-6.8066,-6.8866,-6.9922,-7.0703,-7.0703,-7.1406,-7.1992,-7.1992,-7.3008,-7.3945,-7.4531,-7.5625,-7.6562,-7.7148,-7.7187,-7.7137,-7.6897,-7.6721,-7.6544,-7.6322,-7.6092,-7.6015,-7.6015,-7.6284,-7.7092,-7.8438,-7.8784,-7.9631,-8.1093,-8.1093,-8.1093,-8.1093,-8.1093,-8.1093,-8.1093,-8.1093,-8.1093,-8.1093,-8.1093,-8.1093,-8.1093,-8.1093,-8.1093,-8.1016,-8.0131,-7.9477,-7.8938,-7.8631,-7.763,-7.6553,-7.7092,-7.6746,-7.5887,-7.5167,-7.4629,-7.4161,-7.3391,-7.2871,-7.2496,-7.2496,-7.2496,-7.2606,-7.312,-7.3854,-7.4808,-7.613,-7.7084,-7.8002,-7.9103,-7.936,-7.9617,-8.0424,-8.1232,-8.1782,-8.1782,-8.2003,-8.2113,-8.1819,-8.2003,-8.1966,-8.1415,-8.1122,-8.0901,-8.0608,-8.0571,-8.0571,-8.0571,-8.0571,-8.0571,-8.0571,-8.0094,-7.98,-7.98,-8.0277,-8.0571,-8.0571,-8.1893,-8.1893,-8.0544,-8.1379,-8.2039,-8.2524,-8.2003,-8.1746,-2.9775,-3.2237,-3.5238,-4.147,-4.7377,-5.2992,-5.8067,-6.2391,-6.5996,-6.8554,-6.9687,-7.0273,-7.0273,-7.0976,-7.164,-7.1953,-7.2734,-7.3594,-7.4492,-7.5351,-7.6211,-7.7109,-7.7187,-7.7109,-7.6914,-7.6738,-7.6521,-7.6313,-7.6092,-7.6015,-7.6015,-7.6015,-7.6784,-7.8438,-7.8784,-7.9631,-8.1093,-8.1093,-8.1093,-8.1093,-8.1093,-8.1093,-8.1093,-8.1093,-8.1093,-8.1093,-8.1093,-8.1093,-8.1093,-8.1093,-8.1093,-8.0977,-7.9823,-7.9208,-7.8823,-7.7977,-7.713,-7.6476,-7.6746,-7.6476,-7.5818,-7.4866,-7.4464,-7.4117,-7.3066,-7.2686,-7.2496,-7.2496,-7.2496,-7.2679,-7.3487,-7.4515,-7.5652,-7.7011,-7.7965,-7.8809,-7.9617,-7.9984,-8.0424,-8.1232,-8.1819,-8.2186,-8.2186,-8.2186,-8.2186,-8.2186,-8.2186,-8.2186,-8.2186,-8.1746,-8.1415,-8.1415,-8.1415,-8.1415,-8.1415,-8.1415,-8.1415,-8.1415,-8.0901,-8.0608,-8.0608,-8.1122,-8.1525,-8.1819,-8.2884,-8.303,-8.2223,-8.2737,-8.3141,-8.3368,-8.259,-8.2039,0.0,0.0,0.0,-3.6045,-3.9084,-4.3359,-5.4503,-5.8606,-6.1539,-6.6869,-6.8711,-6.9414,-6.9414,-7.0117,-7.1015,-7.1836,-7.2695,-7.3555,-7.4453,-7.5273,-7.6172,-7.7031,-7.7148,-7.7109,-7.6914,-7.673,-7.6516,-7.6303,-7.613,-7.6015,-7.6015,-7.6015,-7.6784,-7.84,-7.9323,-8.0208,-8.1054,-8.1093,-8.1093,-8.1093,-8.1093,-8.1093,-8.1093,-8.1093,-8.1093,-8.1093,-8.1093,-8.1093,-8.1093,-8.1093,-8.1093,-8.09,-7.9169,-7.9015,-7.9438,-7.6938,-7.6553,-7.713,-7.6284,-7.6015,-7.5917,-7.5271,-7.4711,-7.4206,-7.3553,-7.2943,-7.2496,-7.2496,-7.2532,-7.2716,-7.356,-7.4955,-7.635,-7.7121,-7.8002,-7.8846,-7.9617,-8.0461,-8.1269,-8.2039,-8.2186,-8.2186,-8.2186,-8.2186,-8.2186,-8.2186,-8.2186,-8.2186,-8.2186,-8.2186,-8.2186,-8.2186,-8.2186,-8.2186,-8.2186,-8.2186,-8.2186,-8.2186,-8.2186,-8.2186,-8.2223,-8.2223,-8.2627,-8.3434,-8.3471,-8.3875,-8.4646,-8.4609,-8.4205,-8.3434,-8.2627,-8.1782,-2.5572,0.0,0.0,0.0,0.0,0.0,-4.5175,-5.2437,-5.8895,-6.1868,-6.6094,-6.9297,-6.9375,-7.0625,-7.1523,-7.1133,-7.1797,-7.2656,-7.3555,-7.3867,-7.457,-7.6094,-7.625,-7.6484,-7.707,-7.6808,-7.6594,-7.6524,-7.6207,-7.6015,-7.6015,-7.6592,-7.713,-7.763,-7.9054,-7.9939,-8.0169,-8.0785,-8.1093,-8.1093,-8.1093,-8.1093,-8.1093,-8.1093,-8.1093,-8.1093,-8.1093,-8.1093,-8.1093,-8.1093,-8.0746,-8.0054,-7.8938,-7.8284,-7.7823,-7.6476,-7.613,-7.6322,-7.6092,-7.6015,-7.5818,-7.4828,-7.4422,-7.4117,-7.3066,-7.263,-7.2496,-7.2496,-7.2936,-7.367,-7.5065,-7.6203,-7.7047,-7.7268,-7.8405,-7.9507,-7.9727,-8.0865,-8.1929,-8.215,-8.2186,-8.2186,-8.2186,-8.2186,-8.2186,-8.2186,-8.2186,-8.2186,-8.2186,-8.2186,-8.2186,-8.2186,-8.2186,-8.2186,-8.2186,-8.2186,-8.2186,-8.2186,-8.2186,-8.2443,-8.303,-8.3067,-8.3471,-8.4242,-8.4829,-8.5233,-8.5453,-8.4866,-8.4499,-8.4242,-8.3434,-8.2627,-2.5303,-2.5649,-2.6274,-2.7121,0.0,0.0,-4.2318,-4.9456,-5.6325,-6.1896,-6.6092,-6.8828,-6.8867,-7.0,-7.0742,-7.0273,-7.1211,-7.2187,-7.2695,-7.2773,-7.3398,-7.5156,-7.5351,-7.5547,-7.6055,-7.6144,-7.615,-7.6044,-7.6092,-7.6092,-7.6015,-7.6476,-7.6899,-7.7284,-7.8554,-7.9438,-7.9823,-8.0669,-8.1093,-8.1093,-8.1093,-8.1093,-8.1093,-8.1093,-8.1093,-8.1093,-8.1093,-8.1093,-8.1093,-8.1093,-8.0592,-7.9708,-7.8823,-7.8015,-7.7169,-7.6322,-7.6015,-7.6015,-7.6015,-7.5818,-7.5485,-7.4588,-7.4117,-7.3747,-7.2761,-7.2496,-7.2496,-7.2496,-7.3303,-7.4478,-7.5763,-7.6717,-7.7414,-7.7781,-7.8846,-7.9874,-8.0241,-8.1305,-8.2186,-8.2186,-8.2186,-8.2186,-8.2186,-8.2186,-8.2186,-8.2186,-8.2186,-8.2186,-8.2186,-8.2186,-8.2186,-8.2186,-8.2186,-8.2186,-8.2186,-8.2186,-8.2186,-8.2186,-8.2517,-8.292,-8.3398,-8.3728,-8.4278,-8.5086,-8.5563,-8.5783,-8.5783,-8.5306,-8.4756,-8.4095,-8.3287,-8.2663,-2.5495,-2.5303,-2.5495,-2.6274,-2.7659,0.0,-4.185,-4.7094,-5.2446,-6.2034,-6.5205,-6.6286,-6.6327,-6.7147,-6.7773,-6.7773,-6.9492,-7.1133,-7.1875,-7.1914,-7.25,-7.4258,-7.4297,-7.4297,-7.457,-7.5033,-7.5281,-7.5166,-7.5764,-7.6092,-7.6015,-7.6015,-7.6361,-7.713,-7.7938,-7.8784,-7.9669,-8.0516,-8.1016,-8.1093,-8.1093,-8.1093,-8.1093,-8.1093,-8.1093,-8.1093,-8.1093,-8.1093,-8.1093,-8.1093,-8.0516,-7.9592,-7.8784,-7.7938,-7.7053,-7.6284,-7.6015,-7.6015,-7.6015,-7.5654,-7.5091,-7.4506,-7.3934,-7.3391,-7.2686,-7.2496,-7.2532,-7.2716,-7.3854,-7.5212,-7.6019,-7.679,-7.7524,-7.8405,-7.9213,-8.0021,-8.0828,-8.1636,-8.2186,-8.2186,-8.2186,-8.2186,-8.2186,-8.2186,-8.2186,-8.2186,-8.2186,-8.2186,-8.2186,-8.2186,-8.2186,-8.2186,-8.2186,-8.2186,-8.2186,-8.2186,-8.2223,-8.2333,-8.2994,-8.3508,-8.3654,-8.4352,-8.5123,-8.593,-8.5857,-8.571,-8.5527,-8.5527,-8.4792,-8.3398,-8.259,-8.2186,-2.6621,-2.5303,-2.5341,-2.5495,-2.6351,0.0,-3.1587,-3.664,-4.1581,0.0,-5.037,-5.4315,-5.4501,-5.6302,-5.7612,-5.703,-6.0703,-6.5586,-7.1211,-7.1406,-7.1601,-7.3359,-7.2305,-7.2305,-7.4414,-7.3953,-7.3695,-7.4217,-7.4717,-7.5284,-7.5976,-7.6015,-7.6092,-7.6245,-7.7092,-7.7938,-7.8746,-7.9631,-8.04,-8.1093,-8.1093,-8.1093,-8.1093,-8.1093,-8.1093,-8.1093,-8.1093,-8.1093,-8.1093,-8.1093,-8.0169,-7.8746,-7.8554,-7.7592,-7.6245,-7.6053,-7.6015,-7.6015,-7.6015,-7.5917,-7.5654,-7.4629,-7.4206,-7.3934,-7.2816,-7.2496,-7.2789,-7.4074,-7.5139,-7.6056,-7.6864,-7.7194,-7.7524,-7.8405,-7.9213,-8.0021,-8.0828,-8.1636,-8.2186,-8.2186,-8.2186,-8.2186,-8.2186,-8.2186,-8.2186,-8.2186,-8.2186,-8.2186,-8.2186,-8.2186,-8.2186,-8.2186,-8.2186,-8.2186,-8.2186,-8.2186,-8.248,-8.3141,-8.3324,-8.3985,-8.527,-8.549,-8.593,-8.6775,-8.6114,-8.5159,-8.3875,-8.3875,-8.3728,-8.3398,-8.259,-8.2186,-2.8582,-2.6582,-2.5967,-2.5967,-2.6274,0.0,0.0,-3.4747,-3.8646,-4.2615,-4.6507,-4.9314,-4.9829,-5.1657,-5.2962,-5.2614,-5.7636,-6.1914,-6.2851,-6.707,-7.0547,-7.1836,-7.1601,-7.1875,-7.3164,-7.3217,-7.3386,-7.3976,-7.4115,-7.4553,-7.5322,-7.5361,-7.5553,-7.5976,-7.6861,-7.7669,-7.8477,-7.9361,-8.0246,-8.1093,-8.1093,-8.1093,-8.1093,-8.1093,-8.1093,-8.1093,-8.1093,-8.1093,-8.1054,-8.0631,-7.9669,-7.8477,-7.8477,-7.7476,-7.6015,-7.6015,-7.6015,-7.6015,-7.6015,-7.5622,-7.5055,-7.4464,-7.3888,-7.3275,-7.2686,-7.2789,-7.334,-7.4588,-7.5469,-7.6276,-7.7121,-7.7304,-7.7635,-7.8883,-7.9507,-8.0131,-8.1342,-8.1929,-8.2186,-8.2186,-8.2186,-8.2186,-8.2186,-8.2186,-8.2186,-8.2186,-8.2186,-8.2186,-8.2186,-8.2186,-8.2186,-8.2186,-8.2186,-8.2186,-8.2186,-8.2186,-8.2553,-8.3361,-8.3801,-8.4535,-8.5747,-8.6187,-8.6407,-8.6407,-8.56,-8.4609,-8.3398,-8.2994,-8.281,-8.281,-8.237,-8.2186,-3.1083,-2.8352,-2.7082,-2.7082,-2.6851,-2.7729,0.0,0.0,0.0,-4.154,-4.3269,-4.4122,-4.495,-4.6487,-4.7674,-4.7724,-5.3432,-5.6358,-5.2031,-5.9805,-6.6367,-6.7578,-6.9844,-7.1055,-7.0586,-7.1289,-7.2405,-7.3953,-7.2906,-7.3024,-7.4899,-7.4822,-7.5091,-7.5976,-7.6669,-7.7438,-7.8246,-7.9131,-7.9977,-8.0862,-8.1016,-8.1093,-8.1093,-8.1093,-8.1093,-8.1093,-8.1093,-8.1016,-8.0785,-8.0092,-7.9208,-7.8246,-7.8246,-7.7323,-7.6015,-7.6015,-7.6015,-7.6015,-7.6015,-7.531,-7.4464,-7.4336,-7.3492,-7.2532,-7.2679,-7.3303,-7.4111,-7.4918,-7.5726,-7.6497,-7.7157,-7.7451,-7.7928,-7.9433,-7.991,-8.0424,-8.1893,-8.2186,-8.2186,-8.2186,-8.2186,-8.2186,-8.2186,-8.2186,-8.2186,-8.2186,-8.2186,-8.2186,-8.2186,-8.2186,-8.2186,-8.2186,-8.2186,-8.2186,-8.2186,-8.2186,-8.2627,-8.3581,-8.4242,-8.5013,-8.5967,-8.6518,-8.6407,-8.5563,-8.4792,-8.3985,-8.3177,-8.2517,-8.2186,-8.2186,-8.2186,-8.2186,-3.4007,-3.0121,-2.8813,-2.8813,-2.7698,-2.6967,-2.8345,0.0,-2.8191,-2.9676,0.0,-3.1449,-3.2324,0.0,0.0,-3.5149,-4.0359,-4.3986,-4.2731,-4.8828,-5.4336,-5.6758,-6.3906,-6.7734,-6.539,-6.5781,-6.8436,-7.3856,-6.969,-6.9585,-7.5803,-7.5236,-7.5091,-7.5976,-7.6092,-7.6553,-7.7438,-7.8246,-7.9092,-7.9977,-8.0746,-8.1093,-8.1093,-8.1093,-8.1093,-8.1093,-8.1093,-8.0669,-7.9939,-7.9862,-7.8861,-7.7438,-7.7438,-7.6861,-7.6015,-7.6015,-7.6015,-7.6015,-7.6015,-7.5551,-7.4943,-7.4464,-7.3492,-7.2642,-7.334,-7.4147,-7.4955,-7.5726,-7.6533,-7.7194,-7.7304,-7.7892,-7.8662,-7.958,-8.0351,-8.1122,-8.2003,-8.2186,-8.2186,-8.2186,-8.2186,-8.2186,-8.2186,-8.2186,-8.2186,-8.2186,-8.2186,-8.2186,-8.2186,-8.2186,-8.2186,-8.2186,-8.2186,-8.2186,-8.2186,-8.2186,-8.2847,-8.4389,-8.4535,-8.527,-8.6811,-8.6261,-8.5563,-8.4756,-8.3948,-8.3141,-8.2333,-8.2223,-8.2186,-8.2186,-8.2186,-8.2186,-3.7199,-3.5545,-3.4891,-3.1468,-3.1545,-3.1545,-2.7967,-2.6851,-2.6697,-2.7082,0.0,0.0,0.0,0.0,0.0,0.0,-3.5919,-3.8789,-3.548,0.0,-5.0156,0.0,0.0,0.0,-6.332,-6.789,-7.1289,-7.2695,-7.1471,-7.164,-7.3983,-7.4043,-7.4399,-7.5207,-7.5745,-7.6399,-7.7284,-7.8092,-7.8938,-7.9823,-8.0669,-8.1093,-8.1093,-8.1093,-8.1093,-8.1093,-8.1093,-8.0592,-7.9746,-7.9246,-7.8361,-7.7246,-7.6746,-7.6322,-7.6015,-7.6015,-7.6015,-7.5947,-7.5584,-7.5129,-7.4468,-7.359,-7.3222,-7.3266,-7.3597,-7.4588,-7.5689,-7.6019,-7.668,-7.7451,-7.7928,-7.8332,-7.8919,-8.0204,-8.0755,-8.1232,-8.2039,-8.2186,-8.2186,-8.2186,-8.2186,-8.2186,-8.2186,-8.2186,-8.2186,-8.2186,-8.2186,-8.2186,-8.2186,-8.2186,-8.2186,-8.2186,-8.2186,-8.2186,-8.2186,-8.2186,-8.27,-8.3838,-8.4352,-8.5123,-8.6261,-8.5527,-8.4719,-8.3911,-8.3581,-8.2994,-8.2186,-8.2663,-8.292,-8.2884,-8.2406,-8.2361,-4.1546,-4.0623,-3.9854,-3.416,-3.4199,-3.4314,-2.9159,-2.7621,-2.7274,-2.7274,-2.6928,0.0,0.0,0.0,-2.839,-2.839,0.0,-3.4089,-3.0114,-3.7128,0.0,0.0,0.0,0.0,0.0,-6.6133,-7.0039,-7.0039,-7.1183,-7.2207,-7.2866,-7.3311,-7.386,-7.4668,-7.5553,-7.6284,-7.6938,-7.7746,-7.8592,-7.9438,-8.0323,-8.0862,-8.1093,-8.1093,-8.1093,-8.1093,-8.1093,-8.0477,-7.94,-7.8746,-7.79,-7.6861,-7.6245,-7.6015,-7.6015,-7.6015,-7.6015,-7.5917,-7.5306,-7.4632,-7.3888,-7.2816,-7.3046,-7.3744,-7.3964,-7.4992,-7.6166,-7.6387,-7.6864,-7.7524,-7.8369,-7.8772,-7.9286,-8.0681,-8.1158,-8.1489,-8.2076,-8.2186,-8.2186,-8.2186,-8.2186,-8.2186,-8.2186,-8.2186,-8.2186,-8.2186,-8.2186,-8.2186,-8.2186,-8.2186,-8.2186,-8.2186,-8.2186,-8.2186,-8.2186,-8.2186,-8.2553,-8.3361,-8.3765,-8.4389,-8.5416,-8.4499,-8.3765,-8.3434,-8.3177,-8.2774,-8.2186,-8.281,-8.3044,-8.292,-8.2555,-8.2572,-4.7625,-4.4201,-4.1777,-3.6661,-3.4199,-3.2776,-3.1775,-3.0237,-2.9006,-2.9006,-2.7736,-2.6851,-2.7736,-2.7236,-2.6697,-2.6697,-2.7603,0.0,0.0,0.0,0.0,0.0,0.0,0.0,0.0,-5.6328,-6.0469,0.0,-6.6252,-6.87,-7.3663,-7.3658,-7.386,-7.4668,-7.5553,-7.6015,-7.6053,-7.6899,-7.7746,-7.8554,-7.9438,-8.0285,-8.1093,-8.1093,-8.1093,-8.1093,-8.1093,-8.0131,-7.8515,-7.8515,-7.7515,-7.6053,-7.6015,-7.6015,-7.6015,-7.6015,-7.6015,-7.5917,-7.5306,-7.4384,-7.3341,-7.2686,-7.3046,-7.3854,-7.4625,-7.5432,-7.6276,-7.7047,-7.7304,-7.7524,-7.8369,-7.9176,-7.9947,-8.0791,-8.1599,-8.215,-8.2186,-8.2186,-8.2186,-8.2186,-8.2186,-8.2186,-8.2186,-8.2186,-8.2186,-8.2186,-8.2186,-8.2186,-8.2186,-8.2186,-8.2186,-8.2186,-8.2186,-8.2186,-8.2186,-8.2186,-8.2553,-8.3361,-8.27,-8.2994,-8.4572,-8.3104,-8.2627,-8.3398,-8.2627,-8.2223,-8.2186,-8.2223,-8.2085,-8.1851,-8.2535,-8.2896,-5.2279,-5.3126,-5.2626,-4.3585,-4.3431,-4.3355,-3.5199,-3.2429,-3.1468,-3.0929,-2.9467,-2.8352,-2.8621,-2.7544,-2.6621,-2.6621,-2.6428,-2.6198,0.0,0.0,0.0,0.0,0.0,0.0,0.0,0.0,0.0,0.0,-6.8658,0.0,-7.3097,-7.2965,-7.3427,-7.4668,-7.4976,-7.5438,-7.5976,-7.6861,-7.7707,-7.8515,-7.9361,-8.0246,-8.1093,-8.1093,-8.1093,-8.1054,-8.0477,-7.9592,-7.8438,-7.7938,-7.7015,-7.6015,-7.6015,-7.6015,-7.6015,-7.6015,-7.6015,-7.5848,-7.4905,-7.3794,-7.2872,-7.3198,-7.3854,-7.4661,-7.5469,-7.6276,-7.6974,-7.7231,-7.7304,-7.7635,-7.9029,-7.958,-8.0131,-8.1489,-8.2003,-8.2186,-8.2186,-8.2186,-8.2186,-8.2186,-8.2186,-8.2186,-8.2186,-8.2186,-8.2186,-8.2186,-8.2186,-8.2186,-8.2186,-8.2186,-8.2186,-8.2186,-8.2186,-8.1966,-8.1452,-8.0424,-8.0167,-8.0975,-8.0755,-8.1085,-8.2186,-8.2223,-8.2333,-8.259,-8.2333,-8.2186,-8.2186,-8.2737,-8.2559,-8.1778,-8.1848,-8.1449,-5.7242,-5.8742,-5.8665,-4.9702,-4.9933,-4.9971,-4.0816,-3.7815,-3.6906,-3.6768,-3.339,-3.1592,-3.54,-3.1356,-2.8104,-2.9978,-2.7778,-2.5765,0.0,-2.6087,0.0,0.0,0.0,0.0,0.0,0.0,0.0,0.0,0.0,0.0,0.0,-7.2598,-7.2888,-7.3783,-7.4399,-7.4976,-7.5515,-7.6399,-7.74,-7.8515,-7.9054,-7.9977,-8.1093,-8.1093,-8.1093,-8.1054,-8.0516,-7.9592,-7.8438,-7.7938,-7.7053,-7.6015,-7.6015,-7.6015,-7.6015,-7.6015,-7.5756,-7.5274,-7.4336,-7.329,-7.2642,-7.345,-7.4258,-7.5065,-7.5873,-7.668,-7.7378,-7.7708,-7.7781,-7.8148,-7.98,-8.0241,-8.0571,-8.1893,-8.2186,-8.2186,-8.2186,-8.2186,-8.2186,-8.2186,-8.1966,-8.1782,-8.1782,-8.1525,-8.1525,-8.2113,-8.2186,-8.2186,-8.2186,-8.1929,-8.1782,-8.1782,-8.1525,-8.1012,-8.0204,-7.8662,-7.8295,-7.969,-7.925,-7.9653,-8.1379,-8.1636,-8.1893,-8.2186,-8.2186,-8.2186,-8.2186,-8.233,-8.2029,-8.1381,-8.0304,-7.946]}]]